[[{"header":{"parameterUnit":"m.s-1","parameterCategory":1,"la1":30.6,"la2":28.766,"lo1":-90.7593,"lo2":-88.6598,"dy":0.0162,"dx":0.0183,"nx":116,"ny":114,"refTime":"2023-05-09T00:00:00:Z","depth":0,"parameterNumber":2,"parameterNumberName":"U-component_of_WINDS"},"data":[0.0,0.0,0.0,0.0,0.0,0.0,0.0,0.0,0.0,0.0,0.0,0.0,0.0,0.0,0.0,0.0,0.0,0.0,0.0,0.0,0.0,0.0,0.0,0.0,0.0,0.0,0.0,0.0,0.0,0.0,0.0,0.0,0.0,0.0,0.0,0.0,0.0,0.0,0.0,0.0,0.0,0.0,0.0,0.0,0.0,0.0,0.0,0.0,0.0,0.0,0.0,0.0,0.0,0.0,0.0,0.0,0.0,0.0,0.0,0.0,0.0,0.0,0.0,0.0,0.0,0.0,0.0,0.0,0.0,0.0,0.0,0.0,0.0,0.0,0.0,0.0,0.0,0.0,0.0,0.0,0.0,0.0,0.0,0.0,0.0,0.0,0.0,0.0,0.0,0.0,0.0,0.0,0.0,0.0,0.0,0.0,0.0,0.0,0.0,0.0,0.0,0.0,0.0,0.0,0.0,0.0,0.0,0.0,0.0,0.0,0.0,0.0,0.0,0.0,0.0,0.0,0.0,0.0,0.0,0.0,0.0,0.0,0.0,0.0,0.0,0.0,0.0,0.0,0.0,0.0,0.0,0.0,0.0,0.0,0.0,0.0,0.0,0.0,0.0,0.0,0.0,0.0,0.0,0.0,0.0,0.0,0.0,0.0,0.0,0.0,0.0,0.0,0.0,0.0,0.0,0.0,0.0,0.0,0.0,0.0,0.0,0.0,0.0,0.0,0.0,0.0,0.0,0.0,0.0,0.0,0.0,0.0,0.0,0.0,0.0,0.0,0.0,0.0,0.0,0.0,0.0,0.0,0.0,0.0,0.0,0.0,0.0,0.0,0.0,0.0,0.0,0.0,0.0,0.0,0.0,0.0,0.0,0.0,0.0,0.0,0.0,0.0,0.0,0.0,0.0,0.0,0.0,0.0,0.0,0.0,0.0,0.0,0.0,0.0,0.0,0.0,0.0,0.0,0.0,0.0,0.0,0.0,0.0,0.0,0.0,0.0,0.0,0.0,0.0,0.0,0.0,0.0,0.0,0.0,0.0,0.0,0.0,0.0,0.0,0.0,0.0,0.0,0.0,0.0,0.0,0.0,0.0,0.0,0.0,0.0,0.0,0.0,0.0,0.0,0.0,0.0,0.0,0.0,0.0,0.0,0.0,0.0,0.0,0.0,0.0,0.0,0.0,0.0,0.0,0.0,0.0,0.0,0.0,0.0,0.0,0.0,0.0,0.0,0.0,0.0,0.0,0.0,0.0,0.0,0.0,0.0,0.0,0.0,0.0,0.0,0.0,0.0,0.0,0.0,0.0,0.0,0.0,0.0,0.0,0.0,0.0,0.0,0.0,0.0,0.0,0.0,0.0,0.0,0.0,0.0,0.0,0.0,0.0,0.0,0.0,0.0,0.0,0.0,0.0,0.0,0.0,0.0,0.0,0.0,0.0,0.0,0.0,0.0,0.0,0.0,0.0,0.0,0.0,0.0,0.0,0.0,0.0,0.0,0.0,0.0,0.0,0.0,0.0,0.0,0.0,0.0,0.0,0.0,0.0,0.0,0.0,0.0,0.0,0.0,0.0,0.0,0.0,0.0,0.0,0.0,0.0,0.0,0.0,0.0,0.0,0.0,0.0,0.0,0.0,0.0,0.0,0.0,0.0,0.0,0.0,0.0,0.0,0.0,0.0,0.0,0.0,0.0,0.0,0.0,0.0,0.0,0.0,0.0,0.0,0.0,0.0,0.0,0.0,0.0,0.0,0.0,0.0,0.0,0.0,0.0,0.0,0.0,0.0,0.0,0.0,0.0,0.0,0.0,0.0,0.0,0.0,0.0,0.0,0.0,0.0,0.0,0.0,0.0,0.0,0.0,0.0,0.0,0.0,0.0,0.0,0.0,0.0,0.0,0.0,0.0,0.0,0.0,0.0,0.0,0.0,0.0,0.0,0.0,0.0,0.0,0.0,0.0,0.0,0.0,0.0,0.0,0.0,0.0,0.0,0.0,0.0,0.0,0.0,0.0,0.0,0.0,0.0,0.0,0.0,0.0,0.0,0.0,0.0,0.0,0.0,0.0,0.0,0.0,0.0,0.0,0.0,0.0,0.0,0.0,0.0,0.0,0.0,0.0,0.0,0.0,0.0,0.0,0.0,0.0,0.0,0.0,0.0,0.0,0.0,0.0,0.0,0.0,0.0,0.0,0.0,0.0,0.0,0.0,0.0,0.0,0.0,0.0,0.0,0.0,0.0,0.0,0.0,0.0,0.0,0.0,0.0,0.0,0.0,0.0,0.0,0.0,0.0,0.0,0.0,0.0,0.0,0.0,0.0,0.0,0.0,0.0,0.0,0.0,0.0,0.0,0.0,0.0,0.0,0.0,0.0,0.0,0.0,0.0,0.0,0.0,0.0,0.0,0.0,0.0,0.0,0.0,0.0,0.0,0.0,0.0,0.0,0.0,0.0,0.0,0.0,0.0,0.0,0.0,0.0,0.0,0.0,0.0,0.0,0.0,0.0,0.0,0.0,0.0,0.0,0.0,0.0,0.0,0.0,0.0,0.0,0.0,0.0,0.0,0.0,0.0,0.0,0.0,0.0,0.0,0.0,0.0,0.0,0.0,0.0,0.0,0.0,0.0,0.0,0.0,0.0,0.0,0.0,0.0,0.0,0.0,0.0,0.0,0.0,0.0,0.0,0.0,0.0,0.0,0.0,0.0,0.0,0.0,0.0,0.0,0.0,0.0,0.0,0.0,0.0,0.0,0.0,0.0,0.0,0.0,0.0,0.0,0.0,0.0,0.0,0.0,0.0,0.0,0.0,0.0,0.0,0.0,0.0,0.0,0.0,0.0,0.0,0.0,0.0,0.0,0.0,0.0,0.0,0.0,0.0,0.0,0.0,0.0,0.0,0.0,0.0,0.0,0.0,0.0,0.0,0.0,0.0,0.0,0.0,0.0,0.0,0.0,0.0,0.0,0.0,0.0,0.0,0.0,0.0,0.0,0.0,0.0,0.0,0.0,0.0,0.0,0.0,0.0,0.0,0.0,0.0,0.0,0.0,0.0,0.0,0.0,0.0,0.0,0.0,0.0,0.0,0.0,0.0,0.0,0.0,0.0,0.0,0.0,0.0,0.0,0.0,0.0,0.0,0.0,0.0,0.0,0.0,0.0,0.0,0.0,0.0,0.0,0.0,0.0,0.0,0.0,0.0,0.0,0.0,0.0,0.0,0.0,0.0,0.0,0.0,0.0,0.0,0.0,0.0,0.0,0.0,0.0,0.0,0.0,0.0,0.0,0.0,0.0,0.0,0.0,0.0,0.0,0.0,0.0,0.0,0.0,0.0,0.0,0.0,0.0,0.0,0.0,0.0,0.0,0.0,0.0,0.0,0.0,0.0,0.0,0.0,0.0,0.0,0.0,0.0,0.0,0.0,0.0,0.0,0.0,0.0,0.0,0.0,0.0,0.0,0.0,0.0,0.0,0.0,0.0,0.0,0.0,0.0,0.0,0.0,0.0,0.0,0.0,0.0,0.0,0.0,0.0,0.0,0.0,0.0,0.0,0.0,0.0,0.0,0.0,0.0,0.0,0.0,0.0,0.0,0.0,0.0,0.0,0.0,0.0,0.0,0.0,0.0,0.0,0.0,0.0,0.0,0.0,0.0,0.0,0.0,0.0,0.0,0.0,0.0,0.0,0.0,0.0,0.0,0.0,0.0,0.0,0.0,0.0,0.0,0.0,0.0,0.0,0.0,0.0,0.0,0.0,0.0,0.0,0.0,0.0,0.0,0.0,0.0,0.0,0.0,0.0,0.0,0.0,0.0,0.0,0.0,0.0,0.0,0.0,0.0,0.0,0.0,0.0,0.0,0.0,0.0,0.0,0.0,0.0,0.0,0.0,0.0,0.0,0.0,0.0,0.0,0.0,0.0,0.0,0.0,0.0,0.0,0.0,0.0,0.0,0.0,0.0,0.0,0.0,0.0,0.0,0.0,0.0,0.0,0.0,0.0,0.0,0.0,0.0,0.0,0.0,0.0,0.0,0.0,0.0,0.0,0.0,0.0,0.0,0.0,0.0,0.0,0.0,0.0,0.0,0.0,0.0,0.0,0.0,0.0,0.0,0.0,0.0,0.0,0.0,0.0,0.0,0.0,0.0,0.0,0.0,0.0,0.0,0.0,0.0,0.0,0.0,0.0,0.0,0.0,0.0,0.0,0.0,0.0,0.0,0.0,0.0,0.0,0.0,0.0,0.0,0.0,0.0,0.0,0.0,0.0,0.0,0.0,0.0,0.0,0.0,0.0,0.0,0.0,0.0,0.0,0.0,0.0,0.0,0.0,0.0,0.0,0.0,0.0,0.0,0.0,0.0,0.0,0.0,0.0,0.0,0.0,0.0,0.0,0.0,0.0,0.0,0.0,0.0,0.0,0.0,0.0,0.0,0.0,0.0,0.0,0.0,0.0,0.0,0.0,0.0,0.0,0.0,0.0,0.0,0.0,0.0,0.0,0.0,0.0,0.0,0.0,0.0,0.0,0.0,0.0,0.0,0.0,0.0,0.0,0.0,0.0,0.0,0.0,0.0,0.0,0.0,0.0,0.0,0.0,0.0,0.0,0.0,0.0,0.0,0.0,0.0,0.0,0.0,0.0,0.0,0.0,0.0,0.0,0.0,0.0,0.0,0.0,0.0,0.0,0.0,0.0,0.0,0.0,0.0,0.0,0.0,0.0,0.0,0.0,0.0,0.0,0.0,0.0,0.0,0.0,0.0,0.0,0.0,0.0,0.0,0.0,0.0,0.0,0.0,0.0,0.0,0.0,0.0,0.0,0.0,0.0,0.0,0.0,0.0,0.0,0.0,0.0,0.0,0.0,0.0,0.0,0.0,0.0,0.0,0.0,0.0,0.0,0.0,0.0,0.0,0.0,0.0,0.0,0.0,0.0,0.0,0.0,0.0,0.0,0.0,0.0,0.0,0.0,0.0,0.0,0.0,0.0,0.0,0.0,0.0,0.0,0.0,0.0,0.0,0.0,0.0,0.0,0.0,0.0,0.0,0.0,0.0,0.0,0.0,0.0,0.0,0.0,0.0,0.0,0.0,0.0,0.0,0.0,0.0,0.0,0.0,0.0,0.0,0.0,0.0,0.0,0.0,0.0,0.0,0.0,0.0,0.0,0.0,0.0,0.0,0.0,0.0,0.0,0.0,0.0,0.0,0.0,0.0,0.0,0.0,0.0,0.0,0.0,0.0,0.0,0.0,0.0,0.0,0.0,0.0,0.0,0.0,0.0,0.0,0.0,0.0,0.0,0.0,0.0,0.0,0.0,0.0,0.0,0.0,0.0,0.0,0.0,0.0,0.0,0.0,0.0,0.0,0.0,0.0,0.0,0.0,0.0,0.0,0.0,0.0,0.0,0.0,0.0,0.0,0.0,0.0,0.0,0.0,0.0,0.0,0.0,0.0,0.0,0.0,0.0,0.0,0.0,0.0,0.0,0.0,0.0,0.0,0.0,0.0,0.0,0.0,0.0,0.0,0.0,0.0,0.0,0.0,0.0,0.0,0.0,0.0,0.0,0.0,0.0,0.0,0.0,0.0,0.0,0.0,0.0,0.0,0.0,0.0,0.0,0.0,0.0,0.0,0.0,0.0,0.0,0.0,0.0,0.0,0.0,0.0,0.0,0.0,0.0,0.0,0.0,0.0,0.0,0.0,0.0,0.0,0.0,0.0,0.0,0.0,0.0,0.0,0.0,0.0,0.0,0.0,0.0,0.0,0.0,0.0,0.0,0.0,0.0,0.0,0.0,0.0,0.0,0.0,0.0,0.0,0.0,0.0,0.0,0.0,0.0,0.0,0.0,0.0,0.0,0.0,0.0,0.0,0.0,0.0,0.0,0.0,0.0,0.0,0.0,0.0,0.0,0.0,0.0,0.0,0.0,0.0,0.0,0.0,0.0,0.0,0.0,0.0,0.0,0.0,0.0,0.0,0.0,0.0,0.0,0.0,0.0,0.0,0.0,0.0,0.0,0.0,0.0,0.0,0.0,0.0,0.0,0.0,0.0,0.0,0.0,0.0,0.0,0.0,0.0,0.0,0.0,0.0,0.0,0.0,0.0,0.0,0.0,0.0,0.0,0.0,-2.6989,0.0,0.0,0.0,0.0,0.0,0.0,0.0,0.0,0.0,0.0,0.0,0.0,0.0,0.0,0.0,0.0,0.0,0.0,0.0,0.0,0.0,0.0,0.0,0.0,0.0,0.0,0.0,0.0,0.0,0.0,0.0,0.0,0.0,0.0,0.0,0.0,0.0,0.0,-1.8651,-1.9783,-2.1119,-2.2668,-2.2871,-2.3173,-2.3585,0.0,0.0,0.0,0.0,0.0,0.0,0.0,0.0,0.0,0.0,0.0,0.0,0.0,0.0,0.0,0.0,0.0,0.0,0.0,0.0,0.0,0.0,0.0,0.0,0.0,0.0,0.0,0.0,0.0,0.0,0.0,0.0,0.0,0.0,0.0,0.0,0.0,0.0,0.0,0.0,0.0,0.0,0.0,0.0,0.0,0.0,0.0,0.0,0.0,0.0,0.0,0.0,0.0,0.0,0.0,0.0,0.0,0.0,0.0,0.0,0.0,0.0,0.0,0.0,0.0,0.0,0.0,0.0,0.0,0.0,0.0,-2.7259,0.0,0.0,0.0,0.0,0.0,0.0,0.0,0.0,0.0,0.0,0.0,0.0,0.0,0.0,0.0,0.0,0.0,0.0,0.0,0.0,0.0,0.0,0.0,0.0,-1.5551,-1.6342,-1.6016,-1.6067,0.0,0.0,0.0,0.0,0.0,0.0,0.0,-1.6803,-1.767,-1.8749,-2.0413,-2.2129,-2.3832,-2.395,-2.4248,-2.4688,-2.4853,0.0,0.0,0.0,0.0,0.0,0.0,0.0,0.0,0.0,0.0,0.0,0.0,0.0,0.0,0.0,0.0,0.0,0.0,0.0,0.0,0.0,0.0,0.0,0.0,0.0,0.0,0.0,0.0,0.0,0.0,0.0,0.0,0.0,0.0,0.0,0.0,0.0,0.0,0.0,0.0,0.0,0.0,0.0,0.0,0.0,0.0,0.0,0.0,0.0,0.0,0.0,0.0,0.0,0.0,0.0,0.0,0.0,0.0,0.0,0.0,0.0,0.0,0.0,-2.9886,-2.9896,-3.0916,-3.0354,-3.0435,-3.0917,-2.9077,-2.8198,-2.8045,-2.786,0.0,0.0,0.0,0.0,0.0,0.0,0.0,0.0,0.0,0.0,0.0,0.0,0.0,0.0,0.0,0.0,0.0,0.0,0.0,0.0,0.0,-1.6241,-1.6549,-1.7566,-1.7146,-1.7034,0.0,0.0,0.0,0.0,0.0,0.0,-1.6849,-1.7422,-1.8505,-2.0146,-2.2036,-2.347,-2.4407,-2.4479,-2.4857,-2.5446,-2.543,-2.5131,-2.4718,0.0,0.0,0.0,0.0,0.0,0.0,0.0,0.0,0.0,0.0,0.0,0.0,0.0,0.0,0.0,0.0,0.0,0.0,0.0,0.0,0.0,0.0,0.0,0.0,0.0,0.0,0.0,0.0,0.0,0.0,0.0,0.0,0.0,0.0,0.0,0.0,0.0,0.0,0.0,0.0,0.0,-2.6037,-2.7601,0.0,0.0,0.0,0.0,0.0,0.0,0.0,0.0,0.0,0.0,0.0,0.0,0.0,-3.0672,-3.0781,-3.1592,-3.166,-3.1007,-3.1619,-3.1614,-3.1079,-3.0917,-3.0948,-3.1074,-3.0726,0.0,-2.9432,-2.8274,0.0,0.0,0.0,0.0,0.0,0.0,0.0,0.0,0.0,0.0,0.0,0.0,0.0,0.0,0.0,0.0,0.0,0.0,0.0,0.0,0.0,-1.6886,-1.7326,-1.8223,-1.764,-1.7512,-1.8201,-1.7491,0.0,0.0,0.0,-1.6801,-1.694,-1.7905,-1.9485,-2.1633,-2.3011,-2.4145,-2.5005,-2.5005,-2.5183,-2.5511,-2.6018,-2.5943,-2.5514,-2.6572,0.0,0.0,0.0,0.0,0.0,0.0,0.0,0.0,0.0,0.0,0.0,0.0,0.0,0.0,0.0,0.0,0.0,0.0,0.0,0.0,0.0,0.0,0.0,0.0,0.0,0.0,0.0,0.0,0.0,0.0,0.0,0.0,0.0,0.0,0.0,0.0,0.0,0.0,0.0,-2.5612,-2.7148,-2.7981,-2.8135,-2.822,0.0,0.0,0.0,0.0,0.0,0.0,0.0,0.0,0.0,-3.0812,-3.1319,-3.1833,-3.2353,-3.2333,-3.2083,-3.1682,-3.167,-3.1715,-3.1779,-3.1779,-3.2033,-3.2433,-3.1979,-3.1565,-3.1084,-2.9643,-2.921,-2.9345,0.0,0.0,0.0,0.0,-2.7308,-2.7783,0.0,0.0,0.0,0.0,0.0,0.0,0.0,0.0,0.0,0.0,0.0,0.0,-1.7425,-1.7689,-1.817,-1.8963,-1.8285,-1.8086,-1.8729,-1.8157,0.0,0.0,-1.7518,-1.7628,-1.7438,-1.8972,-2.0896,-2.3202,-2.3904,-2.4824,-2.5865,-2.5627,-2.5643,-2.5874,-2.6803,-2.6866,-2.6345,-2.7416,-2.7159,-2.6034,0.0,0.0,0.0,0.0,0.0,0.0,0.0,0.0,0.0,0.0,0.0,0.0,0.0,0.0,0.0,0.0,0.0,0.0,0.0,0.0,0.0,0.0,0.0,0.0,0.0,0.0,0.0,0.0,0.0,0.0,0.0,0.0,0.0,0.0,0.0,0.0,0.0,-2.6689,-2.7803,-2.8165,-2.8422,-2.878,0.0,0.0,0.0,0.0,0.0,0.0,-3.0464,-3.0588,-3.108,-3.2,-3.2239,-3.2661,-3.3375,-3.282,-3.2516,-3.2459,-3.1969,-3.2047,-3.2573,-3.2643,-3.2942,-3.3415,-3.2841,-3.2583,-3.2469,-3.0755,-3.0045,-2.9899,-2.8724,-2.8257,-2.8175,-2.7722,-2.7988,-2.8652,0.0,0.0,0.0,0.0,0.0,0.0,0.0,0.0,0.0,0.0,0.0,-1.7578,-1.8945,-1.8886,-1.9126,-2.014,-1.9415,-1.902,-1.9258,-1.8806,-1.8559,-1.8595,-1.8077,-1.8145,-1.8881,-2.1008,-2.3021,-2.4875,-2.4942,-2.5694,-2.71,-2.6443,-2.646,-2.7041,-2.7928,-2.7743,-2.6833,-2.7841,-2.7803,-2.7005,-2.6477,0.0,0.0,0.0,0.0,0.0,0.0,0.0,0.0,0.0,0.0,0.0,0.0,0.0,0.0,0.0,0.0,0.0,0.0,0.0,0.0,0.0,0.0,0.0,0.0,0.0,0.0,0.0,0.0,0.0,0.0,0.0,0.0,0.0,0.0,0.0,0.0,0.0,0.0,-2.8676,-2.9534,0.0,0.0,0.0,0.0,-2.9608,-2.9726,-3.024,-3.1205,-3.1303,-3.1753,-3.2629,-3.2858,-3.297,-3.3021,-3.3108,-3.3148,-3.3148,-3.3364,-3.3429,-3.3339,-3.3353,-3.3345,-3.3292,-3.3144,-3.3199,-3.3269,-3.1082,-3.0155,-3.0039,-2.9462,-2.9195,-2.9155,-2.9229,-2.9349,-2.9568,0.0,0.0,0.0,0.0,0.0,0.0,0.0,0.0,-1.2975,-1.387,-1.644,-1.8329,-1.8712,-1.9476,-2.0057,-2.0283,-1.9498,-1.9088,-1.9284,-1.9009,-1.8793,-1.8631,-1.8758,-1.9351,-2.0459,-2.2245,-2.3491,-2.4241,-2.4567,-2.5318,-2.6435,-2.6047,-2.6256,-2.6938,-2.7734,-2.7876,-2.7545,-2.8255,-2.7871,-2.6775,-2.6667,-2.5903,0.0,0.0,0.0,0.0,0.0,0.0,0.0,0.0,0.0,0.0,0.0,0.0,0.0,0.0,0.0,0.0,0.0,0.0,0.0,0.0,0.0,0.0,0.0,0.0,0.0,0.0,0.0,0.0,0.0,0.0,0.0,0.0,0.0,0.0,0.0,0.0,0.0,-2.9334,-2.9755,0.0,-3.06,-3.0202,-3.0222,-3.0956,-3.1115,-3.1359,-3.1863,-3.1898,-3.2122,-3.2573,-3.2639,-3.2786,-3.3008,-3.3037,-3.3114,-3.3205,-3.3235,-3.3331,-3.3393,-3.3316,-3.3271,-3.331,-3.3289,-3.3319,-3.3273,-3.2006,-3.1261,-3.0821,-2.9691,-2.9251,-2.9272,-2.938,-2.9463,-2.9625,0.0,0.0,0.0,0.0,0.0,0.0,0.0,0.0,-1.2205,-1.3147,-1.612,-1.8333,-1.8785,-1.9845,-2.0516,-2.0499,-1.9661,-1.9257,-1.9549,-1.9307,-1.9218,-1.934,-1.9794,-2.0591,-2.1773,-2.2985,-2.3909,-2.4536,-2.4872,-2.5451,-2.623,-2.6332,-2.6611,-2.7108,-2.7826,-2.8139,-2.8162,-2.8522,-2.8014,-2.6965,-2.7146,-2.6478,-2.5335,0.0,0.0,0.0,0.0,0.0,0.0,0.0,0.0,0.0,0.0,0.0,0.0,0.0,0.0,0.0,0.0,0.0,0.0,0.0,0.0,0.0,0.0,0.0,0.0,0.0,0.0,0.0,0.0,0.0,0.0,0.0,0.0,0.0,0.0,-2.8769,-2.9556,-2.9579,-3.0205,-3.0687,-3.0878,-3.1171,-3.1423,-3.1615,-3.1951,-3.2097,-3.1964,-3.2019,-3.2126,-3.2249,-3.2353,-3.2506,-3.2719,-3.2802,-3.2882,-3.2959,-3.3008,-3.3073,-3.3135,-3.3114,-3.3132,-3.314,-3.3244,-3.3304,-3.3283,-3.2552,-3.2092,-3.1617,-2.9803,-2.9152,-2.9174,-2.8717,-2.8651,-2.8802,0.0,0.0,0.0,0.0,0.0,0.0,0.0,-1.0275,-1.1398,-1.243,-1.5111,-1.7569,-1.9271,-2.0049,-2.0543,-2.0876,-2.0003,-1.96,-2.0079,-1.9719,-1.9886,-2.0749,-2.1158,-2.1807,-2.2786,-2.3365,-2.4422,-2.5977,-2.5926,-2.6177,-2.6726,-2.7391,-2.7688,-2.7674,-2.8302,-2.8597,-2.8597,-2.8573,-2.8233,-2.7711,-2.789,-2.7554,-2.6829,0.0,0.0,0.0,0.0,0.0,0.0,0.0,0.0,0.0,0.0,0.0,0.0,0.0,0.0,0.0,0.0,0.0,0.0,0.0,0.0,0.0,0.0,0.0,0.0,0.0,0.0,0.0,0.0,0.0,0.0,0.0,0.0,0.0,-2.8486,-2.9042,-2.9446,-2.9463,-3.0966,-3.1667,-3.0862,-3.2478,-3.2961,-3.1448,-3.2125,-3.2266,-3.1532,-3.1688,-3.1783,-3.1765,-3.2055,-3.2179,-3.2162,-3.237,-3.2473,-3.2489,-3.2755,-3.2804,-3.2606,-3.2864,-3.2914,-3.2805,-3.3011,-3.3211,-3.3339,-3.2702,-3.2492,-3.2349,-2.9905,-2.9025,-2.896,-2.7507,-2.7065,-2.7306,0.0,0.0,0.0,0.0,0.0,0.0,0.0,-1.0288,-1.1496,-1.1833,-1.5324,-1.8007,-1.8617,-2.002,-2.0988,-2.1167,-2.0077,-1.9594,-2.0068,-1.9688,-1.9746,-2.0481,-2.1798,-2.2659,-2.2936,-2.403,-2.4871,-2.5354,-2.571,-2.6219,-2.6867,-2.7525,-2.8029,-2.8333,-2.8519,-2.8565,-2.8444,-2.825,-2.8006,-2.7753,-2.7472,-2.6995,-2.6382,0.0,0.0,0.0,0.0,0.0,0.0,0.0,0.0,0.0,0.0,0.0,0.0,0.0,0.0,0.0,0.0,0.0,0.0,0.0,0.0,0.0,0.0,0.0,0.0,0.0,0.0,0.0,0.0,0.0,0.0,0.0,-2.825,-2.9024,-2.9068,-2.9597,-3.0218,-3.0846,-3.1388,-3.186,-3.2252,-3.3001,-3.3059,-3.209,-3.2372,-3.2266,-3.1532,-3.1614,-3.1414,-3.0865,-3.1526,-3.1669,-3.1185,-3.1759,-3.2126,-3.2284,-3.2506,-3.2574,-3.254,-3.2755,-3.287,-3.2868,-3.2932,-3.3106,-3.3304,-3.3132,-3.2799,-3.2211,-3.0558,-2.9938,-2.9867,-2.8971,-2.8781,-2.9017,0.0,0.0,0.0,0.0,0.0,0.0,0.0,-1.0348,-1.1223,-1.1851,-1.4943,-1.7563,-1.8759,-2.0084,-2.098,-2.1212,-2.0125,-1.96,-1.9995,-2.0097,-2.0284,-2.0561,-2.2123,-2.3046,-2.317,-2.4373,-2.5084,-2.5224,-2.5702,-2.6131,-2.654,-2.7406,-2.7982,-2.8272,-2.8425,-2.8468,-2.8387,-2.8177,-2.7905,-2.761,-2.7353,-2.7106,-2.6847,-2.6131,-2.5785,-2.5589,-2.4825,-2.4128,-2.3497,-2.3205,0.0,0.0,0.0,0.0,0.0,0.0,0.0,0.0,0.0,0.0,0.0,0.0,0.0,0.0,0.0,0.0,0.0,0.0,0.0,0.0,0.0,0.0,0.0,0.0,-2.873,-2.9321,-2.9633,-2.9943,-3.0446,-3.1314,-3.177,-3.2243,-3.2768,-3.37,-3.371,-3.2306,-3.2676,-3.2488,-3.1434,-3.1445,-3.128,-3.0854,-3.1449,-3.1594,-3.1145,-3.1704,-3.1984,-3.2054,-3.2319,-3.2439,-3.2439,-3.2706,-3.2886,0.0,-3.3088,-3.3211,-3.3352,-3.3466,-3.3065,0.0,0.0,0.0,0.0,0.0,-2.8563,-2.9007,0.0,0.0,0.0,0.0,0.0,0.0,0.0,-1.0517,-1.0965,-1.225,-1.4457,-1.6831,-1.9206,-2.0191,-2.0801,-2.1108,-2.0206,-1.9704,-1.9904,-2.0662,-2.1031,-2.0809,-2.2209,-2.3117,-2.3397,-2.4505,-2.5182,-2.5397,-2.5843,-2.6054,-2.6034,-2.7124,-2.7708,-2.7833,-2.8178,-2.8359,-2.8396,-2.825,-2.789,-2.7452,-2.7427,-2.7539,-2.7705,-2.7169,-2.7052,-2.703,-2.6396,-2.5697,-2.5057,-2.4515,0.0,0.0,0.0,0.0,0.0,0.0,0.0,0.0,0.0,0.0,0.0,0.0,0.0,0.0,0.0,0.0,0.0,0.0,0.0,0.0,0.0,0.0,0.0,0.0,-2.8686,-2.9431,-3.0107,-3.0098,-3.0348,-3.1297,-3.2103,-3.2628,-3.279,-3.4342,-3.4421,-3.2249,-3.2832,-3.2662,-3.1278,0.0,0.0,0.0,0.0,-3.1656,-3.144,-3.1822,-3.1947,-3.1818,-3.2214,-3.2371,-3.2353,-3.2721,-3.2932,-3.3028,-3.3316,-3.3452,-3.3422,-3.3657,-3.3208,-3.2221,-3.0628,-2.9594,-2.8845,-2.7514,-2.7512,-2.8164,0.0,0.0,0.0,0.0,0.0,0.0,0.0,-1.1069,-1.189,-1.2471,-1.5329,-1.7639,-1.8542,-2.0101,-2.1155,-2.1325,-2.0666,-2.0159,-2.0002,-2.0334,-2.0635,-2.0794,-2.2158,-2.3097,-2.348,-2.4798,-2.5467,-2.5397,-2.6081,-2.6314,-2.6184,-2.6931,-2.7498,-2.7886,-2.7836,-2.8093,-2.8541,-2.8177,-2.793,-2.769,-2.7503,-2.7427,-2.7522,-2.7935,-2.7504,-2.6793,-2.7385,-2.663,-2.5398,-2.5682,-2.5679,-2.5463,-2.4912,-2.4733,0.0,0.0,0.0,0.0,0.0,0.0,0.0,0.0,0.0,0.0,0.0,0.0,0.0,0.0,0.0,0.0,0.0,0.0,0.0,-2.8644,-2.9337,-2.9897,-3.0151,-3.0033,-3.0433,-3.1847,-3.2279,-3.2689,-3.3347,-3.3954,-3.3651,-3.2114,-3.2323,-3.2144,-3.1308,-3.1404,-3.1134,-3.0428,-3.1047,-3.11,-3.0485,-3.1121,-3.16,-3.1876,0.0,0.0,-3.2473,-3.2771,-3.2932,-3.3013,-3.3135,-3.3301,-3.3495,-3.3534,-3.2762,-3.1448,-3.0448,-2.966,-2.9019,-2.865,-2.8732,-2.9053,0.0,0.0,0.0,0.0,0.0,0.0,0.0,-1.1799,-1.2384,-1.2936,-1.5312,-1.7319,-1.8241,-1.9609,-2.0331,-2.0035,-1.962,-1.9642,-2.0222,-2.0342,-2.0495,-2.0696,-2.2158,-2.3099,-2.3395,-2.4781,-2.5527,-2.5551,-2.5809,-2.6097,-2.6366,-2.6914,-2.7502,-2.7998,-2.8177,-2.8381,-2.8573,-2.8235,-2.7965,-2.7765,-2.7503,-2.7325,-2.724,-2.7565,-2.7373,-2.6926,-2.7282,-2.6555,-2.5494,-2.6099,-2.575,-2.5063,-2.5122,-2.4915,-2.4377,0.0,0.0,0.0,0.0,0.0,0.0,0.0,0.0,0.0,0.0,0.0,0.0,0.0,0.0,-2.6424,-2.701,0.0,-2.9189,-2.9324,-2.967,-2.9957,-3.0081,-2.9989,-3.033,-3.1515,-3.204,-3.2646,-3.3538,-3.3829,-3.3584,-3.2574,-3.2369,-3.2012,-3.1346,-3.1351,-3.1198,-3.0751,-3.1164,-3.1162,-3.0709,-3.1276,-3.1615,-3.1709,-3.2144,-3.2421,-3.2574,-3.285,-3.3057,-3.3152,-3.3229,-3.3271,-3.3243,-3.2538,-3.1851,-3.1141,-2.9892,-2.9241,-2.8987,-2.8893,-2.8952,-2.9112,0.0,0.0,0.0,0.0,0.0,0.0,0.0,-1.2643,-1.2969,-1.3579,-1.5327,-1.6918,-1.808,-1.9088,-1.9515,-1.9067,-1.9002,-1.9457,-2.0601,-2.0563,-2.0529,-2.0647,-2.1997,-2.2902,-2.3294,-2.4549,-2.5365,-2.5645,-2.5473,-2.5702,-2.6281,-2.6785,-2.7338,-2.7943,-2.8442,-2.8654,-2.8636,-2.8405,-2.8137,-2.7865,-2.768,-2.7427,-2.7159,-2.7081,-2.6979,-2.6927,-2.6919,-2.6245,-2.5435,-2.6074,-2.5392,-2.4394,-2.4825,-2.4583,-2.3958,-2.2957,-2.2636,0.0,0.0,0.0,0.0,0.0,0.0,0.0,0.0,-2.3504,-2.4689,-2.4881,-2.6299,-2.7725,-2.8326,-2.9259,-2.9905,-2.9798,-2.9788,-2.9902,-3.0174,-3.0027,-3.02,-3.0981,-3.1743,-3.255,-3.3301,-3.3746,-3.3684,-3.288,-3.2508,-3.2012,-3.1346,-3.1451,-3.1468,-3.1295,-3.156,-3.1519,-3.1151,-3.1519,-3.1615,-3.1557,-3.2126,-3.2455,-3.2622,-3.293,-3.3104,-3.3201,-3.3292,-3.3226,-3.2978,-3.1722,-3.1189,-3.1005,-2.9499,-2.8876,-2.8839,-2.8785,-2.8822,-2.894,0.0,0.0,0.0,0.0,0.0,0.0,0.0,0.0,-1.4083,-1.4582,-1.6318,-1.761,-1.7823,-1.8958,-1.9937,-2.0497,-2.0865,-2.1132,-2.1287,-2.0959,-2.0778,-2.0861,-2.1451,-2.2232,-2.3275,-2.4154,-2.4865,-2.5435,-2.5416,-2.5407,-2.5442,-2.6046,-2.667,-2.7328,-2.7927,-2.8409,-2.8771,-2.8747,-2.8517,-2.8162,-2.825,-2.8054,-2.7665,-2.731,-2.666,-2.6083,-2.7,-2.6381,-2.5202,-2.5698,-2.5671,-2.5347,-2.4957,-2.4776,-2.4513,-2.3518,-2.3135,-2.2944,-2.2505,-2.2309,-2.2392,-2.3181,-2.3624,-2.4007,0.0,-2.5868,-2.6818,-2.6733,-2.8365,-2.9619,-2.8951,-2.9688,-3.0275,-2.9778,-2.976,-3.008,-3.0874,-3.0418,-3.0228,-3.0846,-3.1766,-3.2446,-3.2615,-3.3454,-3.3495,-3.2286,-3.2262,-3.2012,-3.1346,-3.202,-3.2108,-3.1312,-3.2015,-3.195,-3.1032,-3.119,-3.1406,-3.1675,-3.1876,-3.2179,-3.2606,-3.2818,-3.2902,-3.2854,-3.2997,-3.3026,-3.2972,-3.2259,-3.1602,-3.093,-2.9958,-2.9228,-2.8706,-2.865,-2.8749,-2.8922,0.0,0.0,0.0,0.0,0.0,0.0,0.0,0.0,0.0,0.0,-1.6289,-1.7194,-1.7528,-1.8104,-1.9161,-2.0887,-2.0449,-2.0557,-2.172,-2.1182,-2.0844,-2.0942,-2.1527,-2.2067,-2.2527,-2.3914,-2.4733,-2.4987,-2.5447,-2.5619,-2.5483,-2.6137,-2.6458,-2.6545,-2.7676,-2.8162,-2.8186,-2.8568,-2.8525,-2.8186,-2.8088,-2.774,-2.728,-2.6703,-2.5919,-2.5214,-2.6057,-2.551,0.0,-2.5174,-2.4929,-2.441,-2.4575,-2.4358,-2.3865,-2.2943,-2.2761,-2.2799,-2.2463,-2.2498,-2.2738,-2.3118,-2.4112,-2.4991,-2.5077,-2.6382,-2.7581,-2.745,-2.8622,-2.9453,-2.8677,-2.9304,-2.9747,-2.9222,-2.9273,-2.9772,-3.0836,-3.0251,-3.0012,-3.0823,-3.1407,-3.1796,-3.1858,-3.269,-3.3095,-3.2778,-3.287,-3.2838,-3.2655,-3.2907,-3.29,-3.252,-3.2357,-3.2053,-3.1586,-3.1374,-3.1389,-3.1656,-3.1948,-3.2266,-3.2606,-3.2657,-3.264,-3.2641,-3.2739,-3.2818,-3.2894,-3.2293,-3.1603,-3.0916,-3.0582,-2.9704,-2.8619,-2.8574,-2.8675,-2.887,0.0,0.0,0.0,0.0,0.0,0.0,0.0,0.0,0.0,0.0,-1.6607,-1.7287,-1.8061,-1.8397,-1.9341,-2.1178,-2.0427,-2.0513,-2.2026,-2.1385,-2.099,-2.1103,-2.1486,-2.182,-2.2095,-2.3557,-2.4426,-2.4619,-2.5409,-2.5731,-2.5613,-2.6293,-2.6442,-2.622,-2.745,-2.7927,-2.784,-2.8295,-2.8411,-2.8284,-2.8063,-2.7585,-2.6923,-2.6335,-2.5457,-2.4558,-2.4986,-2.4476,-2.3679,-2.4318,-2.3988,-2.3386,-2.3955,-2.3763,-2.3209,-2.2535,-2.2497,-2.2692,-2.2639,-2.2913,-2.3278,-2.3545,-2.4871,-2.6016,-2.5727,-2.7,-2.8198,-2.8068,-2.8854,-2.9327,-2.8566,-2.9077,-2.9451,-2.8897,-2.8974,-2.952,-3.0739,-3.0116,-2.9871,-3.0709,-3.0839,-3.0969,-3.1243,-3.2403,-3.3217,-3.3419,-3.3609,-3.3668,-3.3566,-3.3693,-3.363,-3.3343,-3.2778,-3.2324,-3.2014,-3.1486,-3.1312,-3.1485,-3.1929,-3.2197,-3.2318,-3.2318,-3.2318,-3.2353,-3.2438,-3.2589,-3.2718,-3.2389,-3.1685,-3.0854,-3.092,-2.9972,-2.8574,-2.8549,-2.865,-2.8822,0.0,0.0,0.0,0.0,0.0,0.0,0.0,0.0,0.0,0.0,0.0,0.0,0.0,-2.0666,-2.1238,-2.1658,-2.1762,-2.1919,-2.2178,-2.163,-2.1324,-2.1386,-2.1103,-2.1391,-2.2361,-2.3005,-2.3695,-2.4418,-2.5204,-2.5616,-2.5613,-2.6293,-2.6581,-2.6609,-2.7185,-2.7657,-2.8072,-2.7969,-2.8178,-2.8573,-2.8444,-2.7828,-2.6955,-2.6523,-2.5518,-2.4275,-2.4043,-2.3473,-2.2869,-2.3089,-2.2978,-2.2777,-2.3053,-2.3053,-2.2889,-2.2725,-2.268,-2.2838,-2.3466,-2.395,-2.4427,-2.5227,-2.6403,-2.7327,-2.7334,-2.8225,-2.902,-2.8889,-2.9604,-2.9959,-2.8881,-2.9405,-2.9784,-2.92,-2.9097,-2.9528,-3.0723,-3.02,-2.991,-3.0533,-3.0103,-3.0054,-3.0836,-3.2889,-3.4119,-3.4069,-3.4324,-3.415,-3.344,-3.419,-3.4198,-3.3237,-3.3313,-3.2917,-3.2014,-3.1342,-3.1092,-3.121,-3.1691,-3.1803,-3.1635,-3.1764,-3.1856,-3.193,-3.2126,-3.2249,-3.2352,-3.2719,-3.2018,-3.0718,-3.0787,-2.985,-2.8505,-2.8574,-2.8675,-2.8822,0.0,0.0,0.0,0.0,0.0,0.0,0.0,0.0,0.0,0.0,0.0,0.0,0.0,0.0,0.0,0.0,-2.1346,-2.1521,-2.2351,-2.1751,-2.1464,-2.1646,-2.148,-2.1532,-2.1933,-2.2605,-2.3358,-2.4129,-2.4816,-2.5352,-2.5787,-2.5899,-2.5882,-2.5838,-2.6924,-2.745,-2.7555,-2.8446,-2.8732,-2.8566,-2.7983,-2.7799,-2.7699,-2.6081,-2.535,-2.4988,0.0,-2.3003,-2.2675,-2.2752,-2.2715,-2.2692,-2.3,-2.2963,-2.2694,-2.2449,-2.2626,-2.3028,-2.3565,-2.4808,-2.5935,-2.5847,-2.7126,-2.8264,-2.7782,-2.8541,-2.9321,-2.9175,-2.9564,-2.966,-2.8842,-2.9093,-2.9281,-2.8897,-2.9178,-2.987,-3.1182,-3.0967,-3.0895,-3.1459,-3.0985,-3.0936,-3.1697,-3.2165,-3.2652,-3.3267,-3.4012,-3.4334,-3.4076,-3.4812,-3.5076,-3.4734,-3.3654,-3.2952,-3.273,-3.1532,-3.1032,-3.121,-3.1542,-3.1635,-3.1538,-3.1634,-3.1653,-3.1653,-3.1983,-3.2179,-3.2284,-3.2722,-3.2324,-3.1437,-3.1603,-3.0726,-2.9365,-2.9391,-2.9141,-2.881,0.0,0.0,0.0,0.0,0.0,0.0,0.0,0.0,0.0,0.0,0.0,0.0,0.0,0.0,0.0,0.0,0.0,-2.0616,-2.1709,-2.1268,-2.1202,-2.1736,-2.1602,-2.1602,-2.1768,-2.2403,-2.3059,-2.3714,-2.4348,-2.501,-2.572,-2.5524,-2.5489,-2.5616,-2.6282,-2.668,-2.6904,-2.768,-2.8119,-2.8217,-2.7495,-2.7449,-2.7552,-2.5673,-2.4926,0.0,-2.3318,-2.255,-2.2184,-2.2347,-2.2417,-2.2552,-2.314,-2.3458,-2.3528,-2.2964,-2.3337,-2.3953,-2.4007,-2.5284,-2.6581,-2.6395,-2.7395,-2.8259,-2.7728,-2.8283,-2.894,-2.9032,-2.9118,-2.907,-2.8771,-2.8787,-2.8803,-2.8622,-2.8954,-2.9677,-3.0975,-3.0965,-3.1085,-3.1702,-3.1498,-3.1477,-3.2017,-3.1896,-3.2199,-3.3083,-3.3941,-3.4386,-3.4386,-3.5088,-3.5492,-3.5492,-3.3812,-3.2977,-3.3125,-3.1649,-3.1032,-3.1325,-3.1368,-3.1426,-3.1498,-3.1464,-3.1426,-3.1421,-3.1837,-3.2037,-3.2144,-3.2556,-3.2373,-3.1783,-3.1936,-3.108,-2.9763,-2.9816,-2.9377,-2.8737,0.0,0.0,0.0,0.0,0.0,0.0,0.0,0.0,0.0,0.0,0.0,0.0,0.0,0.0,0.0,0.0,0.0,0.0,-2.0414,-2.0302,-2.0641,-2.1612,-2.1478,-2.157,-2.1913,-2.2336,-2.2777,-2.3224,-2.3854,-2.456,-2.5329,-2.5146,-2.5324,-2.5764,-2.5346,-2.5528,-2.6157,-2.5905,-2.6523,-2.7587,-2.7101,-2.6847,-2.6639,-2.5375,-2.4327,-2.3511,-2.2908,-2.2163,-2.1512,-2.1896,-2.2156,-2.248,-2.3459,-2.4493,-2.5145,-2.4244,-2.476,-2.5513,-2.4852,-2.5477,-2.643,-2.6885,-2.7227,-2.7458,-2.7321,-2.7582,-2.7972,-2.8426,-2.8301,-2.8205,-2.8561,-2.8448,-2.8341,-2.8442,-2.8594,-2.9083,-3.0236,-3.0378,-3.0623,-3.1372,-3.1598,-3.1726,-3.1846,-3.2199,-3.2715,-3.3488,0.0,-3.4319,-3.4285,-3.497,-3.5391,-3.5441,-3.3762,-3.2971,-3.3198,-3.1674,-3.1128,-3.1549,-3.1188,-3.1171,-3.1479,-3.1288,-3.119,-3.121,-3.1632,-3.1838,-3.193,-3.2336,-3.2215,-3.1757,-3.1786,-3.0988,-2.9836,-2.9865,-2.937,-2.8679,0.0,0.0,0.0,0.0,0.0,0.0,0.0,0.0,0.0,0.0,0.0,0.0,0.0,0.0,0.0,0.0,0.0,0.0,-2.0282,-2.021,-2.032,-2.0796,-2.1293,-2.1739,-2.212,-2.2141,-2.2566,-2.3435,-2.3442,-2.3821,-2.451,-2.4396,-2.4348,-2.4376,-2.5283,-2.5686,-2.5735,-2.665,-2.701,-2.6932,-2.6708,-2.6556,-2.6371,-2.5155,-2.4701,-2.4569,-2.3013,-2.2362,-2.2248,-2.2448,-2.3017,-2.3763,-2.4631,-2.5263,-2.5601,-2.5203,-2.5689,-2.6234,-2.5773,-2.6269,-2.6863,-2.6788,-2.6977,-2.7222,-2.728,-2.7301,-2.7312,-2.7322,-2.7158,-2.7163,-2.7643,-2.7454,-2.7695,-2.9211,-2.9626,-3.0273,-3.1593,-3.2136,-3.2351,-3.229,-3.2514,-3.2708,-3.2829,-3.2715,-3.2667,-3.2764,-3.3173,-3.3153,-3.2515,-3.3254,-3.3951,-3.4522,-3.2944,-3.2448,-3.3198,-3.1715,-3.1401,-3.2239,-3.1404,-3.1112,-3.1269,-3.121,-3.119,-3.121,-3.1632,-3.1818,-3.1856,-3.2249,-3.2484,-3.2543,-3.1938,-3.1655,-3.1423,-3.0251,-2.9715,-2.9486,0.0,0.0,0.0,0.0,0.0,0.0,0.0,0.0,0.0,0.0,0.0,0.0,0.0,0.0,0.0,0.0,0.0,0.0,0.0,-2.015,-2.034,-2.0964,-2.1375,-2.1769,-2.2087,-2.2015,-2.2317,-2.3059,-2.2945,-2.3245,-2.3895,-2.3785,-2.3781,-2.3869,-2.445,-2.4612,-2.4494,-2.5063,-2.5271,0.0,0.0,-2.5416,-2.557,-2.4402,-2.4187,-2.4343,-2.2824,-2.2546,-2.3008,-2.3663,-2.4224,-2.4779,-2.5738,-2.6466,-2.6837,-2.6307,-2.678,-2.7271,-2.6336,-2.6563,-2.6972,-2.6619,-2.6465,-2.6438,-2.6458,-2.6397,-2.6313,-2.6287,-2.6054,-2.6012,-2.6527,-2.6706,-2.7176,-2.8301,-2.9404,-3.0478,-3.1495,-3.2331,-3.2897,-3.3067,-3.3278,-3.3347,-3.3217,-3.3039,-3.2646,-3.2021,-3.2619,-3.2655,-3.1841,-3.2577,-3.3227,-3.3689,-3.2729,-3.2517,-3.3151,-3.2154,-3.1907,-3.2394,-3.1509,-3.1131,-3.119,-3.119,-3.119,-3.121,0.0,-3.1726,-3.1818,-3.209,-3.2404,-3.2687,-3.2227,-3.2043,-3.1913,-3.1037,-3.0347,-2.98,0.0,0.0,0.0,0.0,0.0,0.0,0.0,0.0,0.0,0.0,0.0,0.0,0.0,0.0,0.0,0.0,0.0,0.0,0.0,0.0,-2.044,-2.1394,-2.1525,-2.1693,-2.1969,-2.1943,-2.2087,-2.2501,-2.2501,-2.2811,-2.34,-2.3282,-2.3395,-2.3669,-2.3389,-2.3165,-2.304,-2.2739,-2.2897,-2.3363,-2.3541,-2.4006,-2.4462,0.0,-2.3336,-2.3439,-2.2539,-2.27,-2.3513,-2.483,-2.5353,-2.5631,-2.6801,-2.7736,-2.8258,-2.733,-2.7726,-2.8116,-2.6526,-2.6461,-2.6725,-2.6316,-2.5846,-2.5499,-2.5468,-2.5339,-2.5231,-2.534,-2.5077,-2.4972,-2.5478,-2.6153,-2.6738,-2.6967,-2.8572,-3.0051,-3.0723,-3.1757,-3.2701,-3.3435,-3.3774,-3.3783,-3.3372,-3.3274,-3.2742,-3.156,-3.2227,-3.238,-3.167,-3.224,-3.2677,-3.2806,-3.2651,-3.2718,-3.3012,-3.2547,-3.2309,-3.2313,-3.1565,-3.119,-3.1171,-3.119,-3.119,-3.119,-3.1402,0.0,-3.1643,-3.1804,-3.2039,-3.2332,-3.242,-3.2248,-3.1941,-3.1891,-3.1106,-3.0066,0.0,0.0,0.0,0.0,0.0,0.0,0.0,0.0,0.0,0.0,-1.615,-1.622,0.0,0.0,0.0,0.0,0.0,0.0,0.0,0.0,0.0,-2.0597,-2.1093,-2.1495,-2.1825,-2.1884,-2.2087,-2.2501,-2.2501,-2.2607,-2.2835,-2.2875,-2.2767,-2.2599,-2.3247,-2.3274,-2.2867,-2.3137,-2.3369,-2.3565,-2.3715,-2.3613,-2.3418,-2.3539,0.0,0.0,-2.285,-2.2831,-2.3003,-2.4177,-2.5226,-2.6268,-2.7595,-2.8264,-2.841,-2.7705,-2.7643,-2.7449,-2.601,-2.5761,-2.5926,-2.5832,-2.5365,-2.51,-2.5668,-2.521,-2.4663,-2.4655,-2.456,-2.4648,-2.5175,-2.5655,-2.6392,-2.7736,-2.846,-2.9343,-3.0757,-3.1563,-3.2169,-3.2587,-3.3494,-3.4027,-3.3947,-3.3535,-3.3032,-3.2497,-3.1907,-3.1314,-3.0758,-3.0967,-3.1137,-3.1277,-3.1716,-3.216,-3.2595,-3.1708,-3.1661,-3.2451,-3.1605,-3.1151,-3.1035,-3.1151,-3.1151,-3.1055,-3.1366,0.0,-3.0702,-3.1359,-3.1549,-3.1473,-3.2038,-3.2434,-3.263,-3.1972,-3.1649,-3.1366,0.0,0.0,0.0,0.0,0.0,0.0,0.0,-1.6179,-1.6246,-1.6353,-1.6369,-1.6452,-1.6691,-1.6789,0.0,0.0,0.0,0.0,0.0,0.0,0.0,0.0,0.0,0.0,-2.1694,-2.1825,-2.1957,-2.2092,0.0,-2.2415,-2.234,-2.2552,-2.2528,-2.2313,-2.2632,-2.2551,-2.216,-2.2085,-2.1963,-2.187,-2.233,-2.2443,-2.2394,0.0,0.0,0.0,-2.3139,-2.3475,-2.3802,-2.4634,-2.5366,-2.6098,-2.7216,-2.7847,-2.8073,-2.755,-2.7572,-2.761,-2.6649,-2.6632,-2.6889,-2.6845,-2.6209,-2.5622,-2.5806,-2.5368,-2.4826,-2.45,-2.4522,-2.4693,-2.4912,-2.5398,-2.6083,-2.6927,-2.8032,-2.9266,-3.0514,-3.1497,-3.2183,-3.2428,-3.2992,-3.3401,-3.3476,-3.2562,-3.2141,-3.2568,-3.1495,-3.0759,-3.0605,-3.0733,-3.0998,-3.1461,-3.1858,-3.229,-3.2816,-3.2056,-3.1877,-3.2293,-3.1429,-3.1072,-3.1112,-3.1072,-3.1072,-3.1112,-3.121,0.0,-3.1005,-3.1293,-3.1468,-3.1551,-3.1899,-3.2266,-3.2553,-3.228,-3.2016,-3.1706,0.0,0.0,0.0,0.0,0.0,0.0,0.0,-1.653,-1.6554,-1.6554,-1.6581,-1.6688,-1.6918,-1.6908,-1.7165,0.0,0.0,0.0,0.0,0.0,0.0,0.0,0.0,0.0,-2.1527,0.0,0.0,-2.1708,-2.2118,0.0,0.0,0.0,0.0,0.0,-2.2189,-2.1943,-2.1634,-2.1119,-2.0758,0.0,0.0,-2.1499,0.0,0.0,0.0,0.0,0.0,-2.418,-2.4716,-2.519,-2.5535,-2.5875,-2.6641,-2.7191,-2.7508,-2.7204,-2.7564,-2.789,-2.7194,-2.7449,-2.7935,-2.7938,-2.7084,-2.6241,-2.6251,-2.5755,-2.5199,-2.488,-2.4954,-2.5071,-2.5006,-2.555,-2.6046,-2.6173,-2.7548,-2.9012,-3.0155,-3.1236,-3.2086,-3.2563,-3.2757,-3.2978,-3.3226,-3.199,-3.1598,-3.2675,-3.1605,-3.0853,-3.0766,-3.0851,-3.118,-3.1808,-3.1931,-3.2218,-3.2693,-3.2255,-3.1996,-3.1918,-3.1224,-3.1012,-3.119,-3.1012,-3.0992,-3.1131,-3.1072,0.0,0.0,-3.1261,-3.1361,-3.1485,-3.1733,-3.1984,-3.2214,-3.242,-3.225,-3.1878,0.0,0.0,0.0,0.0,0.0,0.0,0.0,-1.6926,-1.703,-1.6722,-1.6799,-1.6917,-1.707,-1.6924,-1.7077,0.0,0.0,0.0,0.0,0.0,0.0,0.0,0.0,0.0,0.0,0.0,0.0,-2.1797,-2.2027,0.0,0.0,0.0,0.0,0.0,0.0,-2.2231,-2.1855,-2.1432,0.0,0.0,0.0,0.0,0.0,0.0,0.0,0.0,0.0,-2.4633,-2.4822,-2.5111,-2.5676,-2.6256,-2.6406,-2.6666,-2.6889,-2.6859,-2.7482,-2.792,-2.6711,-2.7055,-2.7786,-2.8027,-2.7057,-2.6325,-2.7457,-2.6461,-2.5458,-2.6018,-2.611,-2.6046,-2.5975,-2.6385,-2.673,-2.6802,-2.7126,-2.7991,-2.9795,-3.0348,-3.118,-3.2764,-3.3239,-3.3675,-3.4301,-3.3356,-3.2918,-3.3465,-3.2871,-3.2016,-3.0938,-3.0892,-3.1026,-3.1272,-3.1113,-3.1147,-3.1354,-3.119,-3.1199,-3.1378,-3.1112,-3.1055,-3.119,-3.1055,-3.0972,-3.0932,-3.1112,0.0,0.0,-3.0883,-3.0881,-3.0433,-3.1286,-3.1727,-3.1892,-3.2144,-3.2318,-3.2362,0.0,0.0,0.0,0.0,0.0,0.0,-1.7325,-1.732,-1.7296,-1.7101,-1.6977,-1.6939,-1.7022,-1.7005,-1.7322,-1.815,0.0,0.0,0.0,0.0,0.0,0.0,0.0,0.0,0.0,0.0,-2.1432,-2.2338,-2.2145,0.0,0.0,0.0,0.0,0.0,0.0,-2.2248,-2.1868,-2.1479,0.0,0.0,0.0,0.0,0.0,0.0,0.0,0.0,0.0,0.0,-2.5698,-2.55,-2.5647,-2.5836,-2.5593,-2.5619,-2.5911,-2.6507,-2.7238,-2.7663,-2.6829,-2.7157,-2.7812,-2.8272,-2.7265,-2.6398,-2.7474,-2.6656,-2.5834,-2.6368,-2.6438,-2.6379,-2.6349,-2.6498,-2.6709,-2.6967,-2.7291,-2.8022,-2.9555,-2.998,-3.064,-3.1886,-3.2238,-3.2723,-3.3689,-3.3045,-3.2737,-3.3036,-3.2984,-3.2722,-3.2244,-3.1838,-3.1486,-3.1207,-3.1112,-3.1092,-3.1092,-3.1015,-3.1035,-3.1117,-3.0995,-3.0992,-3.1055,-3.0895,-3.0834,-3.0912,-3.0992,0.0,0.0,-3.0827,-3.0789,-3.0236,-3.1174,-3.1614,-3.1709,-3.1893,-3.2037,-3.2109,0.0,0.0,0.0,0.0,0.0,-1.8134,-1.7766,-1.7788,-1.7738,-1.7474,-1.728,-1.7265,-1.7498,-1.7343,-1.7679,-1.8851,-1.8772,0.0,0.0,0.0,0.0,0.0,0.0,0.0,0.0,0.0,-2.1574,-2.2718,-2.225,-2.2383,0.0,0.0,-2.2405,-2.2335,0.0,0.0,0.0,0.0,0.0,0.0,0.0,0.0,0.0,0.0,0.0,0.0,0.0,0.0,0.0,0.0,0.0,-2.5867,-2.5382,-2.5287,-2.5477,-2.602,-2.6678,-2.7126,-2.6588,-2.7084,-2.7821,-2.802,-2.7321,-2.6753,-2.7427,-2.6815,-2.6182,-2.6565,-2.652,-2.6431,-2.6484,-2.659,-2.68,-2.7261,-2.7605,-2.8295,-2.9579,-2.9916,-3.0464,-3.1636,-3.1894,-3.2361,-3.3421,-3.3174,-3.3043,-3.3257,-3.3472,-3.3517,-3.3367,-3.2931,-3.232,-3.1546,-3.1309,-3.1131,-3.0995,-3.1035,-3.1055,-3.1055,-3.0972,-3.0992,-3.1055,-3.0834,-3.0657,-3.0533,-3.0791,0.0,0.0,-3.0648,-3.0656,-3.0049,-3.104,-3.1308,-3.1124,-3.1328,-3.1318,-3.1235,0.0,0.0,0.0,0.0,0.0,0.0,-1.8044,-1.833,-1.8406,-1.7867,-1.7794,-1.8042,-1.8699,-1.8012,-1.8174,-1.985,-1.9691,0.0,0.0,0.0,0.0,0.0,0.0,0.0,0.0,0.0,-2.2055,-2.2797,-2.2249,-2.2383,-2.3103,-2.2546,-2.2265,-2.2192,0.0,0.0,0.0,0.0,0.0,0.0,0.0,0.0,0.0,0.0,0.0,0.0,0.0,0.0,0.0,0.0,0.0,0.0,0.0,-2.5994,-2.5887,-2.5374,-2.5775,-2.6292,-2.5747,-2.6775,-2.7817,-2.7028,-2.7147,-2.748,-2.7515,-2.6971,-2.653,-2.6669,-2.6486,-2.6326,-2.6498,-2.6762,-2.7188,-2.7775,-2.8012,-2.859,-2.9998,-3.0148,-3.0735,-3.2462,-3.2762,-3.3119,-3.402,-3.4209,-3.4391,-3.465,-3.4675,0.0,-3.401,-3.3983,-3.3456,-3.2307,-3.1562,-3.1131,-3.0995,-3.1131,-3.119,-3.119,-3.1055,-3.1072,-3.119,-3.0992,-3.043,0.0,0.0,0.0,0.0,-3.0311,-3.0459,-2.9718,-3.0852,-3.0738,-2.9962,-3.0357,-3.0091,-2.9679,0.0,0.0,0.0,0.0,0.0,0.0,0.0,-1.8378,-1.8328,-1.8093,-1.7992,-1.7985,-1.8098,-1.8386,-1.8765,-1.9203,-1.9118,0.0,0.0,0.0,0.0,0.0,0.0,0.0,0.0,0.0,-2.2163,-2.2937,-2.2249,-2.2339,-2.3103,-2.2411,-2.2073,-2.2073,-2.2073,-2.2329,0.0,0.0,0.0,0.0,0.0,0.0,-2.6176,0.0,0.0,0.0,0.0,0.0,0.0,0.0,0.0,0.0,0.0,0.0,0.0,-2.4048,-2.4714,-2.5756,-2.5571,-2.5678,-2.5832,-2.5886,-2.5825,-2.5895,-2.648,-2.6411,-2.6381,-2.6931,-2.6843,-2.6633,-2.6686,-2.7089,-2.7484,-2.773,-2.8125,-2.8628,-2.9351,-2.9507,-3.0124,-3.1636,-3.2915,-3.3866,-3.4333,-3.4497,-3.457,-3.457,-3.4828,-3.4894,-3.4772,-3.4374,-3.356,-3.2344,-3.1972,-3.1614,-3.1131,-3.1171,-3.119,-3.119,-3.1055,-3.1015,-3.1055,-3.0952,-3.0697,0.0,0.0,0.0,0.0,-3.0249,-3.0115,-2.8996,-3.0448,-3.0861,-3.0552,-3.0207,-2.9999,-2.9887,0.0,0.0,0.0,0.0,0.0,0.0,0.0,-1.8584,-1.8528,-1.8438,-1.8606,-1.8748,-1.8847,-1.9321,-1.9686,-1.9801,-1.9769,0.0,0.0,0.0,0.0,0.0,0.0,0.0,-2.0918,-2.1523,-2.2237,-2.3044,-2.2385,-2.2446,-2.3165,-2.2365,-2.1984,-2.1969,-2.2239,-2.2687,0.0,0.0,0.0,0.0,0.0,0.0,-2.6811,0.0,0.0,0.0,0.0,0.0,0.0,0.0,0.0,0.0,0.0,0.0,0.0,0.0,-2.372,-2.4528,-2.4536,-2.4875,-2.5167,-2.482,-2.5076,-2.5461,-2.5764,-2.6079,-2.6422,-2.6779,-2.6803,-2.6791,-2.6937,-2.7361,-2.7735,-2.7904,-2.8461,-2.8986,-2.932,-2.9808,-3.0616,-3.1983,-3.3165,-3.405,-3.4448,-3.4472,-3.4497,-3.457,-3.4851,-3.5041,-3.5088,-3.4741,-3.4075,-3.309,-3.2433,-3.1907,-3.1536,-3.1306,-3.1171,-3.1131,-3.1114,-3.1058,-3.0995,-3.1035,-3.0804,0.0,0.0,0.0,0.0,-3.0229,-3.0089,-2.8968,-3.0363,-3.0704,-3.0363,-2.9976,-2.9736,-2.9595,0.0,0.0,0.0,0.0,0.0,0.0,0.0,-1.9076,-1.9111,-1.8985,-1.9571,-2.0169,-2.0563,-2.0605,-2.0791,-2.1267,0.0,0.0,0.0,0.0,0.0,0.0,0.0,0.0,-2.1671,-2.1963,-2.2412,-2.3004,-2.2647,-2.2741,-2.3274,-2.2511,-2.2103,-2.2013,-2.2748,-2.3211,-2.349,-2.4713,-2.4894,-2.4474,-2.5954,-2.6625,0.0,0.0,0.0,0.0,0.0,0.0,0.0,0.0,0.0,0.0,0.0,0.0,0.0,0.0,0.0,0.0,0.0,-2.4349,-2.5413,-2.3889,-2.4815,-2.5931,-2.5331,-2.5948,0.0,-2.6363,-2.6537,-2.6814,-2.7167,-2.7564,-2.794,-2.8293,-2.8947,-2.9527,-2.9793,-3.0813,-3.1943,-3.3175,-3.3439,-3.3745,-3.4374,-3.425,-3.4275,-3.4643,-3.4811,-3.4947,-3.5065,-3.5105,-3.4848,-3.4376,-3.2992,-3.2223,-3.213,-3.1536,-3.1182,-3.1015,-3.1196,-3.1196,-3.1035,-3.1215,-3.0784,0.0,0.0,0.0,0.0,-3.0215,-3.0249,-2.9503,-3.049,-3.0373,-2.9673,-2.9688,-2.9334,-2.8977,0.0,0.0,0.0,0.0,0.0,0.0,0.0,0.0,0.0,0.0,-2.0862,-2.0914,-2.0776,-2.1248,-2.152,0.0,0.0,0.0,0.0,0.0,0.0,0.0,0.0,0.0,-2.2392,-2.367,-2.3634,-2.2178,-2.3345,-2.3661,-2.3232,-2.3586,-2.3406,-2.2765,-2.3498,-2.4398,-2.5406,-2.6316,-2.7079,-2.7699,-2.7975,-2.8431,0.0,0.0,0.0,0.0,-2.8873,-2.8311,0.0,0.0,0.0,0.0,0.0,0.0,0.0,0.0,-2.3983,-2.4235,-2.3672,0.0,-2.3635,-2.3645,-2.4327,-2.5034,0.0,-2.5751,-2.6312,-2.6551,-2.6642,-2.6867,-2.7423,-2.774,-2.8196,-2.8884,-2.8793,-2.9064,-3.018,-3.1015,-3.1789,-3.2542,-3.315,-3.3555,-3.372,-3.4151,-3.4399,-3.4399,-3.4707,-3.4923,-3.4947,-3.4947,-3.4934,-3.4891,-3.413,-3.324,-3.2269,-3.2023,-3.1631,-3.1151,-3.1035,-3.1075,-3.1218,-3.1232,-3.1111,0.0,0.0,0.0,-2.9592,-2.9805,-2.9759,-2.9603,-3.031,-3.0468,-3.0216,-2.9806,-2.9529,-2.9368,0.0,0.0,0.0,0.0,0.0,0.0,0.0,0.0,0.0,0.0,0.0,0.0,0.0,0.0,0.0,0.0,0.0,0.0,0.0,0.0,0.0,0.0,0.0,-2.37,-2.2621,-2.3852,-2.3834,-2.2458,-2.3797,-2.4212,-2.3811,-2.4198,-2.4087,-2.3595,-2.4647,-2.5407,-2.6038,-2.7222,-2.758,-2.7445,-2.8135,0.0,0.0,0.0,0.0,0.0,-2.8202,-2.7947,0.0,-2.7843,-2.7152,-2.6266,0.0,0.0,0.0,0.0,-2.3958,-2.3878,-2.3726,-2.397,-2.4206,-2.4096,-2.4609,-2.5131,-2.5105,-2.571,-2.6312,-2.6392,-2.6578,-2.6841,-2.7321,-2.769,-2.8076,-2.8575,-2.8975,-2.9794,-3.1428,-3.2028,-3.2485,-3.2959,-3.3393,-3.3658,-3.3607,-3.4025,-3.4349,-3.4399,-3.4643,-3.4851,-3.4899,-3.4655,-3.4519,-3.4588,-3.4063,-3.3597,-3.3225,-3.2549,-3.2029,-3.1701,-3.1266,-3.1137,-3.1271,-3.1349,-3.1351,0.0,0.0,0.0,-3.0495,-2.9981,-2.9951,-3.0222,-3.0484,-3.0589,-3.0539,-3.0157,-3.0089,-3.0139,0.0,0.0,0.0,0.0,0.0,0.0,0.0,0.0,0.0,0.0,0.0,0.0,0.0,0.0,0.0,0.0,0.0,0.0,0.0,0.0,0.0,0.0,-2.357,-2.36,-2.2997,-2.3786,-2.3884,-2.3303,-2.433,-2.478,-2.466,-2.4778,-2.4719,-2.4594,-2.5662,-2.6101,-2.6163,-2.7533,-2.7306,-2.6159,-2.7597,0.0,0.0,0.0,0.0,0.0,0.0,0.0,0.0,-2.7642,-2.7265,-2.6898,-2.6823,0.0,0.0,0.0,0.0,0.0,-2.3591,-2.4722,-2.5561,-2.4866,-2.525,-2.5694,-2.5355,-2.5899,-2.6431,-2.6272,-2.6513,-2.6855,-2.7258,-2.759,-2.7941,-2.8303,-2.9582,-3.1067,-3.256,-3.304,-3.3323,-3.3565,-3.3771,-3.3848,-3.3694,-3.3949,-3.4226,-3.4472,-3.4618,-3.4763,-3.4899,-3.4419,-3.4155,-3.4178,-3.3812,-3.3888,-3.4482,-3.3005,-3.2222,-3.2124,-3.154,-3.1235,-3.123,-3.1447,-3.1485,-3.1319,0.0,0.0,-3.1283,-3.0402,-3.0381,-3.0912,-3.0773,-3.0712,-3.0692,-3.0547,-3.0651,-3.0851,0.0,0.0,0.0,0.0,0.0,0.0,0.0,0.0,0.0,0.0,0.0,0.0,0.0,0.0,0.0,0.0,0.0,0.0,0.0,0.0,0.0,-2.3915,-2.5007,-2.5352,-2.4813,-2.5528,-2.5363,-2.42,-2.5661,-2.6048,-2.5438,-2.6065,-2.6286,-2.6117,-2.5528,-2.5884,-2.6928,-2.718,-2.7394,-2.759,-2.7889,0.0,0.0,0.0,0.0,0.0,0.0,0.0,0.0,-2.7893,-2.7231,-2.6619,-2.7376,0.0,0.0,0.0,0.0,0.0,-2.3815,-2.4663,-2.5472,-2.5575,-2.5607,-2.5787,-2.6373,-2.652,-2.6578,-2.6806,-2.691,-2.7144,-2.7755,-2.793,-2.8419,-2.9812,-3.116,-3.196,-3.1692,-3.2437,-3.3047,-3.3033,-3.3555,-3.3848,-3.3694,-3.405,-3.4325,-3.4497,-3.4618,-3.4763,-3.4899,-3.4807,-3.4804,-3.4922,-3.4961,-3.5115,-3.5307,-3.3191,-3.1871,-3.136,-3.1145,-3.1117,-3.1293,-3.1315,-3.1411,-3.1509,0.0,-3.0838,-3.1473,-3.0551,-3.0497,-3.0992,-3.0912,-3.081,-3.0692,-3.0547,-3.0609,-3.0712,0.0,0.0,0.0,0.0,0.0,0.0,0.0,0.0,0.0,0.0,0.0,0.0,0.0,0.0,0.0,0.0,0.0,0.0,0.0,0.0,-2.449,-2.468,-2.5643,-2.5806,-2.5043,-2.5878,-2.6066,-2.5596,-2.6403,-2.6843,-2.6893,-2.6691,-2.6503,-2.6344,-2.6631,-2.6652,-2.6512,-2.7339,-2.7367,-2.688,0.0,0.0,0.0,0.0,0.0,0.0,0.0,0.0,0.0,0.0,-2.7105,-2.6264,-2.7675,0.0,0.0,0.0,0.0,0.0,-2.4202,-2.4614,-2.5167,-2.5972,-2.6263,-2.6416,-2.6573,-2.6762,-2.6841,-2.675,-2.6791,-2.6974,-2.7376,-2.7823,-2.8671,-3.0197,-3.1445,-3.2199,-3.2065,-3.2755,-3.33,-3.3445,-3.3787,-3.3949,-3.3822,-3.405,-3.4275,-3.4472,-3.4546,-3.4667,-3.4899,-3.4518,-3.4373,-3.4489,-3.4252,-3.4186,-3.4314,-3.2913,-3.2266,-3.2374,-3.152,-3.1154,-3.1252,-3.1276,-3.1389,-3.1506,0.0,-3.0892,-3.1581,-3.1127,-3.1023,-3.1145,-3.1486,-3.1304,-3.0855,-3.0794,-3.0753,-3.0692,0.0,0.0,0.0,0.0,0.0,0.0,0.0,0.0,0.0,0.0,0.0,0.0,0.0,0.0,0.0,0.0,0.0,0.0,0.0,-2.4149,-2.4721,-2.5213,-2.5912,-2.5976,-2.5274,-2.6144,-2.6602,-2.6607,-2.6979,-2.7368,-2.7743,-2.7112,-2.6635,-2.6324,-2.7451,-2.7188,-2.5999,-2.7226,-2.7048,-2.601,0.0,0.0,0.0,0.0,0.0,0.0,0.0,0.0,0.0,0.0,0.0,0.0,0.0,0.0,0.0,-2.5425,-2.4887,-2.4241,-2.4471,-2.4645,-2.4953,-2.5885,-2.6533,-2.6937,-2.6671,-2.6933,-2.7141,-2.6826,-2.6957,-2.7179,-2.7469,-2.8315,-2.9358,-3.0567,-3.1628,-3.2425,-3.2717,-3.3281,-3.3694,-3.3822,-3.4025,-3.4101,-3.4,-3.4101,-3.425,-3.4521,-3.4521,-3.4618,-3.4899,-3.4352,-3.4124,-3.4284,-3.3857,-3.3683,-3.3835,-3.3144,-3.2936,-3.3136,-3.1816,-3.119,-3.121,-3.1235,-3.1368,-3.1464,-3.0958,-3.1083,-3.1653,-3.1653,-3.1483,-3.128,-3.1813,-3.1598,-3.0995,-3.0975,-3.0855,-3.0692,0.0,0.0,0.0,0.0,0.0,0.0,0.0,0.0,0.0,0.0,0.0,0.0,0.0,0.0,0.0,0.0,0.0,0.0,0.0,-2.4209,-2.4737,-2.5263,-2.5947,-2.6297,-2.6282,-2.7088,-2.7244,-2.6691,-2.7521,-2.764,-2.7077,-2.7504,-2.7298,-2.6588,-2.6998,-2.6749,-2.6008,-2.6231,-2.6214,-2.601,-2.6207,0.0,0.0,0.0,0.0,0.0,0.0,0.0,0.0,0.0,0.0,0.0,0.0,0.0,-2.6031,-2.5678,-2.5067,-2.4461,-2.4359,-2.4717,-2.5125,-2.496,-2.597,-2.6977,-2.6977,-2.717,-2.7412,-2.7499,-2.7914,-2.8424,-2.8941,-3.0121,-3.1098,-3.1475,-3.2331,-3.2997,-3.323,-3.3729,-3.3975,-3.3745,-3.405,-3.4275,-3.4275,-3.4275,-3.4399,-3.4667,-3.457,-3.4618,-3.4899,-3.4849,-3.4934,-3.5184,-3.5157,-3.5238,-3.5447,-3.4709,-3.3698,-3.2378,-3.1562,-3.119,-3.119,-3.121,-3.1308,-3.1498,-3.1449,-3.1562,-3.18,-3.18,-3.1596,-3.1312,-3.1475,-3.132,-3.0995,-3.0932,-3.0831,-3.0671,0.0,0.0,0.0,0.0,0.0,0.0,0.0,0.0,0.0,0.0,0.0,0.0,0.0,0.0,0.0,0.0,0.0,0.0,0.0,-2.4448,-2.5019,-2.6067,-2.6335,-2.6469,-2.6401,-2.7137,-2.7696,-2.8007,-2.8912,-2.8799,-2.7691,-2.7723,-2.7296,-2.6503,-2.7042,-2.6848,-2.6148,-2.6665,-2.6546,-2.601,-2.617,-2.6169,0.0,0.0,0.0,0.0,0.0,0.0,0.0,0.0,-2.6912,-2.6355,-2.6995,-2.6825,-2.6356,-2.6153,-2.5766,-2.55,-2.5781,-2.5649,-2.5604,-2.6263,-2.6889,-2.7439,-2.7697,-2.7554,-2.7701,-2.8741,-2.8786,-2.8963,-2.9989,-3.1251,-3.2191,-3.2306,-3.3302,-3.4006,-3.3809,-3.3899,-3.4,-3.4075,-3.4201,-3.4325,-3.4423,-3.4349,-3.4374,-3.4546,-3.4521,-3.457,-3.478,-3.4851,-3.5018,-3.5291,-3.5291,-3.5406,-3.56,-3.4861,-3.3981,-3.2983,-3.2242,-3.165,-3.119,-3.119,-3.1252,-3.1387,-3.1387,-3.1408,-3.1519,-3.2072,-3.1871,-3.1252,-3.1349,-3.1271,-3.1112,-3.0995,-3.0895,-3.0794,0.0,0.0,0.0,0.0,0.0,0.0,0.0,0.0,0.0,0.0,0.0,0.0,0.0,0.0,0.0,0.0,0.0,0.0,-2.4335,-2.4539,-2.5146,-2.6269,-2.6522,-2.6572,-2.6401,-2.7101,-2.7791,-2.8422,-2.9165,-2.902,-2.8135,-2.7877,-2.7332,-2.6623,-2.7241,-2.7083,-2.6361,-2.6861,-2.6706,-2.61,-2.6205,-2.6169,0.0,0.0,0.0,0.0,0.0,0.0,0.0,0.0,-2.6659,-2.5962,-2.6566,-2.6712,-2.657,-2.6176,-2.612,-2.6245,-2.6438,-2.6346,-2.632,-2.6927,-2.7539,-2.806,-2.8327,-2.8077,-2.8121,-2.9294,-2.9512,-2.9917,-3.1316,-3.2373,-3.3158,-3.3619,-3.444,-3.499,-3.481,-3.4535,-3.4441,-3.4617,-3.448,-3.4423,-3.4546,-3.4448,-3.4423,-3.4618,-3.4618,-3.4667,0.0,-3.4923,-3.5111,-3.5291,-3.5337,-3.5452,-3.56,-3.5115,-3.4392,-3.3448,-3.2944,-3.2178,-3.119,-3.119,-3.1232,-3.1295,-3.1295,-3.1315,-3.1421,-3.2008,-3.1864,-3.1288,-3.1291,-3.1235,-3.1213,-3.1035,-3.0952,-3.0871,0.0,0.0,0.0,0.0,0.0,0.0,0.0,0.0,0.0,0.0,0.0,0.0,0.0,0.0,0.0,0.0,0.0,0.0,-2.3967,-2.4451,-2.5014,-2.5687,-2.6352,-2.6607,-2.6401,-2.7047,-2.7466,-2.7609,-2.7876,-2.8066,-2.8185,-2.7998,-2.759,-2.7009,-2.7572,-2.7349,-2.6589,-2.6606,-2.6486,-2.6295,-2.6295,-2.6259,-2.6202,0.0,0.0,0.0,0.0,0.0,0.0,0.0,-2.7102,-2.7313,-2.6465,-2.6571,-2.6765,-2.5648,-2.597,-2.6563,-2.5963,-2.658,-2.724,-2.6572,-2.76,-2.8796,-2.8796,-2.8696,-2.8685,-2.8944,-3.0084,-3.146,-3.2938,-3.347,-3.4114,-3.5403,-3.5735,-3.5942,-3.6249,-3.5802,-3.5417,-3.5417,-3.4865,-3.4546,-3.4691,-3.457,-3.4618,-3.4875,-3.4916,0.0,0.0,-3.5152,-3.5308,-3.5291,-3.5446,-3.552,-3.56,-3.56,-3.4922,-3.3607,-3.3607,-3.2768,-3.119,-3.119,-3.1232,-3.1295,-3.1295,-3.137,-3.1498,-3.1498,-3.1498,-3.1479,-3.1269,-3.1232,-3.1257,-3.0995,-3.0892,-3.0871,0.0,0.0,0.0,0.0,0.0,0.0,0.0,0.0,0.0,0.0,0.0,0.0,0.0,0.0,0.0,0.0,0.0,0.0,-2.4701,-2.4862,-2.5453,-2.6628,-2.6838,-2.6825,-2.6624,-2.7119,-2.7736,-2.8439,-2.8529,-2.8402,-2.8135,-2.8543,-2.8031,-2.686,-2.8237,-2.7944,-2.6416,-2.7093,-2.6938,-2.6222,-2.6294,-2.6594,-2.699,0.0,0.0,0.0,0.0,0.0,0.0,0.0,0.0,0.0,-2.5763,-2.6142,-2.6631,-2.6092,-2.6047,-2.6214,-2.6284,-2.642,-2.6619,-2.689,-2.7606,-2.8293,-2.8482,-2.8934,-2.9495,-3.0135,-3.0837,-3.1794,-3.3285,-3.4097,-3.4999,-3.6286,-3.6803,-3.7032,-3.7118,-3.6131,-3.5442,-3.5544,-3.4914,-3.4521,-3.4546,-3.4594,-3.4832,-3.5358,-3.5465,0.0,0.0,-3.5823,-3.578,-3.5463,-3.5469,-3.552,-3.56,-3.56,-3.5131,-3.4232,-3.4334,-3.3284,-3.1274,-3.1274,-3.1271,-3.1232,-3.1232,-3.1249,-3.1269,-3.119,-3.121,-3.1269,-3.1131,-3.1114,-3.1213,-3.1035,-3.0875,-3.0733,0.0,0.0,0.0,0.0,0.0,0.0,0.0,0.0,0.0,0.0,-2.57,-2.5561,0.0,0.0,0.0,0.0,0.0,0.0,0.0,-2.5114,-2.5508,-2.6697,-2.6917,-2.6875,-2.6674,-2.6852,-2.7232,-2.7774,-2.8167,-2.8227,-2.7946,-2.8457,-2.8151,-2.7318,-2.8733,-2.8458,-2.7009,-2.7587,-2.7431,-2.6781,-2.6481,-2.6833,-2.7401,0.0,0.0,0.0,0.0,0.0,0.0,0.0,0.0,0.0,-2.5546,-2.5875,-2.6234,-2.5855,-2.6075,-2.6472,-2.6432,-2.6734,-2.7156,-2.7507,-2.8046,-2.8636,-2.9287,-2.9587,-3.0024,-3.0915,-3.1664,-3.2572,-3.3976,-3.4986,-3.602,-3.7291,-3.7739,-3.7834,-3.7557,-3.6881,-3.6348,-3.6146,-3.5703,-3.5465,-3.5531,-3.5613,-3.5795,-3.6181,0.0,0.0,0.0,-3.6276,-3.6132,-3.544,-3.556,-3.5656,-3.5667,-3.5734,-3.5382,-3.4657,-3.4763,-3.3936,-3.2239,-3.193,-3.1618,-3.1308,-3.1252,-3.1193,-3.1112,-3.1035,-3.1015,-3.1072,-3.1015,-3.1015,-3.1072,-3.0975,-3.0814,-3.063,0.0,0.0,0.0,0.0,0.0,0.0,0.0,0.0,0.0,0.0,-2.6663,-2.6279,0.0,0.0,0.0,0.0,0.0,0.0,0.0,-2.5359,-2.5493,-2.6279,-2.6742,-2.6859,-2.6623,-2.64,-2.6259,-2.6168,-2.7102,-2.7615,-2.77,-2.7962,-2.8151,-2.8323,-2.9213,-2.9092,-2.8185,-2.8219,-2.8046,-2.7734,-2.7024,-2.7141,-2.7644,-2.6889,0.0,0.0,0.0,0.0,0.0,0.0,0.0,0.0,-2.5731,-2.5787,-2.5807,-2.524,-2.6005,-2.6915,-2.6382,-2.7211,-2.8203,-2.8128,-2.8669,-2.9531,-3.0669,-3.0506,-3.0394,-3.1299,-3.2425,-3.3583,-3.4719,-3.5849,-3.6958,-3.8056,-3.8353,-3.8225,-3.7622,-3.7734,-3.7672,-3.7105,-3.6957,-3.6949,-3.7051,-3.7085,-3.7127,0.0,0.0,0.0,0.0,-3.6649,-3.6443,-3.5431,-3.565,-3.5795,-3.5817,-3.5927,-3.5655,0.0,-3.5077,-3.4665,-3.3809,-3.2974,-3.2241,-3.1581,-3.1453,-3.1247,-3.0995,-3.0995,-3.0955,-3.0912,-3.0955,-3.0935,-3.0892,-3.0892,-3.0712,-3.0506,0.0,0.0,0.0,0.0,0.0,0.0,0.0,0.0,0.0,0.0,0.0,0.0,0.0,0.0,0.0,0.0,0.0,0.0,0.0,-2.6377,-2.6498,-2.7185,-2.7035,-2.6826,-2.6589,-2.64,-2.6189,-2.597,-2.6334,-2.6897,-2.7645,-2.8308,-2.9028,-2.9805,-3.0828,-3.0668,-2.9658,-2.9878,-2.9411,-2.8558,-2.848,-2.8566,-2.8617,-2.7768,-2.7412,0.0,0.0,0.0,0.0,0.0,0.0,0.0,-2.6117,-2.6097,-2.6061,-2.5661,-2.5622,-2.5695,-2.5743,-2.6326,-2.6987,-2.734,-2.8382,-2.9551,-3.0219,-3.0746,-3.117,-3.1446,-3.2526,-3.3615,-3.4203,-3.5244,-3.6199,-3.6799,-3.7018,-3.7271,-3.7697,-3.7308,-3.7199,-3.7852,-3.7338,-3.6924,-3.6949,-3.7051,-3.7283,0.0,0.0,0.0,-3.7894,-3.7642,-3.7107,-3.6263,-3.5858,-3.5734,-3.5954,-3.5883,-3.5907,0.0,-3.595,-3.5572,-3.484,-3.3884,-3.2971,-3.2133,-3.2213,-3.1774,-3.0995,-3.0995,-3.0955,-3.0892,-3.0794,-3.0814,-3.0892,-3.0773,-3.0651,-3.0526,0.0,0.0,0.0,0.0,0.0,0.0,0.0,0.0,0.0,0.0,0.0,0.0,0.0,0.0,0.0,0.0,0.0,0.0,0.0,0.0,-2.6722,-2.7321,-2.7087,-2.6893,-2.6759,-2.652,-2.6293,-2.6025,-2.6079,-2.6752,-2.8,-2.8999,-2.9892,-3.073,-3.1726,-3.1433,-3.0151,-3.0374,-3.0078,-2.943,-2.9128,-2.9213,-2.9448,-2.8634,-2.8057,-2.7649,-2.714,0.0,0.0,0.0,0.0,0.0,0.0,0.0,-2.617,-2.577,-2.5715,-2.5875,-2.6125,-2.6658,-2.7285,-2.7759,-2.8676,-2.9631,-3.0176,-3.1036,-3.1754,-3.205,-3.3061,-3.4081,-3.4781,-3.5534,-3.612,-3.635,-3.6786,-3.7147,-3.7249,-3.7511,-3.7787,-3.8064,-3.7926,-3.784,-3.7893,-3.8067,0.0,0.0,0.0,-3.8653,-3.7826,-3.7677,-3.7095,-3.5947,-3.5712,-3.5734,-3.5997,-3.5993,-3.6079,-3.6255,-3.6255,-3.6065,-3.5652,-3.4377,-3.3475,-3.2917,-3.2618,-3.2127,-3.1503,-3.1147,-3.0915,-3.0794,-3.081,-3.0753,-3.0712,-3.0692,-3.0589,-3.0464,0.0,0.0,0.0,0.0,0.0,0.0,0.0,0.0,0.0,0.0,0.0,0.0,0.0,0.0,0.0,0.0,0.0,0.0,0.0,0.0,0.0,-2.7211,-2.7071,-2.6975,-2.6893,-2.664,-2.6398,-2.6202,-2.6231,-2.7127,-2.8818,-2.969,-3.0637,-3.1653,-3.2446,-3.1971,-3.0617,-3.0728,-3.0624,-3.0306,-2.9656,-2.9668,-3.0021,-2.9414,-2.8668,-2.7921,-2.7903,-2.7392,-2.6733,-2.6703,0.0,0.0,0.0,0.0,-2.6225,-2.5787,-2.5947,-2.6326,-2.6619,-2.7293,-2.802,-2.8545,-2.925,-2.9875,-3.0207,-3.1311,-3.2343,-3.2839,-3.3718,-3.4594,-3.5299,-3.5809,-3.6076,-3.5946,-3.6588,-3.6998,-3.6715,-3.7779,-3.8472,-3.8163,-3.8427,-3.8679,-3.8788,-3.8824,0.0,0.0,0.0,-3.8594,-3.7118,-3.7195,-3.6707,-3.5455,-3.5525,-3.5711,-3.5997,-3.6122,-3.6156,-3.6104,-3.599,-3.588,-3.5757,-3.4425,-3.3717,-3.3518,-3.2788,-3.2242,-3.1857,-3.1288,-3.0915,-3.0753,-3.0871,-3.0753,-3.0589,-3.0651,-3.0547,-3.0417,0.0,0.0,0.0,0.0,0.0,0.0,0.0,0.0,0.0,0.0,-2.7975,-2.7729,0.0,0.0,0.0,0.0,0.0,0.0,0.0,0.0,0.0,-2.7392,-2.7121,-2.6975,-2.6893,-2.664,-2.6398,-2.6202,-2.6889,-2.8344,-3.0469,-2.9945,-3.0965,-3.3281,-3.3472,-3.3045,-3.2202,-3.2281,-3.1827,-3.1058,-3.0956,-3.0581,-3.0091,-2.9989,-2.9482,-2.8804,-2.8678,-2.8572,-2.837,-2.7749,-2.7531,0.0,0.0,0.0,-2.626,-2.6026,-2.5817,-2.5812,-2.6246,-2.712,-2.8088,-2.8832,-2.9836,-3.0516,-3.0008,-3.1563,-3.3219,-3.3517,-3.4186,-3.4579,-3.4078,-3.4729,-3.5146,-3.4505,-3.5017,-3.576,-3.6427,-3.7204,-3.7916,-3.8592,-3.8242,-3.7947,-3.7974,-3.74,0.0,0.0,-3.7188,-3.7114,-3.677,-3.6522,-3.6237,-3.5909,-3.5649,-3.5678,-3.5997,-3.6019,-3.5928,-3.5771,-3.4881,-3.4392,-3.4191,-3.3703,-3.3456,-3.3401,-3.2652,-3.1877,-3.115,-3.1165,-3.1092,-3.0955,-3.0912,-3.0892,-3.0831,-3.0609,-3.0506,-3.0485,0.0,0.0,0.0,0.0,0.0,0.0,0.0,0.0,0.0,0.0,0.0,-2.8365,0.0,0.0,0.0,0.0,0.0,0.0,0.0,0.0,0.0,-2.7467,-2.72,-2.7023,-2.6959,-2.6657,-2.645,-2.6363,-2.6952,-2.8232,-3.0132,-3.0599,-3.2051,-3.4223,-3.4328,-3.3741,-3.2701,-3.3151,-3.2576,-3.1397,-3.1766,-3.1455,-3.0717,-3.0717,-3.026,-2.96,-2.9602,-2.9257,-2.876,-2.8461,-2.8324,-2.8115,-2.7359,0.0,0.0,0.0,-2.5952,-2.5956,-2.6844,-2.7471,-2.8088,-2.8894,-2.9415,-2.9814,-3.0029,-3.1314,-3.2663,-3.3364,-3.3794,-3.4142,-3.4568,-3.4686,-3.4574,-3.4149,-3.5072,-3.5821,-3.588,-3.7113,-3.804,-3.8063,-3.7747,-3.7541,-3.7633,-3.6996,0.0,0.0,-3.683,-3.665,-3.6111,-3.6084,-3.5867,-3.5396,-3.5389,-3.5543,-3.5866,-3.6036,-3.5914,-3.5516,-3.4501,-3.3999,-3.39,-3.3494,-3.333,-3.3343,-3.2508,-3.1941,-3.1587,-3.1223,-3.1015,-3.0935,-3.0955,-3.0834,-3.0651,-3.0531,-3.0485,-3.0422,0.0,0.0,0.0,0.0,0.0,0.0,0.0,0.0,0.0,0.0,0.0,0.0,0.0,0.0,0.0,0.0,0.0,0.0,0.0,0.0,0.0,-2.7483,-2.7231,-2.7055,-2.6991,-2.6674,-2.6485,-2.6451,-2.7042,-2.8078,-2.9566,-3.1029,-3.273,-3.4588,-3.4964,-3.4318,-3.3009,-3.3764,-3.3259,-3.1978,-3.2519,-3.2357,-3.1749,-3.1805,-3.1368,-3.076,-3.1025,-3.0525,-2.9732,-2.9585,-2.9479,-2.9196,-2.8163,-2.7751,0.0,0.0,0.0,-2.6421,-2.7485,-2.7838,-2.8066,-2.8792,-2.9129,-2.9453,-3.0012,-3.115,-3.2345,-3.3214,-3.357,-3.4022,-3.4978,-3.475,-3.4415,-3.4469,-3.5428,-3.6065,-3.5743,-3.7135,-3.7897,-3.7178,-3.6988,-3.6869,-3.6686,-3.6135,0.0,0.0,-3.6109,-3.594,-3.5349,-3.5515,-3.539,-3.4916,-3.5175,-3.5475,-3.5861,-3.5976,-3.5701,-3.5062,-3.4086,-3.3502,-3.3237,-3.2814,-3.2706,-3.2718,-3.219,-3.1997,-3.2017,-3.1298,-3.0975,-3.0972,-3.0995,-3.0834,-3.0609,-3.0551,-3.0485,-3.0396,0.0,0.0,0.0,0.0,0.0,0.0,0.0,0.0,0.0,0.0,0.0,0.0,-2.7818,-2.8436,-2.8594,-2.7786,-2.7774,0.0,0.0,0.0,0.0,-2.7407,-2.7137,0.0,-2.6991,-2.6674,-2.6434,-2.6313,-2.741,-2.8434,-2.9345,-3.083,-3.2481,-3.427,-3.5289,-3.4868,-3.3427,-3.4283,-3.4062,-3.314,-3.328,-3.3322,-3.3288,-3.343,-3.3073,-3.2573,-3.3345,-3.3086,-3.2298,-3.1521,-3.1281,-3.0951,-2.9271,-2.8723,-2.8669,0.0,0.0,0.0,-2.7797,-2.7939,-2.8005,-2.8501,-2.9538,-3.0302,-2.9842,-3.1354,-3.2959,-3.3303,-3.406,-3.461,-3.457,-3.4627,-3.4873,-3.5414,-3.5695,-3.5974,-3.6372,-3.7075,-3.7123,-3.6027,-3.5876,-3.5511,-3.4571,0.0,0.0,0.0,-3.4163,-3.4348,-3.4562,-3.4587,-3.4692,-3.4899,-3.5175,-3.5526,-3.5975,-3.5676,-3.507,-3.4165,-3.3272,-3.2361,-3.1434,-3.1216,-3.1073,-3.1063,-3.1587,-3.1871,-3.1947,-3.1295,-3.1055,-3.1171,-3.1052,-3.0955,-3.0871,-3.0749,-3.0568,-3.0417,0.0,0.0,0.0,0.0,0.0,0.0,0.0,0.0,0.0,0.0,0.0,0.0,0.0,-2.8347,-2.8442,-2.7639,-2.763,0.0,0.0,0.0,0.0,-2.7392,-2.7168,-2.7023,-2.6942,-2.664,-2.6415,-2.624,-2.7421,-2.8161,-2.8496,-3.0455,-3.177,-3.253,-3.4223,-3.5009,-3.5083,-3.5398,-3.5053,-3.4304,-3.4346,-3.4036,-3.3549,-3.369,-3.3192,-3.2516,-3.3424,-3.3121,-3.2307,-3.2486,-3.2587,-3.2309,-3.057,-3.0065,-2.9959,-2.8927,-2.8588,-2.8649,-2.8933,-2.8487,-2.8066,-2.8746,-2.8832,-2.8823,-2.9001,-3.0619,-3.2216,-3.2767,-3.3241,-3.3819,-3.4717,-3.4715,-3.4603,-3.4742,-3.554,-3.5838,-3.5078,-3.6206,-3.664,-3.5316,-3.4967,-3.4709,-3.4331,0.0,0.0,0.0,0.0,-3.4075,-3.4,-3.4399,-3.4618,-3.4643,-3.5065,-3.5566,-3.6122,-3.5676,-3.4995,-3.4096,-3.322,-3.2276,-3.1312,-3.1664,-3.1756,-3.1608,-3.1733,-3.1604,-3.131,-3.1449,-3.131,-3.0992,-3.0952,-3.0831,-3.0651,-3.0589,-3.0443,-3.029,0.0,0.0,0.0,0.0,0.0,0.0,0.0,0.0,0.0,-2.9281,0.0,0.0,0.0,0.0,-2.8683,-2.7902,-2.7652,-2.7526,-2.7544,-2.7544,-2.7483,-2.7378,-2.7168,-2.7006,-2.6909,-2.6589,-2.6329,-2.6115,-2.7322,-2.7871,-2.7879,-2.9869,-3.098,-3.1385,-3.2959,-3.4206,-3.5155,-3.5433,-3.5241,-3.4793,-3.5092,-3.4976,-3.4708,-3.4899,-3.4421,-3.3717,-3.4613,-3.4095,-3.3102,-3.3507,-3.3671,-3.3393,-3.1683,-3.1031,-3.068,-2.9456,-2.9159,-2.9276,-2.9585,-2.8923,-2.8346,-2.9094,-2.9013,-2.8886,-2.9325,-3.0582,-3.1895,-3.2619,-3.3062,-3.3601,-3.4492,-3.4662,-3.4676,-3.4849,-3.542,-3.5505,-3.4596,-3.5492,-3.5726,-3.4319,-3.4178,-3.403,-3.3685,0.0,0.0,0.0,0.0,0.0,-3.3899,-3.4374,-3.4643,-3.4691,-3.5234,-3.5728,-3.6122,-3.5877,-3.5316,-3.4398,-3.3539,-3.261,-3.1647,-3.1836,-3.1813,-3.1645,-3.1813,-3.1608,-3.1215,-3.1383,-3.1224,-3.0892,-3.0892,-3.0753,-3.0568,-3.0568,-3.0422,-3.021,0.0,0.0,0.0,0.0,0.0,0.0,0.0,0.0,-3.0628,-2.9644,0.0,0.0,0.0,0.0,0.0,-2.8553,-2.7858,-2.7457,-2.7426,-2.7426,-2.7395,-2.7333,0.0,0.0,-2.6893,-2.6503,-2.6207,-2.6008,-2.713,-2.7607,-2.7531,-2.9049,-3.015,-3.0891,-3.1629,-3.2471,-3.3389,-3.4325,-3.466,-3.4658,-3.5496,-3.6243,-3.6875,-3.7204,-3.6852,-3.6303,-3.7041,-3.6289,-3.4908,-3.4677,-3.4573,-3.4259,-3.2563,-3.1573,-3.0861,-3.014,-2.9433,-2.9009,0.0,0.0,0.0,-2.9474,-3.0152,-3.0686,-3.0811,-3.1332,-3.2017,-3.2892,-3.3645,-3.4096,-3.3875,-3.4409,-3.5098,-3.5794,-3.5363,-3.4971,-3.5159,-3.5065,-3.4468,-3.3056,-3.3458,-3.3472,-3.2487,0.0,0.0,0.0,-3.3684,-3.4,-3.4275,-3.4423,-3.4691,-3.5105,-3.5689,-3.5997,-3.5997,-3.6318,-3.6001,-3.4998,-3.4175,-3.3261,-3.2276,-3.1549,-3.1092,-3.0925,-3.1662,-3.1897,-3.1724,-3.1008,-3.079,-3.0892,-3.0892,-3.081,-3.0692,-3.0692,-3.0485,-3.021,0.0,0.0,0.0,0.0,0.0,0.0,-3.0831,-3.0801,-3.0421,0.0,0.0,0.0,-2.9076,-2.9283,-2.9179,-2.8488,-2.8779,-2.8759,-2.824,-2.8205,-2.8141,-2.8027,-2.7381,-2.6892,-2.6691,-2.6434,-2.6171,-2.5917,-2.6587,-2.7122,-2.7531,-2.8479,-2.9356,-3.0145,-3.0817,-3.1338,-3.1796,-3.3842,-3.5363,-3.6399,-3.6643,-3.7166,-3.7814,-3.7929,-3.7399,-3.6712,-3.7403,-3.6948,-3.6053,-3.6522,-3.6306,-3.5518,-3.3491,-3.1976,-3.0922,-3.0858,-3.0636,-3.046,-3.0738,0.0,0.0,0.0,0.0,0.0,-2.9264,-3.0409,-3.1735,-3.2194,-3.2966,-3.3671,-3.4002,-3.4246,-3.4234,-3.3703,-3.4624,-3.521,-3.4617,-3.4717,-3.4388,-3.3117,-3.2967,-3.2752,0.0,0.0,0.0,0.0,-3.3555,-3.3924,-3.4,-3.4423,-3.4787,-3.5088,-3.5583,-3.5805,-3.5711,-3.6131,-3.5876,-3.4928,-3.4117,-3.3284,-3.2414,-3.163,-3.1134,-3.0908,-3.1109,-3.107,-3.09,-3.121,-3.1112,-3.0733,-3.0651,-3.0589,-3.0568,-3.0568,-3.0464,-3.0333,0.0,0.0,0.0,0.0,0.0,-3.0008,-3.0692,-3.0854,-3.0617,0.0,0.0,0.0,-3.0222,-2.9929,-2.9606,-2.9265,-2.9334,-2.9214,-2.8818,-2.8801,-2.8612,-2.8186,-2.764,-2.7063,-2.6486,-2.6294,-2.6064,-2.5809,-2.626,-2.6808,-2.7469,-2.8201,-2.9016,-2.9832,-3.0456,-3.0838,-3.111,-3.3296,-3.4938,-3.6093,-3.6757,-3.7433,-3.8108,-3.8438,-3.8037,-3.7347,-3.7986,-3.7597,-3.6785,-3.7169,-3.6754,-3.5792,-3.4266,-3.3012,-3.2088,-3.1922,-3.1422,-3.1022,-3.152,-3.0925,-3.0236,-3.0636,0.0,0.0,-2.9463,-3.0461,-3.1477,-3.1243,-3.2158,-3.2951,-3.2844,-3.3069,-3.2949,-3.1945,-3.2727,-3.347,-3.346,-3.4009,-3.3994,-3.2809,-3.2535,-3.2458,0.0,-3.2707,-3.2914,-3.3134,-3.3633,-3.3975,-3.4151,-3.4497,-3.4828,-3.5088,-3.5447,-3.5627,-3.56,-3.5871,-3.571,-3.5094,-3.3922,-3.3128,-3.2626,-3.1587,-3.1015,-3.0831,-3.0871,-3.0733,-3.0539,-3.0927,-3.0903,-3.0568,-3.0485,-3.0464,-3.0464,-3.0464,-3.0401,-3.0312,0.0,0.0,0.0,-2.8306,-2.8699,-2.934,-3.0895,-3.1193,-3.0978,0.0,-3.0845,-3.1332,-3.1462,-3.0772,-3.0328,-3.0351,-2.9769,-2.9361,-2.9295,-2.933,-2.9005,-2.8269,-2.7944,-2.7396,-2.6527,-2.6265,-2.6065,-2.5945,-2.6281,-2.6794,-2.7555,-2.8196,-2.8967,-2.9875,-3.0447,-3.0824,-3.113,-3.2835,-3.4007,-3.483,-3.6407,-3.743,-3.8122,-3.8899,-3.8732,-3.8171,-3.8672,-3.8204,-3.7344,-3.7134,-3.6403,-3.5471,-3.4824,-3.4171,-3.3551,-3.2968,-3.1895,-3.1122,-3.1999,-3.1334,-3.0571,-3.1389,-3.1727,0.0,-3.0653,-3.1066,-3.1372,-3.0459,-3.1477,-3.2184,-3.1127,-3.1536,-3.1654,-3.0489,-3.0431,-3.0943,-3.2062,-3.2999,-3.3258,-3.2374,-3.2171,-3.2331,-3.2908,-3.2639,-3.2682,-3.3344,-3.3764,-3.4126,-3.4472,-3.4643,-3.4851,-3.5088,-3.5304,-3.5447,-3.5577,-3.5577,-3.5515,-3.5385,-3.3768,-3.2973,-3.2873,-3.1541,-3.0836,-3.0651,-3.0753,-3.0651,-3.0443,-3.038,-3.0359,-3.0396,-3.038,-3.0396,-3.0396,-3.0396,-3.0316,-3.0231,0.0,-2.7052,-2.7252,-2.8661,-2.86,-2.886,-3.0397,-3.0736,-3.0825,-3.083,-3.1067,-3.1252,-3.1332,-3.1196,-3.0798,-3.0146,-3.0709,-3.0801,-3.0057,-3.0152,-3.0082,-2.9705,-2.8484,-2.7831,-2.7909,-2.7234,-2.7082,-2.7456,-2.7279,-2.7592,-2.8383,-2.8463,-2.907,-3.0146,-3.0526,-3.1087,-3.1867,-3.2971,-3.418,-3.5481,-3.7176,-3.8299,-3.9016,-3.9547,-3.9581,-3.9353,-3.9244,-3.8887,-3.8378,-3.7643,-3.6597,-3.5488,-3.4808,-3.3738,-3.2753,-3.2718,-3.223,-3.1734,-3.1926,-3.167,-3.1372,-3.1545,-3.1857,0.0,-3.0941,-3.1286,-3.1769,-3.1518,-3.2012,-3.2224,-3.1309,-3.1725,-3.1527,-2.934,-3.0005,-3.1049,-3.1654,-3.1593,-3.1804,-3.2659,-3.1937,0.0,-3.2154,-3.2425,-3.2602,-3.2685,-3.3752,-3.4423,-3.4497,-3.4732,-3.4923,-3.5088,-3.5304,-3.5441,-3.5537,-3.5464,-3.5424,-3.5385,-3.4189,-3.336,-3.2862,-3.179,-3.0929,-3.0295,-3.021,-3.0146,-3.0103,-3.0081,-3.021,-3.0396,-3.0274,-3.0295,-3.0396,-3.0396,-3.0422,-3.0422,-2.6881,-2.6839,-2.7169,-2.863,-2.8685,-2.8948,-3.0257,-3.0547,-3.0671,-3.0834,-3.1291,-3.1742,-3.212,-3.2154,-3.2002,-3.1631,-3.2093,-3.2072,-3.1286,-3.1274,-3.0893,-2.9989,-2.9085,-2.8291,-2.7674,-2.7197,-2.7062,-2.7299,-2.7143,-2.7573,-2.8598,-2.8619,-2.9226,-3.0258,-3.078,-3.1577,-3.2647,-3.3381,-3.4555,-3.6021,-3.7361,-3.7936,-3.8129,-3.9329,-3.9251,-3.8529,-3.9113,-3.904,-3.8629,-3.811,-3.7199,-3.6151,-3.5493,-3.4634,-3.3819,-3.3649,-3.323,-3.2912,-3.3129,-3.2659,-3.2107,-3.2221,-3.2206,0.0,0.0,-3.1357,-3.1668,-3.0817,-3.1409,-3.1564,-2.9955,-3.02,-2.9985,-2.7947,-2.8211,-2.8929,-2.9568,-3.0582,-3.1465,-3.2082,-3.1546,0.0,-3.1948,-3.179,-3.1983,-3.2746,-3.386,-3.4497,-3.4497,-3.4739,-3.4994,-3.5198,-3.5297,-3.5367,-3.54,-3.5228,-3.5078,-3.4937,-3.3935,-3.3275,-3.2919,-3.2128,-3.1475,-3.102,-3.0595,-3.0383,-3.0305,-2.9855,-2.9776,-2.9973,-3.006,-3.0146,-3.021,-3.029,-3.0274,-3.0253,-2.6411,-2.6582,-2.7077,-2.8635,-2.8785,-2.9038,-3.0117,-3.0321,-3.0476,-3.0792,-3.1583,-3.244,-3.3165,-3.3249,-3.3292,-3.3417,-3.3481,-3.3204,-3.2502,-3.239,-3.1718,-3.0288,-2.9816,-2.8966,-2.7614,-2.7316,-2.7234,-2.728,-2.7284,-2.7826,-2.885,-2.8914,-2.9404,-3.0279,-3.0964,-3.199,-3.3277,-3.3756,-3.4922,-3.6501,-3.7306,-3.7511,-3.7523,-3.9059,-3.8853,-3.7882,-3.8906,-3.8963,-3.856,-3.8525,-3.7713,-3.6641,-3.613,-3.5507,-3.4887,-3.4504,-3.4109,-3.3898,-3.4281,-3.3626,-3.2866,-3.322,-3.2775,-3.2106,0.0,0.0,0.0,-3.0058,-3.0727,-3.0926,-2.875,-2.8729,-2.8553,-2.713,0.0,0.0,0.0,-2.9424,0.0,-3.1033,-3.0708,0.0,-3.1494,-3.0879,-3.1098,-3.2733,-3.3591,-3.4129,-3.4235,-3.4673,-3.5018,-3.5291,-3.5245,-3.5245,-3.5291,-3.497,-3.4715,-3.4497,-3.3697,-3.3169,-3.2951,-3.244,-3.2077,-3.1773,-3.1123,-3.0819,-3.0717,-2.9805,-2.9552,-2.9786,-2.9829,-2.993,-3.0017,-3.0124,-3.0124,-3.0103,-2.7302,-2.7271,-2.7428,-2.8968,-2.8713,-2.8632,-2.9696,-2.9875,-3.0234,-3.1188,-3.2138,-3.3072,-3.4051,-3.4157,-3.4174,-3.4251,-3.4533,-3.4211,-3.3079,-3.3161,-3.2812,-3.1796,-3.0883,-3.0145,-2.9658,-2.9002,-2.8897,-2.9365,-2.9349,-2.9496,-2.9745,-2.9524,-2.9645,-3.0071,-3.0804,-3.1955,-3.3402,-3.3697,-3.5032,-3.6945,-3.7236,-3.8146,-3.9359,-3.9332,-3.951,-3.9732,-3.9349,-3.8881,-3.846,-3.8817,-3.7664,-3.6077,-3.5876,-3.5,-3.4037,-3.3965,-3.3892,-3.3806,-3.3939,-3.3729,-3.3686,-3.4559,-3.3773,-3.2995,-3.3656,0.0,-3.1652,-3.082,0.0,-3.1059,-2.9522,0.0,0.0,-2.8066,-2.7233,0.0,-2.7827,-2.7501,-2.7861,-2.9671,-2.8885,0.0,0.0,-2.9675,-3.0167,-3.1814,-3.2275,-3.2695,-3.3226,-3.4297,-3.5018,-3.5291,-3.5065,-3.5065,-3.5291,-3.4804,-3.4521,-3.4497,-3.4144,-3.3573,-3.282,-3.2682,-3.2215,-3.1437,-3.1128,-3.1047,-3.1082,-3.0186,-3.0176,-3.0665,-2.9736,-2.9627,-2.9995,-3.0017,-3.021,-3.0422,-2.6994,-2.7226,-2.7691,-2.897,-2.893,-2.8955,-2.9639,-3.0204,-3.1043,-3.2374,-3.2968,-3.3779,-3.5135,-3.5362,-3.5425,-3.5442,-3.603,-3.5818,-3.4347,-3.4263,-3.4113,-3.3812,-3.2304,-3.1254,-3.0778,-2.993,-2.9378,-2.9178,-2.9259,-2.9491,-2.9896,-2.9754,-3.0008,-3.0607,-3.1225,-3.2665,-3.4611,-3.4702,-3.6014,-3.8048,-3.8134,-3.9104,-4.0393,-3.9684,-3.94,-3.9373,-3.9722,-3.943,-3.893,0.0,-3.8373,-3.6959,-3.7505,-3.637,-3.5033,-3.577,-3.5703,-3.5482,-3.5758,-3.5502,-3.5206,-3.5462,-3.4473,-3.3466,-3.3594,-3.2728,-3.1565,-3.0404,0.0,0.0,0.0,0.0,0.0,0.0,-2.7653,-2.7588,0.0,0.0,-2.6843,-2.894,0.0,0.0,0.0,0.0,0.0,0.0,-3.1053,-3.1723,-3.2086,-3.2968,-3.3634,-3.4019,-3.4193,-3.4316,-3.4426,-3.4469,-3.4423,-3.4275,-3.4151,-3.3838,-3.3322,-3.3211,-3.2924,-3.2459,-3.1674,-3.1425,-3.1481,-3.0565,-3.0365,-3.0535,-2.9681,-2.9556,-2.9847,-2.9901,-2.9874,-2.9804,-2.6784,-2.7187,-2.7791,-2.8779,-2.8998,-2.9216,-2.9797,-3.0836,-3.2048,-3.3427,-3.4055,-3.5061,-3.6829,-3.7253,-3.7361,-3.7234,-3.7794,-3.7467,-3.5804,-3.5385,-3.5245,-3.5404,-3.3754,-3.252,-3.187,-3.0949,-3.0101,-2.9286,-2.9232,-2.9491,-3.0045,-2.9835,-3.0109,-3.0865,-3.1428,-3.2813,-3.4755,-3.5161,-3.6525,-3.8455,-3.8701,-3.9535,-4.0611,-4.0249,-3.9671,-3.9145,-4.0272,-4.0043,-3.931,-3.9983,-3.9117,0.0,-3.8591,-3.7459,-3.6115,-3.7266,-3.727,-3.6973,-3.7283,0.0,-3.6774,0.0,0.0,0.0,0.0,0.0,0.0,0.0,-3.094,0.0,0.0,0.0,-2.9816,-2.7964,0.0,-2.7771,-2.7171,-2.6324,0.0,0.0,0.0,0.0,0.0,0.0,0.0,0.0,0.0,0.0,-3.0942,-3.1775,-3.2508,-3.3016,-3.3316,-3.3561,-3.3793,-3.4004,-3.4105,-3.4101,-3.4101,-3.3949,-3.3694,-3.3607,-3.345,-3.3198,-3.2351,-3.1984,-3.1949,-3.1019,-3.0611,-3.0549,-2.9848,-2.9541,-2.9524,-2.9552,-2.9423,-2.9266,-2.7099,-2.7295,-2.7658,-2.8488,-2.8708,-2.9155,-3.0228,-3.1734,-3.3079,-3.3971,-3.5438,-3.7222,-3.9358,-4.0107,-4.0267,-3.9825,-3.9817,-3.9067,-3.7336,-3.6447,-3.6008,-3.6146,-3.5061,-3.4039,-3.3248,-3.2389,-3.1481,-3.0549,-2.9958,-2.9958,-3.0478,-2.9822,-2.9834,-3.0458,-3.1126,-3.1916,-3.2914,-3.451,-3.6101,-3.7617,-3.8461,-3.9184,-3.9886,-4.1206,-4.0775,-3.9651,-4.1061,0.0,0.0,-4.0402,-3.977,0.0,0.0,0.0,0.0,0.0,0.0,0.0,0.0,0.0,0.0,-3.7674,0.0,0.0,0.0,0.0,-3.1352,0.0,0.0,0.0,-2.9696,-2.9437,-2.9197,-2.8489,-2.7683,0.0,0.0,-2.6387,-2.585,-2.5726,0.0,0.0,0.0,0.0,0.0,0.0,0.0,0.0,-2.9805,-3.1175,-3.2205,-3.29,-3.2668,-3.2941,-3.3776,-3.3362,-3.3477,-3.4101,-3.4101,-3.3949,-3.3694,-3.371,-3.3477,-3.3096,-3.2935,-3.2742,-3.2501,-3.1578,-3.1151,-3.109,-3.0301,-2.9594,-2.8992,-2.8814,-2.8904,-2.909,-2.797,-2.7962,-2.8071,-2.8518,-2.8565,-2.9121,-3.0815,-3.2184,-3.3738,-3.5591,-3.6287,-3.7571,-4.0037,-4.0488,-4.0274,-3.9428,-3.9847,-3.9392,-3.7567,-3.716,-3.7269,-3.7877,-3.6489,-3.5626,-3.5426,-3.4103,-3.2959,-3.2056,-3.1015,-3.076,-3.1206,-3.0039,-3.0305,-3.1713,-3.1597,-3.2485,-3.4162,-3.5404,-3.6491,-3.7507,-3.9219,-4.0296,-4.0889,0.0,-4.0764,-3.9476,-4.0805,-4.0906,0.0,-4.1119,-4.0592,-3.9818,-4.0451,-3.9281,-3.7877,-3.8966,-3.8682,0.0,0.0,0.0,-3.8533,-3.805,0.0,0.0,0.0,0.0,0.0,0.0,0.0,0.0,0.0,-3.012,-3.0296,-2.8793,-2.821,-2.7768,0.0,-2.6356,-2.5737,-2.5609,-2.5631,-2.5713,0.0,0.0,0.0,0.0,-2.7156,0.0,0.0,-2.9214,-3.0174,-3.0692,-3.1276,-3.2058,-3.3048,-3.3077,-3.3437,-3.4101,-3.4101,-3.4,-3.3822,-3.3658,-3.3503,-3.3319,-3.2893,-3.266,-3.2559,-3.2084,-3.154,-3.0973,-3.0171,-2.9452,-2.8858,-2.8895,-2.8774,-2.8653,-2.8612,-2.828,-2.8088,-2.8332,-2.8903,-2.9831,-3.1415,-3.3124,-3.4998,-3.7098,-3.7871,-3.9013,-4.1039,-4.1488,-4.1243,-4.0331,-4.0605,-4.013,-3.8466,-3.7986,-3.8079,-3.8772,-3.7476,-3.675,-3.6761,-3.5503,-3.4343,-3.3339,-3.2104,-3.171,-3.2101,-3.0902,-3.1094,-3.2421,-3.2075,-3.2853,-3.4472,-3.5573,-3.6619,-3.7693,-3.9849,-4.0886,0.0,0.0,-4.0686,-3.9652,0.0,-4.1325,-4.1055,-4.1384,-4.1107,-4.0692,-4.1395,-4.026,-3.8888,-4.005,-3.9556,-3.8666,-3.8605,-3.8861,0.0,-3.8157,-3.7513,0.0,-3.5776,0.0,-3.381,0.0,0.0,0.0,0.0,-3.0724,-3.0708,-2.8956,-2.8424,-2.7961,0.0,-2.6086,-2.5297,-2.525,-2.5408,-2.5547,-2.5647,0.0,0.0,-2.624,-2.6563,-2.6831,0.0,0.0,-2.9052,-2.9477,-3.0504,-3.1567,-3.2707,-3.2779,-3.3218,-3.4025,-3.4025,-3.3924,-3.3745,-3.3581,-3.3424,-3.324,-3.2881,-3.2605,-3.2422,-3.2014,-3.1402,-3.0651,-2.9849,-2.9293,-2.891,-2.8616,-2.8344,-2.8137,-2.8971,-2.8273,-2.7755,-2.8036,-2.9701,-3.13,-3.2017,-3.4367,-3.6686,-3.8437,-3.996,-4.1309,-4.2427,-4.3016,-4.3043,-4.2334,-4.1926,-4.1186,-3.9927,-3.8861,-3.8444,-3.8799,-3.7987,-3.7492,-3.7392,-3.6556,-3.5577,-3.4403,-3.3226,-3.2841,-3.3154,-3.2221,-3.2055,-3.2567,-3.252,-3.2953,-3.379,-3.5079,-3.6545,-3.8192,-4.0255,-4.096,-4.0817,-4.1071,-4.067,-4.0222,-4.1771,-4.1677,-4.0896,-4.1203,-4.1205,-4.1083,-4.1102,-4.0379,-3.9724,-4.0736,-4.0291,-3.9476,-3.9444,-3.9543,-3.9333,-3.8041,0.0,0.0,0.0,0.0,-3.4681,0.0,0.0,0.0,0.0,0.0,-3.0496,-2.908,-2.8298,-2.764,-2.7026,-2.5614,-2.4649,-2.4649,-2.5119,-2.5698,-2.6318,-2.6418,-2.6383,-2.6263,-2.6399,-2.6522,0.0,0.0,-2.882,-2.916,-3.0188,-3.1329,-3.2552,-3.2354,-3.2787,-3.385,-3.3882,-3.3745,-3.3503,-3.3503,-3.3282,-3.2924,-3.2912,-3.2621,-3.2127,-3.1457,-3.0785,-3.0081,-2.9301,-2.9068,-2.9053,-2.8037,-2.767,-2.7645,-2.8686,-2.8734,-2.8773,-2.8949,-3.042,-3.1836,-3.2582,-3.4054,-3.6212,-3.938,-3.9279,-4.0033,-4.2993,-4.257,-4.199,-4.1794,-4.0972,-4.0114,-3.9275,-3.8376,-3.8187,-3.8921,-3.8346,-3.8189,-3.8563,-3.7299,-3.6422,-3.6022,-3.4234,-3.3634,-3.41,-3.2419,-3.2263,-3.3355,-3.2853,-3.3088,-3.3944,-3.5321,-3.7217,-3.9415,-4.0623,-4.0912,-4.0737,0.0,-4.1263,-4.0515,-4.104,-4.1278,-4.1384,-4.1327,-4.1104,-4.0901,-4.1171,-4.061,-3.9908,-4.0071,-3.9663,-3.8996,-3.8466,-3.8581,-3.8783,-3.8325,-3.8181,-3.7921,0.0,0.0,0.0,0.0,0.0,0.0,0.0,0.0,-3.1363,-2.98,-2.8213,-2.6893,-2.6144,-2.5638,-2.5352,-2.5415,-2.4984,-2.4754,-2.4925,-2.5297,-2.553,-2.548,-2.5838,-2.579,0.0,0.0,0.0,-2.7411,-2.8066,-2.9125,-3.068,-3.1498,-3.2297,-3.3026,-3.3616,-3.3797,-3.3658,-3.3555,-3.3372,-3.3176,-3.2978,-3.2396,-3.1574,-3.1313,-3.0494,-2.9424,-2.9,-2.8811,-2.8718,-2.8564,-2.8555,-2.8545,-2.9176,-2.926,-2.9328,-2.9427,-3.0998,-3.2561,-3.3448,-3.5027,-3.7203,-4.0277,-4.0011,-4.0467,-4.2825,-4.2402,-4.1812,-4.1505,-4.1083,-4.0495,-3.9712,-3.9267,-3.9221,-3.9647,-3.9001,-3.891,-3.9422,-3.835,-3.7613,-3.7336,-3.5717,-3.4848,-3.4731,-3.323,-3.2917,-3.3591,-3.3218,-3.3652,-3.475,-3.6725,-3.835,-3.977,-4.096,-4.1262,0.0,-4.1837,-4.1725,-4.1181,-4.1246,-4.1419,-4.1555,-4.1305,-4.1138,-4.1021,-4.1171,-4.0769,-4.0208,-4.023,-3.9637,-3.891,-3.851,-3.8405,-3.8408,-3.8335,-3.8391,-3.8379,-3.7834,-3.7737,-3.7245,0.0,0.0,0.0,0.0,0.0,0.0,-2.9864,-2.7911,-2.6438,-2.5759,-2.5353,-2.5015,-2.474,-2.3877,-2.3466,-2.388,-2.4394,-2.468,-2.4647,-2.5154,-2.5191,0.0,0.0,0.0,-2.6795,-2.7765,-2.8876,-3.0081,-3.1079,-3.1957,-3.2654,-3.3114,-3.339,-3.3529,-3.345,-3.3319,-3.3203,-3.3005,-3.2501,-3.1797,-3.144,-3.0597,-2.9535,-2.9316,-2.9158,-2.9052,-2.9064,-2.8963,-2.8684,-3.0044,-2.9842,-2.9784,-2.9842,-3.1589,-3.3393,-3.466,-3.6528,-3.8624,-4.0998,-4.1159,-4.1417,-4.2285,-4.2269,-4.1981,-4.1562,-4.1662,-4.1422,-4.0686,-4.0639,-4.0593,-4.0508,-3.9741,-3.9544,-4.0064,-3.9395,-3.8832,-3.845,-3.7243,-3.6203,-3.5386,-3.4382,-3.3878,-3.3799,-3.3773,-3.4568,-3.6019,-3.8393,-3.9471,-3.9724,-4.1261,-4.1752,-4.1588,-4.1916,-4.1964,-4.1866,-4.1833,-4.1719,-4.1522,-4.1221,-4.1171,-4.1223,-4.1153,-4.0898,-4.0608,-4.0658,-3.994,-3.9072,-3.891,-3.8531,-3.8164,-3.8164,-3.825,-3.8335,-3.818,-3.8266,-3.804,-3.6804,-3.6754,-3.6417,0.0,0.0,0.0,-2.9662,-2.7758,-2.6351,-2.5527,-2.485,-2.4174,-2.3418,-2.2506,0.0,0.0,0.0,-2.3851,-2.3753,-2.4328,0.0,0.0,0.0,0.0,-2.6756,-2.8158,0.0,-2.9977,0.0,-3.1589,-3.2317,-3.2412,-3.2727,-3.3166,-3.3166,-3.3135,-3.3085,-3.2951,-3.2656,-3.2213,-3.1655,-3.0792,-2.9834,-2.9807,-2.9642,-2.9391,-2.931,-2.8979,-2.8424,-3.0632,-3.0646,-3.0746,-3.1164,-3.2751,-3.4576,-3.6362,-3.6956,-3.8145,-4.0937,-4.0448,-4.0482,-4.2205,-4.1518,-4.1373,-4.2505,-4.1531,-4.0974,-4.1388,-4.0388,-4.004,-4.0547,-4.0021,-3.9942,-4.0483,-3.9677,-3.922,-3.9125,-3.759,-3.6899,-3.6965,-3.5631,-3.5149,-3.54,-3.5291,-3.6015,-3.7398,-3.8404,0.0,-4.0242,-4.1257,-4.1522,-4.139,-4.1588,-4.1654,-4.1637,-4.1456,-4.139,-4.1357,-4.129,-4.1104,-4.0935,-4.1205,-4.1211,-4.1014,-4.023,-3.9815,-3.9431,-3.8371,-3.803,-3.7963,-3.7963,-3.8078,-3.8151,-3.7847,-3.802,-3.7885,-3.6679,-3.6133,-3.555,-3.4528,0.0,0.0,0.0,0.0,0.0,-2.4761,-2.434,-2.3941,-2.3099,-2.249,-2.2281,0.0,0.0,-2.285,-2.2979,-2.3304,0.0,0.0,0.0,0.0,0.0,-2.6736,0.0,0.0,0.0,-3.0749,-3.0792,-3.1454,-3.2035,-3.2481,-3.2481,-3.2641,-3.2924,-3.2897,-3.2392,-3.1578,-3.1455,-3.0464,-2.9063,-2.9584,-2.925,-2.845,-2.853,-2.8444,-2.8157,-3.1033,-3.1076,-3.1177,-3.1527,-3.3404,-3.5396,-3.6957,-3.7896,-3.9139,-4.1055,-4.0499,-4.0577,-4.2378,-4.2038,-4.2018,-4.2835,-4.2146,-4.1735,-4.1851,-4.1102,-4.0863,-4.1358,-4.0706,-4.0563,-4.1099,-4.0323,-3.9848,-3.9655,0.0,-3.7747,-3.727,-3.6229,-3.5666,-3.5606,-3.628,-3.7171,-3.8171,0.0,0.0,-4.0544,-4.1401,-4.1637,-4.1489,-4.1753,-4.1834,-4.1736,-4.1522,-4.139,-4.129,-4.1088,-4.1055,-4.1104,-4.1171,-4.1305,-4.1284,-4.0451,-3.9945,-3.9421,-3.8467,-3.8016,-3.7788,-3.7788,-3.7934,-3.7992,-3.7847,-3.7934,-3.7754,-3.6721,-3.6292,-3.5709,-3.4329,-3.2742,0.0,0.0,0.0,0.0,0.0,-2.4113,-2.3665,-2.2459,-2.1986,-2.1779,-2.1922,0.0,0.0,-2.1955,-2.2441,0.0,0.0,0.0,0.0,0.0,0.0,0.0,0.0,0.0,0.0,-2.9729,-3.045,-3.1239,-3.2086,-3.1709,-3.2029,-3.2881,-3.2346,-3.2041,-3.1874,-3.132,-3.0728,-3.0198,-3.0088,-2.9478,-2.8668,-2.8668,-2.8201,-2.753,-3.1794,-3.1768,-3.1787,-3.2136,-3.4101,-3.6071,-3.7311,-3.8822,-4.0158,-4.1145,-4.0802,-4.0979,-4.2264,-4.2424,-4.2521,-4.2831,-4.2653,-4.2451,-4.2236,-4.2008,-4.1911,-4.198,-4.1596,-4.1417,-4.1522,-4.103,-4.0582,0.0,0.0,0.0,0.0,-3.6966,-3.6446,0.0,0.0,0.0,0.0,0.0,-4.0607,-4.0829,-4.1513,-4.1686,-4.1555,-4.1801,-4.1834,-4.1752,-4.1489,-4.1357,-4.1205,-4.0867,-4.0919,-4.1189,-4.1135,-4.1288,-4.1365,-4.056,-3.9929,-3.9329,-3.8507,-3.7981,-3.7642,-3.7642,-3.7759,-3.7847,-3.7817,-3.7801,-3.7565,-3.6734,-3.6308,-3.5637,-3.4034,-3.2745,0.0,0.0,0.0,0.0,0.0,0.0,-2.3786,-2.2439,-2.194,-2.1824,-2.2068,0.0,0.0,0.0,0.0,0.0,0.0,0.0,0.0,0.0,0.0,-2.6381,-2.6602,0.0,-2.8453,0.0,-2.947,-3.0432,-3.1644,-3.0926,-3.1405,-3.2769,-3.1813,-3.174,-3.2241,-3.1334,-3.1069,-3.1168,-3.0462,-2.9701,-2.8972,-2.8687,-2.7961,-2.7074,-3.3363,-3.3235,-3.3234,-3.3934,-3.519,-3.6622,-3.8002,-3.9113,-4.014,-4.1008,-4.1055,-4.1107,-4.1417,-4.1417,-4.1785,-4.2631,-4.2276,-4.2182,-4.2604,-4.272,-4.2452,-4.1686,-4.2606,-4.2582,-4.1339,-4.1566,-4.136,0.0,0.0,-3.9321,0.0,0.0,0.0,0.0,0.0,0.0,0.0,-4.0207,-4.0681,-4.1229,-4.1325,-4.1357,-4.1323,-4.1221,-4.1254,-4.1323,-4.1003,-4.0984,-4.1068,-4.0662,-4.0662,-4.0867,-4.1034,-4.1221,-4.1072,-3.9785,-3.9456,-3.9218,-3.7953,-3.7557,-3.751,-3.751,-3.7612,-3.7671,-3.7569,-3.7508,-3.7257,-3.6564,-3.5407,-3.4245,-3.3332,-3.3166,-3.2507,0.0,0.0,0.0,0.0,0.0,-2.4823,-2.3904,-2.3399,-2.3441,-2.4217,-2.2346,0.0,0.0,-2.1516,0.0,0.0,0.0,0.0,-2.692,0.0,-2.6751,-2.7911,-2.8037,0.0,-2.8023,-2.8684,-2.968,-3.0869,-3.0208,-3.0886,-3.2574,-3.1771,-3.1646,-3.201,-3.1607,-3.1034,-3.0358,-2.9999,-2.9389,-2.8664,-2.7903,-2.7573,-2.7358,-3.3853,-3.3787,-3.3945,0.0,0.0,0.0,0.0,-3.9161,-4.0059,-3.9871,-4.0566,-4.1258,-4.1734,-4.1781,-4.2063,-4.2766,-4.2341,-4.2043,-4.2153,-4.2325,-4.2268,-4.1917,-4.2739,-4.2884,-4.2233,-4.2341,-4.1994,0.0,0.0,0.0,0.0,0.0,0.0,0.0,0.0,-4.0431,-4.068,-4.0747,-4.0937,-4.1187,-4.1187,-4.1187,-4.1153,-4.0984,-4.0935,-4.0953,-4.0562,-4.0474,-4.0558,-4.0436,-4.0574,-4.0799,-4.0882,-4.0772,-4.039,-3.9404,-3.8874,-3.8403,-3.7551,-3.7255,-3.7211,-3.73,-3.7315,-3.7271,-3.7211,-3.7165,-3.6961,-3.6256,-3.5074,-3.4023,-3.3536,-3.3298,-3.2473,0.0,0.0,0.0,0.0,0.0,-2.5373,-2.4579,-2.3568,-2.3219,-2.3935,-2.2819,0.0,0.0,0.0,0.0,0.0,0.0,0.0,-2.6246,0.0,-2.6419,-2.7132,-2.7554,-2.7695,-2.7665,-2.8303,-2.9069,-2.9948,-2.967,-3.0351,-3.1774,-3.176,-3.1794,-3.1841,-3.1509,-3.1129,-3.0733,-3.0426,-2.9784,-2.9074,-2.8627,-2.824,-2.7824,-3.4602,0.0,-3.4848,0.0,-3.6619,-3.7567,-3.7673,-3.9184,-4.0058,-3.9466,-4.0281,-4.1137,-4.1672,-4.1719,-4.1852,-4.2158,-4.1965,-4.1778,-4.172,-4.2132,-4.2381,-4.2381,-4.3167,0.0,-4.2443,-4.2793,-4.2381,-4.1214,-4.1325,0.0,0.0,0.0,0.0,0.0,-4.0796,-4.0898,-4.0932,-4.0932,-4.0932,-4.0932,-4.0932,-4.0932,-4.0898,-4.078,-4.0765,-4.0765,-4.037,-4.025,-4.0301,-4.0296,-4.047,-4.0631,-4.0464,-4.0213,-3.9835,-3.8884,-3.8325,-3.7857,-3.7307,-3.7075,-3.703,-3.7119,-3.7075,-3.7015,-3.7015,-3.6938,-3.6705,-3.599,-3.4847,-3.3923,-3.3727,-3.3306,-3.2268,-3.0245,0.0,0.0,0.0,-2.6338,0.0,-2.5321,-2.4173,-2.3791,-2.4627,-2.3771,0.0,0.0,0.0,0.0,0.0,0.0,0.0,0.0,0.0,0.0,0.0,-2.7234,-2.7481,-2.7473,-2.8097,-2.8765,-2.9402,-2.9812,-3.0416,-3.1189,-3.1764,-3.1855,-3.1626,-3.1366,-3.1161,-3.0984,-3.0612,-3.0127,-2.9605,-2.9152,-2.8736,-2.8296,-3.5912,-3.6029,-3.6231,-3.635,-3.7,-3.7567,-3.7673,-3.9184,-4.0312,-4.0296,-4.042,-4.0593,-4.0799,-4.0814,-4.073,-4.0543,-4.0898,-4.1212,-4.1483,-4.2497,-4.3098,0.0,0.0,-4.3824,-4.155,-4.2695,-4.2541,-4.0997,0.0,0.0,-4.0967,0.0,-4.0101,-4.0296,-4.0312,-4.0366,-4.0489,-4.0489,-4.0489,-4.0489,-4.0489,-4.0489,-4.0489,-4.0489,-4.0627,-4.0765,-4.0401,-4.0366,-4.0489,-4.0331,-4.0312,-4.0224,-3.9671,-3.9658,-3.9513,-3.8117,-3.7857,-3.7842,-3.7186,-3.7015,-3.7015,-3.7015,-3.7015,-3.7015,-3.7015,-3.6862,-3.6522,-3.584,-3.4645,-3.3699,-3.3699,-3.311,-3.2125,-3.0634,0.0,0.0,0.0,-2.728,0.0,-2.6357,-2.5665,-2.5826,-2.7211,-2.5487,0.0,0.0,0.0,0.0,0.0,0.0,0.0,-2.6614,-2.6676,0.0,-2.738,-2.7458,-2.7473,-2.7396,-2.8088,-2.8765,-2.9433,-3.0766,-3.1248,-3.104,-3.1708,-3.1726,-3.1292,-3.1161,-3.0984,-3.0762,-3.0294,-3.0189,-3.0165,-2.9096,-2.8782,-2.8788,-3.6694,-3.6778,-3.7015,-3.7654,-3.7943,-3.8093,-3.8038,-3.9088,-3.9672,-3.9099,-3.9692,-4.0156,-4.0242,-4.047,-4.0524,0.0,-4.087,-4.1152,0.0,-4.2325,-4.3026,-4.3026,-4.3846,-4.3953,-4.3221,-4.3594,-4.3244,-4.2176,0.0,0.0,0.0,-4.0728,-4.0504,-4.0607,-4.1185,-4.0954,-4.0202,-4.072,-4.0659,-4.0172,-4.0296,-4.0261,-4.0121,-4.0016,-4.0001,-4.0001,-3.9768,-3.9696,-3.9768,-3.9874,-3.991,-3.9824,-3.9436,-3.9118,-3.876,-3.7818,-3.7295,-3.694,-3.6816,-3.6739,-3.6677,-3.677,-3.6739,-3.6662,-3.6662,-3.6507,-3.6152,-3.5386,-3.4514,-3.3765,-3.3307,-3.2283,-3.1201,-3.0289,-2.977,0.0,0.0,0.0,-2.723,-2.7546,-2.616,-2.5717,0.0,-2.6206,0.0,0.0,0.0,0.0,0.0,0.0,0.0,0.0,-2.7015,0.0,-2.8765,-2.879,-2.8972,-2.9317,-2.9531,-2.9991,-3.0624,-3.1079,-3.1523,-3.1968,-3.1905,-3.1769,-3.1538,-3.1249,-3.0925,-3.0642,-3.0264,-3.0036,-2.9886,-2.9378,-2.9215,-2.9147,-3.741,-3.7425,-3.7594,-3.8227,-3.8322,-3.8301,-3.821,-3.9047,-3.9495,-3.8968,-3.9546,-4.0011,-4.0011,-4.0207,0.0,-3.998,-4.068,-4.1146,-4.1163,-4.2304,-4.3107,-4.335,-4.376,-4.3827,-4.3507,0.0,0.0,-4.258,-4.2325,-4.1783,-4.092,-4.0432,-4.0242,-4.0366,-4.0898,-4.0698,-4.0026,-4.0441,-4.0345,-3.9889,-4.0016,-3.998,-3.9889,-3.9839,-3.9803,-3.9768,-3.9589,-3.9517,-3.9517,-3.9661,-3.9681,-3.9632,-3.9245,-3.8928,-3.857,-3.8044,-3.74,-3.6892,-3.6986,-3.6739,-3.6523,-3.66,-3.6554,-3.6492,-3.6383,-3.6258,-3.5902,-3.5139,-3.4425,-3.3728,-3.3061,-3.2017,-3.1051,-3.0301,-3.0102,-2.9614,-2.8399,0.0,-2.734,0.0,0.0,0.0,0.0,-2.6946,-2.6783,0.0,0.0,0.0,0.0,0.0,0.0,-2.6778,-2.7489,0.0,-2.9321,-2.9321,-2.9582,-3.011,-3.011,-3.0476,-3.1116,-3.1116,-3.1509,-3.2163,-3.1927,-3.1683,-3.1467,-3.119,-3.0895,-3.0582,-3.0233,-3.0005,-2.9867,-2.9571,-2.9446,-2.9328,-3.8056,-3.8035,-3.8014,0.0,-3.827,0.0,-3.827,-3.9077,-3.9696,-3.9696,-3.9839,-3.9975,-3.9975,-3.9975,-3.9849,-3.9484,0.0,0.0,0.0,-4.2395,-4.3206,-4.3782,-4.3812,-4.3447,-4.2612,-4.3199,-4.3121,-4.2297,-4.1639,-4.0868,-4.007,-3.9614,-3.9481,-3.9646,-3.9727,-3.9813,-3.994,-3.9813,-3.9727,-3.9696,-3.9681,-3.9681,-3.9696,-3.9854,-3.994,-3.9925,-3.9717,-3.9646,-3.9696,-3.9646,-3.9696,-3.9626,-3.9198,-3.907,-3.9002,-3.8591,-3.8029,-3.7522,-3.7523,-3.7046,-3.6553,-3.6507,-3.646,-3.6429,-3.6179,-3.6053,-3.5776,-3.5032,-3.4273,-3.3548,-3.2839,-3.2161,-3.1413,-3.0612,-3.1129,-3.0887,-2.8801,0.0,0.0,0.0,0.0,0.0,0.0,-2.7637,-2.7976,0.0,0.0,0.0,0.0,0.0,-2.6688,-2.7249,-2.7994,-2.8661,-2.9241,-2.9256,-2.9546,-3.0118,-3.0118,-3.0437,-3.1043,-3.1043,-3.1336,-3.1784,-3.1756,-3.1497,-3.1073,-3.1087,-3.0895,-3.0522,-3.0233,-3.008,-3.0019,-2.9696,-2.9477,-2.9383,0.0,0.0,-3.848,-3.8845,-3.8882,-3.8954,-3.9113,-3.932,-3.9445,-3.9445,-3.9517,-3.9532,-3.9532,-3.9532,-3.9691,-4.0127,-4.1009,-4.1572,-4.1626,-4.2189,-4.2361,-4.2016,-4.2001,-4.1865,-4.1486,-4.1635,-4.1558,-4.1187,-4.0497,-4.006,-3.986,-3.938,-3.9177,-3.928,-3.9933,-3.9997,-3.9598,-4.0188,-4.0076,-3.9481,-3.9661,-3.9625,-3.9445,-3.9358,-3.9409,-3.9496,-3.9126,-3.9213,-3.9445,-3.9286,-3.943,-3.9702,-3.9743,-3.9873,-3.9768,-3.8613,-3.804,-3.7745,-3.7582,-3.7273,-3.6917,-3.6396,-3.6179,-3.6005,-3.5524,-3.5606,-3.5356,-3.3917,-3.3512,-3.3079,-3.2018,-3.1168,-3.059,-3.0383,-3.0086,-2.9357,-2.7739,-2.7865,0.0,0.0,-2.74,-2.7855,-2.7619,-2.8117,-2.822,0.0,0.0,0.0,0.0,-2.7521,-2.7439,-2.7089,-2.7729,-2.8692,-2.9944,-2.9855,-3.0346,-3.1373,-3.1373,-3.1464,-3.1615,-3.1615,-3.1647,-3.171,-3.1496,-3.1263,-3.1014,-3.091,-3.0627,-3.0203,-3.0142,-2.9927,-2.9665,-2.9352,-2.9194,-2.9162,-3.8441,-3.859,-3.8723,-3.9068,-3.9177,-3.9265,-3.9388,-3.9388,-3.9388,-3.9388,-3.9301,-3.9301,-3.9388,-3.9511,-3.9869,-4.0651,-4.1227,-4.1671,-4.2024,-4.2432,-4.2389,-4.1748,-4.1602,-4.1338,-4.0979,-4.0965,-4.0701,-4.02,-3.9938,-3.9614,-3.9192,-3.9047,-3.8943,-3.8995,-3.9476,-3.9483,-3.9171,-3.9622,-3.9563,-3.9141,-3.9235,-3.9286,-3.9265,-3.9141,-3.9228,-3.9373,-3.9141,-3.9141,-3.9265,-3.9228,-3.9322,-3.9466,-3.9661,-3.9854,-3.9879,-3.9119,-3.8515,-3.8068,-3.7914,-3.7283,-3.6542,-3.6098,-3.5799,-3.5572,-3.5279,-3.5073,-3.4616,-3.3431,-3.3015,-3.2555,-3.1603,-3.1053,-3.0729,-3.0686,-3.0095,-2.9208,-2.7853,-2.8009,0.0,-2.7071,-2.7887,-2.8431,-2.8186,-2.8434,-2.8308,-2.7645,0.0,0.0,-2.76,-2.774,-2.7674,-2.7376,-2.7773,-2.8657,-3.0004,-3.0464,-3.099,-3.167,-3.167,-3.167,-3.167,-3.167,-3.1655,-3.1611,-3.1394,-3.119,-3.1029,-3.0881,-3.0552,-3.0189,-3.0111,-2.9913,-2.9651,-2.9352,-2.9194,-2.9067,-3.8404,-3.8575,-3.8745,-3.898,-3.9141,-3.9265,-3.9301,-3.9301,-3.9301,-3.9301,-3.9141,-3.9104,-3.9228,-3.9602,-4.014,-4.092,-4.1245,-4.1643,-4.2249,-4.254,-4.2377,-4.1768,-4.1425,-4.0998,-4.0477,-4.0424,-4.0044,-3.9282,-3.9486,-3.917,-3.8441,-3.8649,-3.8745,-3.876,-3.8797,-3.8782,-3.8782,-3.8782,-3.8782,-3.8782,-3.8782,-3.8907,-3.9068,-3.9031,-3.9141,-3.9301,-3.9228,-3.9141,-3.9068,-3.9265,-3.9228,-3.9177,-3.9373,-3.9589,-3.9768,-3.9768,-3.9039,-3.8256,-3.8381,-3.7288,-3.6031,-3.5718,-3.5427,-3.5148,-3.5115,-3.4546,-3.3849,-3.3247,-3.2641,-3.2035,-3.1382,-3.1248,-3.1176,-3.1073,-3.0484,-2.963,-2.8476,0.0,-2.8222,-2.7624,-2.8319,-2.8845,-2.8771,-2.8742,-2.8457,-2.7809,-2.766,-2.76,0.0,-2.76,-2.765,-2.7765,-2.788,-2.853,-2.9756,-3.0938,-3.1539,-3.1511,-3.1511,-3.1511,-3.1467,-3.1511,-3.1467,-3.1395,-3.1263,-3.1146,-3.1014,-3.0791,-3.0538,-3.0266,-3.0127,-2.9974,-2.973,-2.9477,-2.9257,-2.9067,-3.824,-3.8277,-3.8352,-3.8553,-3.8627,-3.8701,-3.887,-3.8907,-3.8907,-3.8907,-3.887,-3.8797,-3.8664,-3.9326,-4.0026,-4.0549,-4.1091,-4.1523,-4.1794,-4.1396,-4.0849,-4.0176,-3.9586,-3.9135,-3.886,-3.8696,-3.8524,-3.8385,-3.8423,-3.8379,-3.824,-3.8441,-3.8553,-3.8553,-3.8723,-3.8782,-3.8782,-3.8782,-3.8782,-3.8782,-3.8782,-3.8819,-3.8833,-3.8664,-3.8738,-3.887,-3.8501,-3.8575,-3.887,-3.887,-3.9104,-3.9373,-3.9589,-3.9768,-3.996,-3.996,-3.8936,-3.7963,-3.8849,-3.7843,-3.6429,-3.5722,-3.5246,-3.4902,-3.4798,-3.4383,-3.3753,-3.2964,-3.2288,-3.1718,-3.122,-3.0969,-3.0881,-3.0851,-3.0251,-2.9535,-2.8887,0.0,-2.9292,-2.8367,-2.9888,-3.0614,-2.9535,-2.943,-2.916,-2.8487,-2.7929,-2.76,-2.76,-2.76,-2.7625,-2.7625,-2.765,-2.831,-2.9633,-3.1037,-3.167,-3.1511,-3.1511,-3.1438,-3.1322,-3.1438,-3.1263,-3.091,-3.0881,-3.0791,-3.0672,-3.0447,-3.0266,-3.0142,-3.0111,-2.9927,-2.9602,-2.9257,-2.9131,-2.9067,-3.8202,-3.8277,-3.8366,-3.8329,-3.8441,-3.8516,-3.8501,-3.8501,-3.8538,-3.8612,-3.8449,-3.8483,-3.8961,-3.9382,-3.9905,-4.0557,-4.1088,-4.1449,-4.1531,-4.1363,-4.1033,-4.051,-4.0086,-3.9649,-3.9223,-3.863,-3.8405,-3.8505,-3.8187,-3.8104,-3.8202,-3.8277,-3.8329,-3.8329,-3.8427,-3.8501,-3.8501,-3.8501,-3.8706,-3.9004,-3.9004,-3.927,-3.9639,-3.954,-3.9654,-3.9776,-3.9235,-3.9103,-3.9156,-3.8878,-3.8907,-3.909,-3.9199,-3.9502,-3.9768,-3.9466,-3.8572,-3.7583,-3.7161,-3.639,-3.5621,-3.517,-3.4783,-3.4467,-3.438,-3.3939,-3.35,-3.3147,-3.2643,-3.2211,-3.2011,-3.1612,-3.1303,-3.1182,-3.0337,0.0,0.0,-2.9475,-2.9661,-2.9005,-3.0397,-3.1065,-3.0178,-3.0073,-2.9669,-2.8667,-2.8308,-2.7989,-2.7615,-2.76,-2.7764,-2.8139,-2.8498,-2.9142,-3.0073,-3.1117,-3.1597,-3.1511,-3.1438,-3.1351,-3.1307,-3.1307,-3.1161,-3.0955,-3.0851,-3.0732,-3.0568,-3.0387,-3.0174,-2.9929,-2.9929,-2.9758,-2.9446,-2.9194,-2.9035,-2.8908,-3.8052,-3.8217,-3.8292,-3.8104,-3.8217,-3.8292,-3.8089,-3.8052,-3.8127,-3.8329,-3.8182,-3.8342,-3.9117,-3.9517,-3.9936,-4.0505,-4.101,-4.1297,-4.1227,-4.1367,-4.1346,-4.1053,-4.0732,-4.0334,-3.983,-3.8946,-3.8578,-3.872,-3.8117,-3.7915,-3.8052,-3.8052,-3.8052,-3.8052,-3.8052,-3.8138,-3.8269,-3.8269,-3.8659,-3.9266,-3.9266,-3.9634,-4.0211,-4.0236,-4.0266,-4.0193,-3.9786,-3.9469,-3.9136,-3.8863,-3.8723,-3.876,-3.8797,-3.9126,-3.9379,-3.8943,-3.8204,-3.7229,-3.5829,-3.5337,-3.5126,-3.4827,-3.4448,-3.4162,-3.4162,-3.3672,-3.3225,-3.3262,-3.2887,-3.2515,-3.2515,-3.2024,-3.1556,-3.1401,0.0,0.0,0.0,-2.9579,-2.9825,-2.9725,-3.0626,-3.1084,-3.0678,-3.0499,-2.9933,-2.8853,-2.8629,-2.8267,-2.763,-2.775,-2.8188,-2.9026,-2.9535,-3.0028,-3.0507,-3.1123,-3.1438,-3.1438,-3.1322,-3.1234,-3.1161,-3.1073,-3.0984,-3.0895,-3.0717,-3.0582,-3.0462,-3.0266,-3.0038,-2.9808,-2.9808,-2.9637,-2.9383,-2.9162,-2.8972,-2.878,-3.7649,-3.7815,-3.7891,-3.7687,-3.7815,-3.7891,-3.7649,-3.7649,-3.7739,-3.7929,-3.8241,-3.8496,-3.8539,-3.9624,-4.0285,-4.015,-4.0703,-4.0972,-4.0773,-4.0787,-4.0774,-4.0824,-4.0219,-3.9873,-3.9816,-3.8946,-3.8514,-3.85,-3.7925,-3.7625,-3.7649,-3.7649,-3.7649,-3.7649,-3.7649,-3.7939,-3.8482,-3.8482,-3.8853,-3.9467,-3.9467,-3.9522,-3.9605,-3.9776,-3.9466,-3.8972,-3.9165,-3.8835,-3.8312,-3.8456,-3.8516,-3.8553,-3.876,-3.8819,-3.887,-3.8819,-3.7933,-3.6817,-3.6278,-3.6138,-3.5893,-3.5082,-3.4635,-3.438,-3.438,-3.3787,-3.3159,-3.2978,-3.2411,-3.1968,-3.1968,-3.1468,-3.104,-3.104,0.0,0.0,-3.011,-2.9899,-2.9944,-3.0616,-3.0955,-3.1087,-3.1073,-3.0497,-2.9876,-2.929,-2.8679,-2.8118,-2.763,-2.8173,-2.9086,-3.0328,-3.0417,-3.0462,-3.0507,-3.1037,-3.1307,-3.1307,-3.119,-3.1014,-3.0821,-3.0821,-3.0642,-3.0357,-3.0219,-3.0142,-3.0111,-2.9915,-2.9808,-2.9808,-2.9808,-2.9637,-2.9383,-2.9162,-2.8972,-2.8748,-3.7625,-3.7663,-3.7663,-3.7457,-3.7457,-3.7457,-3.7264,-3.7226,-3.743,-3.8022,-3.8121,-3.8481,-3.9396,-3.9645,-3.9929,-4.0265,-4.0347,-4.0343,-4.0257,-4.0257,-4.0447,-4.0885,-4.0684,-4.0385,-3.9973,-3.9185,-3.8595,-3.8303,-3.7731,-3.7457,-3.7625,-3.7625,-3.7786,-3.8157,-3.8157,-3.8514,-3.9113,-3.9113,-3.947,-4.0041,-4.0041,-4.0324,-4.0681,-4.0764,-4.0404,-3.9828,-3.9521,-3.9038,-3.8601,-3.8249,-3.8292,-3.8478,-3.8427,-3.8598,-3.8708,-3.831,-3.7466,-3.6573,-3.5967,-3.553,-3.5144,-3.4708,-3.4346,-3.4088,-3.4088,-3.3765,-3.3408,-3.334,-3.3223,-3.3134,-3.3134,-3.2325,-3.1625,-3.1625,0.0,-3.0043,-3.0814,-3.0353,-3.0286,-3.1121,-3.0965,-3.0821,-3.0925,-3.0793,-3.0468,-2.9847,-2.9551,-2.9178,-2.8566,-2.9174,-2.9739,-3.0256,-3.0656,-3.0921,-3.0992,-3.1115,-3.119,-3.1161,-3.1014,-3.0821,-3.0672,-3.0538,-3.0371,-3.0187,-3.0525,-3.0603,-3.054,-3.0449,-3.0354,-3.0186,-2.9837,-2.9557,-2.9383,-2.9162,-2.8972,-2.878,-3.7461,-3.7613,-3.7646,-3.7254,-3.7264,-3.7226,-3.6954,-3.6954,-3.7282,-3.802,-3.8154,-3.8689,-3.9967,-3.9873,-3.9925,-4.0357,-4.014,-3.9966,-3.9922,-3.9892,-4.0227,-4.0887,-4.093,-4.0732,-4.0406,-3.959,-3.9013,-3.8698,-3.7879,-3.766,-3.8015,-3.7802,-3.8044,-3.8615,-3.8615,-3.897,-3.9566,-3.9566,-3.9962,-4.0502,-4.0502,-4.0772,-4.1156,-4.1056,-4.0627,-4.0,-3.9424,-3.89,-3.8428,-3.805,-3.8081,-3.8292,-3.8202,-3.8389,-3.848,-3.7849,-3.7097,-3.6347,-3.5726,-3.503,-3.4481,-3.4346,-3.4142,-3.3951,-3.3827,-3.3709,-3.357,-3.3536,-3.3605,-3.3675,-3.3626,-3.2638,-3.1819,-3.1754,-3.0768,-3.0192,-3.0697,-3.0383,-3.033,-3.0886,-3.0661,-3.0492,-3.0552,-3.0732,-3.0587,-2.9987,-2.9985,-2.9837,-2.9451,-2.9836,-3.0218,-3.0424,-3.0793,-3.1043,-3.1073,-3.0969,-3.0955,-3.0984,-3.0717,-3.0552,-3.0507,-3.0251,-3.0068,-3.0033,-3.0534,-3.069,-3.0608,-3.0759,-3.0634,-3.0313,-2.9925,-2.9582,-2.9289,-2.9162,-2.894,-2.8716,-3.7105,-3.7642,-3.7947,-3.713,-3.7148,-3.7148,-3.6747,-3.6889,-3.7203,-3.7821,-3.8468,-3.9182,-4.001,-4.0265,-4.0399,-4.0399,-4.0154,-3.9922,-3.97,-3.97,-3.9993,-4.0659,-4.0702,-4.0773,-4.0986,-4.021,-3.9774,-3.9774,-3.8524,-3.8243,-3.8888,-3.8201,-3.8257,-3.8916,-3.8916,-3.9254,-3.9788,-3.9788,-4.014,-4.0702,-4.0702,-4.0702,-4.0631,-4.0237,-3.974,-3.9157,-3.8742,-3.8153,-3.7625,-3.7815,-3.7891,-3.7929,-3.8127,-3.8202,-3.8086,-3.7491,-3.6838,-3.617,-3.5581,-3.4755,-3.4094,-3.4094,-3.4094,-3.3991,-3.3675,-3.3605,-3.3536,-3.3361,-3.329,-3.3241,-3.3023,-3.215,-3.1419,-3.1219,-3.0403,-2.9761,-2.9602,-2.9896,-3.0019,-2.9822,-2.9974,-3.0095,-3.008,-3.0219,-3.0127,-2.9653,-2.9726,-2.9899,-3.0086,-3.0086,-3.0424,-3.1073,-3.0895,-3.0732,-3.0598,-3.0598,-3.0672,-3.0791,-3.0325,-3.0158,-3.0282,-2.9931,-2.9808,-2.982,-3.0089,-3.0206,-3.0262,-3.0726,-3.0549,-3.0011,-3.016,-2.9753,-2.9099,-2.9099,-2.8876,-2.8554,-3.67,-3.7115,-3.7418,-3.6884,-3.6825,-3.6825,-3.6721,-3.6747,-3.697,-3.7408,-3.8019,-3.8644,-3.934,-3.9707,-3.992,-3.992,-3.9469,-3.9189,-3.9158,-3.9007,-3.9185,-3.9689,-4.0039,-4.0062,-3.966,-3.9436,-3.9102,-3.8686,-3.8311,-3.8214,-3.8408,-3.8214,-3.845,-3.9047,-3.9173,-3.9606,-4.0192,-4.0192,-4.0304,-4.0471,-4.027,-4.0213,-4.0144,-3.9759,-3.9229,-3.8654,-3.8251,-3.7788,-3.738,-3.7457,-3.7586,-3.7701,-3.7763,-3.7763,-3.772,-3.7548,-3.7172,-3.6634,-3.5985,-3.523,-3.4501,-3.416,-3.3922,-3.373,-3.3605,-3.3368,-3.3143,-3.3108,-3.2966,-3.2846,-3.281,-3.1861,-3.1057,-3.1009,-3.0049,-2.9428,-2.9827,-2.996,-3.0025,-2.9947,-3.0217,-3.0207,-2.9769,-3.0083,-3.024,-3.0113,-3.0248,-3.0396,-3.044,-3.044,-3.0542,-3.0732,-3.0538,-3.0447,-3.0387,-3.0387,-3.0357,-3.0325,-3.0172,-3.0036,-2.9931,-2.9744,-2.9796,-3.0103,-3.0502,-3.0934,-3.1308,-3.1039,-3.0879,-3.0743,-2.9965,-2.9505,-2.9289,-2.9162,-2.894,-2.8683,-3.6635,-3.6928,-3.715,-3.6674,-3.6603,-3.6563,-3.6484,-3.6524,-3.6745,-3.7138,-3.7786,-3.8435,-3.9029,-3.9447,-3.9656,-3.9554,-3.9083,-3.8787,-3.8787,-3.8679,-3.8737,-3.8993,-3.9305,-3.9349,-3.9155,-3.9198,-3.9063,-3.8763,-3.8501,-3.8585,-3.8905,-3.867,-3.8877,-3.9457,-3.9586,-3.9837,-4.0255,-4.0255,-4.0255,-4.0255,-4.0053,-3.9858,-3.9581,-3.9101,-3.8755,-3.8407,-3.7664,-3.7456,-3.7512,-3.7349,-3.7419,-3.7625,-3.7625,-3.7625,-3.7625,-3.7625,-3.7257,-3.6796,-3.6394,-3.5504,-3.459,-3.4241,-3.3761,-3.3368,-3.3368,-3.3178,-3.3023,-3.3108,-3.2966,-3.281,-3.2704,-3.1792,-3.0976,-3.0807,-2.9886,-2.9319,-2.9596,-2.9845,-2.9914,-2.9665,-3.0021,-3.0085,-2.9579,-2.982,-3.0113,-3.0296,-3.0357,-3.0431,-3.0477,-3.0431,-3.0401,-3.0401,-3.028,-3.0174,-3.0099,-3.0099,-3.0113,-3.008,-2.9958,-2.9851,-2.9699,-2.9571,-2.975,-3.0122,-3.035,-3.0759,-3.1282,-3.0856,-3.0649,-3.0461,-2.9781,-2.937,-2.9162,-2.9035,-2.8876,-2.8683,-3.6714,-3.6915,-3.7028,-3.6422,-3.6312,-3.6232,-3.6072,-3.6232,-3.6464,-3.6811,-3.7579,-3.8324,-3.8832,-3.9333,-3.951,-3.9261,-3.8814,-3.8557,-3.8557,-3.8557,-3.8557,-3.8557,-3.8557,-3.8737,-3.9172,-3.9216,-3.9336,-3.956,-3.8997,-3.9155,-3.9952,-3.94,-3.9385,-3.9952,-3.9952,-3.9966,-3.9966,-3.9966,-3.9966,-3.9966,-3.9966,-3.9593,-3.8986,-3.8393,-3.8228,-3.8213,-3.7085,-3.7135,-3.7697,-3.737,-3.738,-3.751,-3.751,-3.751,-3.751,-3.7495,-3.7135,-3.6716,-3.6659,-3.5671,-3.456,-3.4295,-3.3589,-3.2986,-3.2966,-3.2952,-3.3002,-3.3171,-3.3072,-3.2881,-3.2704,-3.1848,-3.1072,-3.0651,-2.9941,-2.9341,-2.915,-2.9674,-2.9821,-2.927,-2.9716,-2.9877,-2.946,-2.9537,-2.9789,-3.0266,-3.0158,-3.0158,-3.0266,-3.0158,-3.008,-3.008,-3.008,-3.0005,-2.9808,-2.9777,-2.9867,-3.0019,-2.9741,-2.9571,-2.954,-2.9415,-2.9591,-2.9964,-2.9767,-3.0009,-3.0569,-3.0405,-2.9984,-2.9535,-2.958,-2.9291,-2.8812,-2.8812,-2.8716,-2.8554,-3.6047,-3.6239,-3.6388,-3.5953,-3.5723,-3.5656,-3.5764,-3.5804,-3.5818,-3.5737,-3.6738,-3.7412,-3.7292,-3.8228,-3.8827,-3.8782,-3.8453,-3.8304,-3.8304,-3.8148,-3.8103,-3.8258,-3.8161,-3.8083,-3.8207,-3.8557,-3.8845,-3.9029,-3.8907,-3.9067,-3.9438,-3.9302,-3.9316,-3.9482,-3.9672,-3.9774,-3.9774,-3.9774,-3.9774,-3.973,-3.9526,-3.9084,-3.8515,-3.8071,-3.762,-3.7194,-3.6653,-3.6593,-3.673,-3.6788,-3.6864,-3.6903,-3.6903,-3.6786,-3.6707,-3.6864,-3.6908,-3.6876,-3.6547,-3.5996,-3.532,-3.4621,-3.3743,-3.3019,-3.2814,-3.2632,-3.2561,-3.2596,-3.248,-3.235,-3.2314,-3.1728,-3.1087,-3.0541,-2.9901,-2.9444,-2.9411,-2.9909,-3.0263,-3.0126,-3.0343,-3.0233,-2.9695,-2.9599,-2.9758,-3.0111,-3.0111,-3.0111,-3.0142,-3.0111,-3.008,-3.008,-2.996,-2.9853,-2.9808,-2.9588,-2.9509,-2.954,-2.9477,-2.9352,-2.9194,-2.9004,-2.9237,-2.9767,-2.9602,-2.9902,-3.0398,-2.9909,-2.9671,-2.9627,-2.9162,-2.8935,-2.8812,-2.8812,-2.8716,-2.8554,-3.6266,-3.6048,-3.5803,-3.5575,-3.5399,-3.5277,-3.5399,-3.5399,-3.5466,-3.5611,-3.644,-3.708,-3.723,-3.8069,-3.8557,-3.8408,-3.8089,-3.7861,-3.7861,-3.7644,-3.7585,-3.7651,-3.7585,-3.7505,-3.7505,-3.7769,-3.8122,-3.8549,-3.8549,-3.8697,-3.8948,-3.8948,-3.8948,-3.8948,-3.9096,-3.9199,-3.9199,-3.9199,-3.9199,-3.9154,-3.9007,-3.8512,-3.779,-3.7594,-3.7437,-3.7263,-3.6508,-3.6325,-3.6445,-3.6524,-3.6563,-3.6563,-3.6563,-3.6484,-3.6445,-3.6642,-3.6786,-3.6819,-3.6715,-3.6175,-3.5485,-3.4898,-3.4072,-3.3246,-3.2932,-3.2622,-3.2417,-3.2417,-3.2359,-3.2241,-3.2109,-3.1608,-3.1034,-3.0383,-3.0052,-2.9794,-2.9543,-3.0256,-3.0622,-3.0038,-3.0337,-3.0315,-2.9619,-2.9579,-2.9696,-2.9943,-2.9913,-2.9882,-2.996,-2.9896,-2.9865,-2.9865,-2.9682,-2.9651,-2.9699,-2.9415,-2.932,-2.9383,-2.9383,-2.9226,-2.894,-2.8862,-2.9029,-2.9435,-2.9018,-2.9167,-2.9692,-2.9073,-2.8864,-2.889,-2.8592,-2.8471,-2.8457,-2.8541,-2.8573,-2.8554,-3.6525,-3.594,-3.5318,-3.5318,-3.5072,-3.4989,-3.5082,-3.5095,-3.5279,-3.5807,-3.6389,-3.6946,-3.7404,-3.7973,-3.8272,-3.8031,-3.7677,-3.7505,-3.7413,-3.7307,-3.7214,-3.7168,-3.7168,-3.7168,-3.7168,-3.7108,-3.7433,-3.8076,-3.8122,-3.8258,-3.8557,-3.8557,-3.8602,-3.8602,-3.8602,-3.8602,-3.8602,-3.8602,-3.8602,-3.8589,-3.8496,-3.7935,-3.7144,-3.7037,-3.7252,-3.7481,-3.6388,-3.6152,-3.6365,-3.6365,-3.6365,-3.6325,-3.6272,-3.6272,-3.6312,-3.651,-3.6589,-3.6628,-3.6836,-3.6186,-3.5409,-3.5174,-3.4386,-3.3599,-3.316,-3.2688,-3.2395,-3.2336,-3.2286,-3.2191,-3.189,-3.1546,-3.1029,-3.0309,-3.0225,-3.0119,-2.9666,-3.0405,-3.0649,-2.9774,-3.0106,-3.0149,-2.9368,-2.9415,-2.9571,-2.9668,-2.9588,-2.9557,-2.9668,-2.9557,-2.9509,-2.9509,-2.9415,-2.9383,-2.9509,-2.9194,-2.9131,-2.9289,-2.9257,-2.9099,-2.8761,-2.8862,-2.8926,-2.894,-2.8419,-2.8419,-2.8691,-2.8213,-2.8013,-2.8013,-2.8013,-2.8013,-2.8079,-2.8203,-2.8379,-2.849,-3.5683,-3.5208,-3.488,-3.488,-3.4494,-3.4455,-3.5106,-3.5014,-3.5094,-3.5678,-3.6235,-3.658,-3.649,-3.6959,-3.7294,-3.7248,-3.74,-3.74,-3.7168,-3.7551,-3.7703,-3.7459,-3.7459,-3.7459,-3.7459,-3.7214,-3.7261,-3.7598,-3.7815,-3.8031,-3.8258,-3.8498,-3.8602,-3.8602,-3.8602,-3.8602,-3.8602,-3.8602,-3.8602,-3.8549,-3.8029,-3.7417,-3.6807,-3.6356,-3.6324,-3.6438,-3.5723,-3.5777,-3.6126,-3.6126,-3.6126,-3.6112,-3.5884,-3.5804,-3.5844,-3.6045,-3.6138,-3.6246,-3.6431,-3.6084,-3.5561,-3.5197,-3.4607,-3.398,-3.3393,-3.2831,-3.2319,-3.2021,-3.1817,-3.1706,-3.1646,-3.1579,-3.1349,-3.0699,-3.0355,-3.0096,-3.0015,-2.9876,-2.9862,-3.0242,-3.001,-2.955,-2.8945,-2.9035,-2.9194,-2.918,-2.9194,-2.9194,-2.918,-2.9194,-2.9162,-2.9162,-2.9162,-2.9162,-2.9162,-2.894,-2.8844,-2.8876,-2.8748,-2.8683,-2.8633,-2.9116,-2.8838,-2.802,-2.845,-2.8283,-2.7708,-2.7596,-2.7603,-2.7603,-2.7603,-2.7703,-2.7855,-2.8066,-2.8145,-2.8145,-3.6755,-3.5897,-3.5113,-3.5113,-3.4797,-3.4585,-3.4918,-3.4776,-3.489,-3.568,-3.5973,-3.6315,-3.6719,-3.7106,-3.7307,-3.7307,-3.7307,-3.7214,-3.7108,-3.7168,-3.7168,-3.7062,-3.7062,-3.7062,-3.7062,-3.6828,-3.6828,-3.7062,-3.7341,-3.7585,-3.7815,-3.792,-3.807,-3.8207,-3.8207,-3.8207,-3.8207,-3.8057,-3.8011,-3.7913,-3.7355,-3.6809,-3.6375,-3.5923,-3.6109,-3.6518,-3.6264,-3.5964,-3.5696,-3.5575,-3.5616,-3.5656,-3.544,-3.5358,-3.5399,-3.548,-3.5602,-3.5737,-3.5817,-3.5602,-3.5277,-3.4936,-3.4504,-3.4011,-3.3514,-3.2896,-3.2252,-3.1694,-3.1397,-3.1224,-3.1112,-3.1187,-3.1101,-3.0616,-3.0477,-3.036,-3.0129,-3.0045,-3.0127,-3.0487,-3.0337,-2.9994,-2.9536,-2.9532,-2.9458,-2.9127,-2.9099,-2.9099,-2.9099,-2.9099,-2.9099,-2.9099,-2.9004,-2.9137,-2.9596,-2.9318,-2.9285,-2.9481,-2.9206,-2.9056,-2.8938,-2.9067,-2.8992,-2.8731,-2.8459,-2.8152,-2.7811,-2.7411,-2.7214,-2.7214,-2.7214,-2.7403,-2.7656,-2.7855,-2.8,-2.8079]},{"header":{"parameterUnit":"m.s-1","parameterCategory":1,"la1":30.6,"la2":28.766,"lo1":-90.7593,"lo2":-88.6598,"dy":0.0162,"dx":0.0183,"nx":116,"ny":114,"refTime":"2023-05-09T00:00:00:Z","depth":0,"parameterNumber":3,"parameterNumberName":"V-component_of_WINDS"},"data":[0.0,0.0,0.0,0.0,0.0,0.0,0.0,0.0,0.0,0.0,0.0,0.0,0.0,0.0,0.0,0.0,0.0,0.0,0.0,0.0,0.0,0.0,0.0,0.0,0.0,0.0,0.0,0.0,0.0,0.0,0.0,0.0,0.0,0.0,0.0,0.0,0.0,0.0,0.0,0.0,0.0,0.0,0.0,0.0,0.0,0.0,0.0,0.0,0.0,0.0,0.0,0.0,0.0,0.0,0.0,0.0,0.0,0.0,0.0,0.0,0.0,0.0,0.0,0.0,0.0,0.0,0.0,0.0,0.0,0.0,0.0,0.0,0.0,0.0,0.0,0.0,0.0,0.0,0.0,0.0,0.0,0.0,0.0,0.0,0.0,0.0,0.0,0.0,0.0,0.0,0.0,0.0,0.0,0.0,0.0,0.0,0.0,0.0,0.0,0.0,0.0,0.0,0.0,0.0,0.0,0.0,0.0,0.0,0.0,0.0,0.0,0.0,0.0,0.0,0.0,0.0,0.0,0.0,0.0,0.0,0.0,0.0,0.0,0.0,0.0,0.0,0.0,0.0,0.0,0.0,0.0,0.0,0.0,0.0,0.0,0.0,0.0,0.0,0.0,0.0,0.0,0.0,0.0,0.0,0.0,0.0,0.0,0.0,0.0,0.0,0.0,0.0,0.0,0.0,0.0,0.0,0.0,0.0,0.0,0.0,0.0,0.0,0.0,0.0,0.0,0.0,0.0,0.0,0.0,0.0,0.0,0.0,0.0,0.0,0.0,0.0,0.0,0.0,0.0,0.0,0.0,0.0,0.0,0.0,0.0,0.0,0.0,0.0,0.0,0.0,0.0,0.0,0.0,0.0,0.0,0.0,0.0,0.0,0.0,0.0,0.0,0.0,0.0,0.0,0.0,0.0,0.0,0.0,0.0,0.0,0.0,0.0,0.0,0.0,0.0,0.0,0.0,0.0,0.0,0.0,0.0,0.0,0.0,0.0,0.0,0.0,0.0,0.0,0.0,0.0,0.0,0.0,0.0,0.0,0.0,0.0,0.0,0.0,0.0,0.0,0.0,0.0,0.0,0.0,0.0,0.0,0.0,0.0,0.0,0.0,0.0,0.0,0.0,0.0,0.0,0.0,0.0,0.0,0.0,0.0,0.0,0.0,0.0,0.0,0.0,0.0,0.0,0.0,0.0,0.0,0.0,0.0,0.0,0.0,0.0,0.0,0.0,0.0,0.0,0.0,0.0,0.0,0.0,0.0,0.0,0.0,0.0,0.0,0.0,0.0,0.0,0.0,0.0,0.0,0.0,0.0,0.0,0.0,0.0,0.0,0.0,0.0,0.0,0.0,0.0,0.0,0.0,0.0,0.0,0.0,0.0,0.0,0.0,0.0,0.0,0.0,0.0,0.0,0.0,0.0,0.0,0.0,0.0,0.0,0.0,0.0,0.0,0.0,0.0,0.0,0.0,0.0,0.0,0.0,0.0,0.0,0.0,0.0,0.0,0.0,0.0,0.0,0.0,0.0,0.0,0.0,0.0,0.0,0.0,0.0,0.0,0.0,0.0,0.0,0.0,0.0,0.0,0.0,0.0,0.0,0.0,0.0,0.0,0.0,0.0,0.0,0.0,0.0,0.0,0.0,0.0,0.0,0.0,0.0,0.0,0.0,0.0,0.0,0.0,0.0,0.0,0.0,0.0,0.0,0.0,0.0,0.0,0.0,0.0,0.0,0.0,0.0,0.0,0.0,0.0,0.0,0.0,0.0,0.0,0.0,0.0,0.0,0.0,0.0,0.0,0.0,0.0,0.0,0.0,0.0,0.0,0.0,0.0,0.0,0.0,0.0,0.0,0.0,0.0,0.0,0.0,0.0,0.0,0.0,0.0,0.0,0.0,0.0,0.0,0.0,0.0,0.0,0.0,0.0,0.0,0.0,0.0,0.0,0.0,0.0,0.0,0.0,0.0,0.0,0.0,0.0,0.0,0.0,0.0,0.0,0.0,0.0,0.0,0.0,0.0,0.0,0.0,0.0,0.0,0.0,0.0,0.0,0.0,0.0,0.0,0.0,0.0,0.0,0.0,0.0,0.0,0.0,0.0,0.0,0.0,0.0,0.0,0.0,0.0,0.0,0.0,0.0,0.0,0.0,0.0,0.0,0.0,0.0,0.0,0.0,0.0,0.0,0.0,0.0,0.0,0.0,0.0,0.0,0.0,0.0,0.0,0.0,0.0,0.0,0.0,0.0,0.0,0.0,0.0,0.0,0.0,0.0,0.0,0.0,0.0,0.0,0.0,0.0,0.0,0.0,0.0,0.0,0.0,0.0,0.0,0.0,0.0,0.0,0.0,0.0,0.0,0.0,0.0,0.0,0.0,0.0,0.0,0.0,0.0,0.0,0.0,0.0,0.0,0.0,0.0,0.0,0.0,0.0,0.0,0.0,0.0,0.0,0.0,0.0,0.0,0.0,0.0,0.0,0.0,0.0,0.0,0.0,0.0,0.0,0.0,0.0,0.0,0.0,0.0,0.0,0.0,0.0,0.0,0.0,0.0,0.0,0.0,0.0,0.0,0.0,0.0,0.0,0.0,0.0,0.0,0.0,0.0,0.0,0.0,0.0,0.0,0.0,0.0,0.0,0.0,0.0,0.0,0.0,0.0,0.0,0.0,0.0,0.0,0.0,0.0,0.0,0.0,0.0,0.0,0.0,0.0,0.0,0.0,0.0,0.0,0.0,0.0,0.0,0.0,0.0,0.0,0.0,0.0,0.0,0.0,0.0,0.0,0.0,0.0,0.0,0.0,0.0,0.0,0.0,0.0,0.0,0.0,0.0,0.0,0.0,0.0,0.0,0.0,0.0,0.0,0.0,0.0,0.0,0.0,0.0,0.0,0.0,0.0,0.0,0.0,0.0,0.0,0.0,0.0,0.0,0.0,0.0,0.0,0.0,0.0,0.0,0.0,0.0,0.0,0.0,0.0,0.0,0.0,0.0,0.0,0.0,0.0,0.0,0.0,0.0,0.0,0.0,0.0,0.0,0.0,0.0,0.0,0.0,0.0,0.0,0.0,0.0,0.0,0.0,0.0,0.0,0.0,0.0,0.0,0.0,0.0,0.0,0.0,0.0,0.0,0.0,0.0,0.0,0.0,0.0,0.0,0.0,0.0,0.0,0.0,0.0,0.0,0.0,0.0,0.0,0.0,0.0,0.0,0.0,0.0,0.0,0.0,0.0,0.0,0.0,0.0,0.0,0.0,0.0,0.0,0.0,0.0,0.0,0.0,0.0,0.0,0.0,0.0,0.0,0.0,0.0,0.0,0.0,0.0,0.0,0.0,0.0,0.0,0.0,0.0,0.0,0.0,0.0,0.0,0.0,0.0,0.0,0.0,0.0,0.0,0.0,0.0,0.0,0.0,0.0,0.0,0.0,0.0,0.0,0.0,0.0,0.0,0.0,0.0,0.0,0.0,0.0,0.0,0.0,0.0,0.0,0.0,0.0,0.0,0.0,0.0,0.0,0.0,0.0,0.0,0.0,0.0,0.0,0.0,0.0,0.0,0.0,0.0,0.0,0.0,0.0,0.0,0.0,0.0,0.0,0.0,0.0,0.0,0.0,0.0,0.0,0.0,0.0,0.0,0.0,0.0,0.0,0.0,0.0,0.0,0.0,0.0,0.0,0.0,0.0,0.0,0.0,0.0,0.0,0.0,0.0,0.0,0.0,0.0,0.0,0.0,0.0,0.0,0.0,0.0,0.0,0.0,0.0,0.0,0.0,0.0,0.0,0.0,0.0,0.0,0.0,0.0,0.0,0.0,0.0,0.0,0.0,0.0,0.0,0.0,0.0,0.0,0.0,0.0,0.0,0.0,0.0,0.0,0.0,0.0,0.0,0.0,0.0,0.0,0.0,0.0,0.0,0.0,0.0,0.0,0.0,0.0,0.0,0.0,0.0,0.0,0.0,0.0,0.0,0.0,0.0,0.0,0.0,0.0,0.0,0.0,0.0,0.0,0.0,0.0,0.0,0.0,0.0,0.0,0.0,0.0,0.0,0.0,0.0,0.0,0.0,0.0,0.0,0.0,0.0,0.0,0.0,0.0,0.0,0.0,0.0,0.0,0.0,0.0,0.0,0.0,0.0,0.0,0.0,0.0,0.0,0.0,0.0,0.0,0.0,0.0,0.0,0.0,0.0,0.0,0.0,0.0,0.0,0.0,0.0,0.0,0.0,0.0,0.0,0.0,0.0,0.0,0.0,0.0,0.0,0.0,0.0,0.0,0.0,0.0,0.0,0.0,0.0,0.0,0.0,0.0,0.0,0.0,0.0,0.0,0.0,0.0,0.0,0.0,0.0,0.0,0.0,0.0,0.0,0.0,0.0,0.0,0.0,0.0,0.0,0.0,0.0,0.0,0.0,0.0,0.0,0.0,0.0,0.0,0.0,0.0,0.0,0.0,0.0,0.0,0.0,0.0,0.0,0.0,0.0,0.0,0.0,0.0,0.0,0.0,0.0,0.0,0.0,0.0,0.0,0.0,0.0,0.0,0.0,0.0,0.0,0.0,0.0,0.0,0.0,0.0,0.0,0.0,0.0,0.0,0.0,0.0,0.0,0.0,0.0,0.0,0.0,0.0,0.0,0.0,0.0,0.0,0.0,0.0,0.0,0.0,0.0,0.0,0.0,0.0,0.0,0.0,0.0,0.0,0.0,0.0,0.0,0.0,0.0,0.0,0.0,0.0,0.0,0.0,0.0,0.0,0.0,0.0,0.0,0.0,0.0,0.0,0.0,0.0,0.0,0.0,0.0,0.0,0.0,0.0,0.0,0.0,0.0,0.0,0.0,0.0,0.0,0.0,0.0,0.0,0.0,0.0,0.0,0.0,0.0,0.0,0.0,0.0,0.0,0.0,0.0,0.0,0.0,0.0,0.0,0.0,0.0,0.0,0.0,0.0,0.0,0.0,0.0,0.0,0.0,0.0,0.0,0.0,0.0,0.0,0.0,0.0,0.0,0.0,0.0,0.0,0.0,0.0,0.0,0.0,0.0,0.0,0.0,0.0,0.0,0.0,0.0,0.0,0.0,0.0,0.0,0.0,0.0,0.0,0.0,0.0,0.0,0.0,0.0,0.0,0.0,0.0,0.0,0.0,0.0,0.0,0.0,0.0,0.0,0.0,0.0,0.0,0.0,0.0,0.0,0.0,0.0,0.0,0.0,0.0,0.0,0.0,0.0,0.0,0.0,0.0,0.0,0.0,0.0,0.0,0.0,0.0,0.0,0.0,0.0,0.0,0.0,0.0,0.0,0.0,0.0,0.0,0.0,0.0,0.0,0.0,0.0,0.0,0.0,0.0,0.0,0.0,0.0,0.0,0.0,0.0,0.0,0.0,0.0,0.0,0.0,0.0,0.0,0.0,0.0,0.0,0.0,0.0,0.0,0.0,0.0,0.0,0.0,0.0,0.0,0.0,0.0,0.0,0.0,0.0,0.0,0.0,0.0,0.0,0.0,0.0,0.0,0.0,0.0,0.0,0.0,0.0,0.0,0.0,0.0,0.0,0.0,0.0,0.0,0.0,0.0,0.0,0.0,0.0,0.0,0.0,0.0,0.0,0.0,0.0,0.0,0.0,0.0,0.0,0.0,0.0,0.0,0.0,0.0,0.0,0.0,0.0,0.0,0.0,0.0,0.0,0.0,0.0,0.0,0.0,0.0,0.0,0.0,0.0,0.0,0.0,0.0,0.0,0.0,0.0,0.0,0.0,0.0,0.0,0.0,0.0,0.0,0.0,0.0,0.0,0.0,0.0,0.0,0.0,0.0,0.0,0.0,0.0,0.0,0.0,0.0,0.0,0.0,0.0,0.0,0.0,0.0,0.0,0.0,0.0,0.0,0.0,0.0,0.0,0.0,0.0,0.0,0.0,0.0,0.0,0.0,0.0,0.0,0.0,0.0,0.0,0.0,0.0,0.0,0.0,0.0,0.0,0.0,0.0,0.0,0.0,0.0,0.0,0.0,0.0,0.0,0.0,0.0,0.0,0.0,0.0,0.0,0.0,0.0,0.0,0.0,0.0,0.0,0.0,0.0,0.0,0.0,0.0,0.0,0.0,0.0,0.0,0.0,0.0,0.0,0.8251,0.0,0.0,0.0,0.0,0.0,0.0,0.0,0.0,0.0,0.0,0.0,0.0,0.0,0.0,0.0,0.0,0.0,0.0,0.0,0.0,0.0,0.0,0.0,0.0,0.0,0.0,0.0,0.0,0.0,0.0,0.0,0.0,0.0,0.0,0.0,0.0,0.0,0.0,1.3738,1.434,1.4617,1.4546,1.4187,1.365,1.3006,0.0,0.0,0.0,0.0,0.0,0.0,0.0,0.0,0.0,0.0,0.0,0.0,0.0,0.0,0.0,0.0,0.0,0.0,0.0,0.0,0.0,0.0,0.0,0.0,0.0,0.0,0.0,0.0,0.0,0.0,0.0,0.0,0.0,0.0,0.0,0.0,0.0,0.0,0.0,0.0,0.0,0.0,0.0,0.0,0.0,0.0,0.0,0.0,0.0,0.0,0.0,0.0,0.0,0.0,0.0,0.0,0.0,0.0,0.0,0.0,0.0,0.0,0.0,0.0,0.0,0.0,0.0,0.0,0.0,0.0,0.0,0.932,0.0,0.0,0.0,0.0,0.0,0.0,0.0,0.0,0.0,0.0,0.0,0.0,0.0,0.0,0.0,0.0,0.0,0.0,0.0,0.0,0.0,0.0,0.0,0.0,1.4281,1.4747,1.4232,1.3997,0.0,0.0,0.0,0.0,0.0,0.0,0.0,1.3668,1.4087,1.4354,1.4967,1.5387,1.5587,1.5405,1.5042,1.4542,1.4061,0.0,0.0,0.0,0.0,0.0,0.0,0.0,0.0,0.0,0.0,0.0,0.0,0.0,0.0,0.0,0.0,0.0,0.0,0.0,0.0,0.0,0.0,0.0,0.0,0.0,0.0,0.0,0.0,0.0,0.0,0.0,0.0,0.0,0.0,0.0,0.0,0.0,0.0,0.0,0.0,0.0,0.0,0.0,0.0,0.0,0.0,0.0,0.0,0.0,0.0,0.0,0.0,0.0,0.0,0.0,0.0,0.0,0.0,0.0,0.0,0.0,0.0,0.0,1.1848,1.1927,1.2687,1.2149,1.2104,1.2374,1.1125,1.0578,1.0486,1.014,0.0,0.0,0.0,0.0,0.0,0.0,0.0,0.0,0.0,0.0,0.0,0.0,0.0,0.0,0.0,0.0,0.0,0.0,0.0,0.0,0.0,1.4243,1.4513,1.4707,1.5136,1.5203,0.0,0.0,0.0,0.0,0.0,0.0,1.3674,1.433,1.4918,1.5389,1.5791,1.6093,1.6346,1.6202,1.6375,1.6723,1.5394,1.44,1.3702,0.0,0.0,0.0,0.0,0.0,0.0,0.0,0.0,0.0,0.0,0.0,0.0,0.0,0.0,0.0,0.0,0.0,0.0,0.0,0.0,0.0,0.0,0.0,0.0,0.0,0.0,0.0,0.0,0.0,0.0,0.0,0.0,0.0,0.0,0.0,0.0,0.0,0.0,0.0,0.0,0.0,1.4544,1.5025,0.0,0.0,0.0,0.0,0.0,0.0,0.0,0.0,0.0,0.0,0.0,0.0,0.0,1.2509,1.2554,1.2524,1.2511,1.241,1.2296,1.2254,1.2282,1.2374,1.2347,1.2241,1.2219,0.0,1.1668,1.0431,0.0,0.0,0.0,0.0,0.0,0.0,0.0,0.0,0.0,0.0,0.0,0.0,0.0,0.0,0.0,0.0,0.0,0.0,0.0,0.0,0.0,1.4422,1.4929,1.5291,1.5402,1.5459,1.5409,1.5038,0.0,0.0,0.0,1.416,1.3871,1.4727,1.5569,1.6338,1.6642,1.6867,1.7065,1.7065,1.7186,1.7329,1.6775,1.6015,1.5217,1.5264,0.0,0.0,0.0,0.0,0.0,0.0,0.0,0.0,0.0,0.0,0.0,0.0,0.0,0.0,0.0,0.0,0.0,0.0,0.0,0.0,0.0,0.0,0.0,0.0,0.0,0.0,0.0,0.0,0.0,0.0,0.0,0.0,0.0,0.0,0.0,0.0,0.0,0.0,0.0,1.5012,1.5556,1.563,1.5555,1.5482,0.0,0.0,0.0,0.0,0.0,0.0,0.0,0.0,0.0,1.3238,1.3093,1.3023,1.2989,1.2777,1.2719,1.272,1.2435,1.2373,1.2478,1.2478,1.2578,1.2735,1.2556,1.2434,1.2323,1.1231,1.0994,1.1191,0.0,0.0,0.0,0.0,0.8545,0.8461,0.0,0.0,0.0,0.0,0.0,0.0,0.0,0.0,0.0,0.0,0.0,0.0,1.4111,1.4712,1.5416,1.6231,1.6,1.5931,1.6174,1.5611,0.0,0.0,1.4765,1.4694,1.428,1.5397,1.6399,1.7208,1.7407,1.7666,1.7985,1.7986,1.7997,1.8075,1.8207,1.7656,1.6662,1.6677,1.6158,1.5259,0.0,0.0,0.0,0.0,0.0,0.0,0.0,0.0,0.0,0.0,0.0,0.0,0.0,0.0,0.0,0.0,0.0,0.0,0.0,0.0,0.0,0.0,0.0,0.0,0.0,0.0,0.0,0.0,0.0,0.0,0.0,0.0,0.0,0.0,0.0,0.0,0.0,1.5839,1.6296,1.6138,1.6121,1.6242,0.0,0.0,0.0,0.0,0.0,0.0,1.4571,1.4263,1.4082,1.408,1.3726,1.3528,1.3484,1.3136,1.3055,1.3197,1.2633,1.2543,1.2913,1.2735,1.2935,1.3331,1.2978,1.2835,1.2749,1.1767,1.1383,1.1328,1.0278,0.9902,0.9839,0.9108,0.8791,0.8692,0.0,0.0,0.0,0.0,0.0,0.0,0.0,0.0,0.0,0.0,0.0,1.3888,1.4835,1.5192,1.5978,1.7469,1.7405,1.7201,1.6964,1.6204,1.5711,1.5638,1.5101,1.4958,1.5323,1.6636,1.7546,1.8031,1.8038,1.8497,1.9286,1.8861,1.9005,1.9602,1.9738,1.8978,1.7635,1.7694,1.75,1.708,1.6265,0.0,0.0,0.0,0.0,0.0,0.0,0.0,0.0,0.0,0.0,0.0,0.0,0.0,0.0,0.0,0.0,0.0,0.0,0.0,0.0,0.0,0.0,0.0,0.0,0.0,0.0,0.0,0.0,0.0,0.0,0.0,0.0,0.0,0.0,0.0,0.0,0.0,0.0,1.6891,1.7009,0.0,0.0,0.0,0.0,1.5495,1.531,1.5118,1.4968,1.4763,1.4722,1.4827,1.4458,1.425,1.423,1.3926,1.373,1.373,1.3142,1.3084,1.347,1.3433,1.3557,1.379,1.3941,1.3709,1.3063,1.1621,1.1087,1.1119,1.0181,0.9875,0.9932,0.9462,0.9148,0.8969,0.0,0.0,0.0,0.0,0.0,0.0,0.0,0.0,1.3319,1.3105,1.4103,1.5042,1.5528,1.6198,1.6904,1.7632,1.7517,1.73,1.7023,1.6892,1.6517,1.5807,1.6021,1.6166,1.6165,1.7146,1.7702,1.7774,1.822,1.8649,1.9074,1.9142,1.9384,1.9842,2.0243,2.0114,1.9603,1.9058,1.8403,1.7722,1.7318,1.6701,0.0,0.0,0.0,0.0,0.0,0.0,0.0,0.0,0.0,0.0,0.0,0.0,0.0,0.0,0.0,0.0,0.0,0.0,0.0,0.0,0.0,0.0,0.0,0.0,0.0,0.0,0.0,0.0,0.0,0.0,0.0,0.0,0.0,0.0,0.0,0.0,0.0,1.7582,1.7484,0.0,1.7935,1.7218,1.6623,1.6416,1.6197,1.5978,1.5713,1.5644,1.5494,1.5275,1.5133,1.4812,1.431,1.4194,1.4013,1.3796,1.3724,1.3593,1.3492,1.363,1.3739,1.3797,1.3746,1.3674,1.3528,1.2648,1.1922,1.1256,1.0296,0.9894,0.983,0.944,0.9113,0.8846,0.0,0.0,0.0,0.0,0.0,0.0,0.0,0.0,1.2974,1.3204,1.4262,1.5282,1.6079,1.6912,1.76,1.8096,1.7977,1.7723,1.7372,1.7232,1.6891,1.63,1.6609,1.6749,1.667,1.7399,1.7894,1.8032,1.853,1.8962,1.9321,1.9708,2.0053,2.0334,2.0874,2.1108,2.1077,2.0486,1.9752,1.8969,1.8744,1.8198,1.7413,0.0,0.0,0.0,0.0,0.0,0.0,0.0,0.0,0.0,0.0,0.0,0.0,0.0,0.0,0.0,0.0,0.0,0.0,0.0,0.0,0.0,0.0,0.0,0.0,0.0,0.0,0.0,0.0,0.0,0.0,0.0,0.0,0.0,0.0,1.7759,1.8156,1.8082,1.8104,1.8211,1.8462,1.8042,1.7598,1.721,1.7123,1.6932,1.6595,1.6447,1.6237,1.5991,1.578,1.5461,1.4911,1.4776,1.4597,1.4374,1.431,1.4209,1.4065,1.4013,1.4021,1.4152,1.3855,1.371,1.3659,1.3069,1.2319,1.1469,1.0627,1.018,0.9939,0.9331,0.8896,0.86,0.0,0.0,0.0,0.0,0.0,0.0,0.0,1.2437,1.2576,1.2704,1.3398,1.4612,1.6532,1.7275,1.8016,1.8963,1.89,1.8559,1.8039,1.7179,1.6835,1.7142,1.6792,1.6658,1.6784,1.7447,1.8154,1.8873,1.901,1.9459,2.0094,2.064,2.0959,2.1139,2.1668,2.1894,2.1894,2.1925,2.1566,2.0929,2.0591,2.0158,1.9627,0.0,0.0,0.0,0.0,0.0,0.0,0.0,0.0,0.0,0.0,0.0,0.0,0.0,0.0,0.0,0.0,0.0,0.0,0.0,0.0,0.0,0.0,0.0,0.0,0.0,0.0,0.0,0.0,0.0,0.0,0.0,0.0,0.0,1.7585,1.8059,1.8445,1.8455,1.8883,1.9121,1.8866,1.8941,1.8649,1.7793,1.7945,1.7931,1.7523,1.7116,1.6899,1.689,1.6377,1.6132,1.6079,1.57,1.5532,1.5497,1.4927,1.482,1.5204,1.4589,1.4525,1.4864,1.4353,1.3884,1.347,1.2799,1.231,1.1854,1.1144,1.0708,1.0255,0.9137,0.8534,0.8283,0.0,0.0,0.0,0.0,0.0,0.0,0.0,1.3079,1.3401,1.3287,1.4637,1.6107,1.7437,1.8105,1.8898,1.9999,1.9304,1.8594,1.8109,1.7304,1.6606,1.6074,1.6314,1.6463,1.6512,1.7499,1.807,1.8168,1.8808,1.9401,1.9971,2.0461,2.1026,2.1692,2.1834,2.1968,2.2123,2.2371,2.2427,2.2274,2.156,2.0901,2.0289,0.0,0.0,0.0,0.0,0.0,0.0,0.0,0.0,0.0,0.0,0.0,0.0,0.0,0.0,0.0,0.0,0.0,0.0,0.0,0.0,0.0,0.0,0.0,0.0,0.0,0.0,0.0,0.0,0.0,0.0,0.0,1.7997,1.8491,1.8385,1.8901,1.9344,1.9557,1.9613,1.9667,1.9813,1.9439,1.899,1.8481,1.8222,1.7931,1.7523,1.7254,1.6968,1.6628,1.6674,1.6486,1.6018,1.6226,1.6193,1.5921,1.5461,1.5319,1.539,1.4927,1.4721,1.4677,1.4533,1.4181,1.371,1.3512,1.3085,1.2445,1.1236,1.0712,1.0503,0.9623,0.8937,0.8423,0.0,0.0,0.0,0.0,0.0,0.0,0.0,1.2807,1.294,1.322,1.4273,1.5607,1.7227,1.7887,1.8643,1.9694,1.914,1.8559,1.8162,1.7279,1.6352,1.5424,1.6037,1.6325,1.6149,1.7425,1.7975,1.7744,1.8588,1.916,1.946,2.0326,2.0991,2.145,2.1861,2.2092,2.2228,2.2463,2.28,2.3065,2.2548,2.2048,2.1499,2.1019,2.0419,1.9813,1.9396,1.8893,1.8399,1.817,0.0,0.0,0.0,0.0,0.0,0.0,0.0,0.0,0.0,0.0,0.0,0.0,0.0,0.0,0.0,0.0,0.0,0.0,0.0,0.0,0.0,0.0,0.0,0.0,1.848,1.886,1.9061,1.9445,1.9819,2.0094,2.0142,2.0197,2.0278,2.0099,1.9659,1.8887,1.8676,1.8334,1.7739,1.752,1.7294,1.7015,1.6943,1.6755,1.6517,1.646,1.6473,1.6421,1.5894,1.5647,1.5603,1.5034,1.4685,0.0,1.4173,1.3884,1.3645,1.3309,1.2942,0.0,0.0,0.0,0.0,0.0,0.9109,0.8868,0.0,0.0,0.0,0.0,0.0,0.0,0.0,1.2233,1.1993,1.2769,1.3161,1.4186,1.6367,1.7018,1.7688,1.8675,1.8596,1.8334,1.8,1.7032,1.6065,1.5154,1.5951,1.6224,1.5818,1.7238,1.7838,1.7496,1.8391,1.88,1.8828,2.0116,2.0738,2.0831,2.167,2.2106,2.2185,2.2371,2.2787,2.3343,2.3373,2.321,2.2889,2.2496,2.2053,2.1646,2.1375,2.0809,2.011,1.9631,0.0,0.0,0.0,0.0,0.0,0.0,0.0,0.0,0.0,0.0,0.0,0.0,0.0,0.0,0.0,0.0,0.0,0.0,0.0,0.0,0.0,0.0,0.0,0.0,1.8763,1.9158,1.9552,1.978,2.0039,2.0373,2.06,2.0686,2.0539,2.0737,2.0377,1.9138,1.9147,1.8857,1.8013,0.0,0.0,0.0,0.0,1.7054,1.7204,1.6698,1.6586,1.6874,1.6149,1.5788,1.5736,1.4955,1.4533,1.4361,1.363,1.3346,1.3419,1.2709,1.2292,1.2087,1.1719,1.1139,1.0463,0.9541,0.9306,0.9389,0.0,0.0,0.0,0.0,0.0,0.0,0.0,1.3046,1.2947,1.2691,1.3682,1.4833,1.5942,1.6423,1.717,1.8456,1.8084,1.7447,1.6635,1.6102,1.5585,1.5108,1.5988,1.6286,1.58,1.6884,1.7462,1.7496,1.8051,1.8468,1.872,1.9387,2.007,2.0729,2.1023,2.1459,2.1999,2.2463,2.2769,2.303,2.3283,2.3373,2.3351,2.3649,2.313,2.2185,2.2325,2.1952,2.1265,2.0704,2.0426,2.0164,1.9507,1.9324,0.0,0.0,0.0,0.0,0.0,0.0,0.0,0.0,0.0,0.0,0.0,0.0,0.0,0.0,0.0,0.0,0.0,0.0,0.0,1.9004,1.9372,1.9695,1.9627,1.9878,2.0335,2.1029,2.1012,2.1026,2.1193,2.096,2.037,1.9249,1.8897,1.8465,1.7803,1.7632,1.7436,1.7216,1.7431,1.7417,1.7116,1.7339,1.7157,1.6638,0.0,0.0,1.5532,1.4892,1.4533,1.4397,1.4065,1.3666,1.3236,1.3083,1.2535,1.1758,1.1422,1.0905,1.0383,1.0428,1.0139,0.9686,0.0,0.0,0.0,0.0,0.0,0.0,0.0,1.3161,1.2965,1.233,1.3078,1.3993,1.4903,1.5286,1.5885,1.6961,1.6905,1.6518,1.5834,1.568,1.5479,1.521,1.5988,1.6249,1.5855,1.6873,1.734,1.7234,1.7655,1.8062,1.8462,1.9109,1.9798,2.0576,2.1089,2.1533,2.1925,2.2359,2.2696,2.2939,2.3283,2.3492,2.368,2.3961,2.3586,2.2997,2.3301,2.268,2.1726,2.1706,2.0992,2.0071,2.0028,1.9818,1.9521,0.0,0.0,0.0,0.0,0.0,0.0,0.0,0.0,0.0,0.0,0.0,0.0,0.0,0.0,1.9552,1.9579,0.0,1.9874,1.964,1.9825,1.9922,1.9769,1.9944,2.0314,2.0859,2.1056,2.12,2.1366,2.1087,2.048,1.9621,1.8972,1.8343,1.7735,1.7647,1.7561,1.7398,1.7542,1.7586,1.7552,1.7381,1.721,1.7038,1.6158,1.5594,1.5319,1.4669,1.4245,1.4072,1.3891,1.3739,1.36,1.3105,1.2506,1.1798,1.14,1.0969,1.0586,1.0839,1.0681,1.0238,0.0,0.0,0.0,0.0,0.0,0.0,0.0,1.315,1.2773,1.2093,1.2356,1.2923,1.3686,1.39,1.4244,1.4964,1.5422,1.5511,1.514,1.5355,1.5434,1.5243,1.5945,1.6223,1.5935,1.6833,1.723,1.7095,1.7385,1.7706,1.8105,1.8886,1.959,2.0255,2.1094,2.1592,2.1874,2.2142,2.2482,2.2818,2.3072,2.3373,2.3713,2.3802,2.3712,2.3563,2.3868,2.3067,2.1916,2.222,2.1212,1.9842,2.0148,1.9951,1.9574,1.9434,1.9419,0.0,0.0,0.0,0.0,0.0,0.0,0.0,0.0,1.9419,1.9726,1.9483,1.9818,2.0189,2.0392,2.0392,2.0314,2.0194,2.0139,2.0074,2.0019,2.0063,2.0227,2.0604,2.101,2.124,2.1266,2.1036,2.0541,1.9756,1.9006,1.8343,1.7735,1.7749,1.7758,1.7706,1.7674,1.7787,1.8076,1.7426,1.721,1.7358,1.6237,1.5524,1.5169,1.4489,1.4137,1.4008,1.379,1.3848,1.4083,1.314,1.2482,1.2096,1.1657,1.1266,1.0926,1.1122,1.1028,1.0713,0.0,0.0,0.0,0.0,0.0,0.0,0.0,0.0,1.2905,1.2399,1.255,1.2678,1.2683,1.2548,1.258,1.2901,1.3843,1.4321,1.4089,1.4744,1.5096,1.4949,1.5765,1.6153,1.5997,1.6407,1.689,1.744,1.7468,1.7584,1.7773,1.8408,1.898,1.9538,2.0244,2.0974,2.173,2.1761,2.203,2.2451,2.2371,2.2616,2.306,2.348,2.3483,2.328,2.3419,2.2882,2.2005,2.1515,2.1303,2.1174,2.0573,2.0333,2.0252,2.0131,2.0155,2.0344,2.0713,2.0895,2.1064,2.1334,2.1224,2.1146,0.0,2.1372,2.1285,2.136,2.1521,2.1569,2.1325,2.1274,2.1052,2.0466,2.0215,2.0194,2.0483,2.0181,2.015,2.0806,2.0976,2.097,2.0778,2.0803,2.0325,1.9113,1.8768,1.8343,1.7735,1.7932,1.7935,1.7716,1.8021,1.8215,1.8279,1.8008,1.7588,1.6975,1.6638,1.6044,1.5204,1.474,1.4649,1.4756,1.4433,1.4317,1.4294,1.3527,1.2969,1.2497,1.2294,1.1809,1.1272,1.1466,1.1216,1.0706,0.0,0.0,0.0,0.0,0.0,0.0,0.0,0.0,0.0,0.0,1.2136,1.2152,1.1629,1.1313,1.1456,1.2181,1.2903,1.335,1.3375,1.4456,1.5006,1.4801,1.5461,1.5813,1.5773,1.6168,1.6526,1.6814,1.7003,1.7239,1.7473,1.8005,1.8569,1.9154,1.9924,2.065,2.124,2.1577,2.1987,2.242,2.2543,2.2969,2.3454,2.3315,2.3082,2.2902,2.3308,2.2719,0.0,2.1739,2.1245,2.0619,2.0666,2.0439,2.0114,1.99,2.0226,2.0709,2.1131,2.1632,2.1862,2.123,2.1145,2.1203,2.0949,2.0986,2.1068,2.1206,2.1276,2.1399,2.1757,2.1339,2.1023,2.1085,2.088,2.075,2.075,2.0501,2.0435,2.0839,2.0739,2.0501,2.0296,2.0477,2.0231,1.9356,1.9121,1.8864,1.8475,1.8665,1.8756,1.8634,1.8682,1.874,1.8838,1.8159,1.7579,1.7054,1.6542,1.5912,1.5204,1.5141,1.5177,1.5221,1.4963,1.474,1.4474,1.3749,1.3171,1.2687,1.2472,1.2039,1.149,1.1654,1.1404,1.0902,0.0,0.0,0.0,0.0,0.0,0.0,0.0,0.0,0.0,0.0,1.2066,1.1881,1.1122,1.0945,1.111,1.1709,1.2457,1.2912,1.2942,1.4188,1.48,1.4571,1.5114,1.5421,1.5471,1.5964,1.6282,1.645,1.6778,1.7071,1.7317,1.7776,1.8216,1.8703,1.9535,2.0244,2.0789,2.1225,2.1751,2.2297,2.2574,2.2942,2.3301,2.2994,2.2572,2.2258,2.2746,2.2233,2.1367,2.1562,2.099,2.0284,2.0641,2.0475,2.0131,1.9981,2.0345,2.0885,2.1343,2.1791,2.1946,2.1107,2.1102,2.1161,2.0648,2.0671,2.0865,2.1007,2.106,2.1307,2.187,2.1516,2.1202,2.1431,2.1293,2.1105,2.0929,2.0698,2.0674,2.1007,2.0606,2.0304,2.0241,2.0346,2.0256,1.9882,1.96,1.9341,1.9087,1.9257,1.9368,1.9396,1.9163,1.9088,1.9188,1.8316,1.7716,1.7407,1.6621,1.6053,1.5762,1.585,1.585,1.578,1.5559,1.524,1.4867,1.4167,1.3531,1.2938,1.2729,1.2262,1.1654,1.1716,1.1466,1.1028,0.0,0.0,0.0,0.0,0.0,0.0,0.0,0.0,0.0,0.0,0.0,0.0,0.0,1.1782,1.1803,1.1184,1.2501,1.3236,1.2837,1.3813,1.435,1.4222,1.4674,1.4978,1.5118,1.57,1.6247,1.6782,1.712,1.7278,1.7317,1.7776,1.8013,1.8075,1.8859,1.9682,2.0442,2.0649,2.1186,2.1925,2.2123,2.2086,2.1925,2.2355,2.1939,2.1195,2.1459,2.1275,2.0864,2.0562,2.0599,2.0734,2.0485,2.0485,2.061,2.0733,2.0782,2.0927,2.1456,2.1329,2.114,2.1498,2.1428,2.1302,2.126,2.1221,2.123,2.1376,2.1558,2.1667,2.1714,2.1958,2.1939,2.1215,2.1092,2.1062,2.0918,2.061,2.0653,2.133,2.0786,2.0511,2.075,2.0601,2.0501,2.0471,2.0118,1.9717,1.9307,1.9492,1.9595,1.9578,1.933,1.9196,1.9188,1.86,1.8178,1.7974,1.7028,1.6777,1.7132,1.6934,1.676,1.6533,1.6237,1.5947,1.5692,1.4911,1.4088,1.3357,1.3148,1.2555,1.1771,1.1654,1.1404,1.1028,0.0,0.0,0.0,0.0,0.0,0.0,0.0,0.0,0.0,0.0,0.0,0.0,0.0,0.0,0.0,0.0,1.2324,1.2836,1.2613,1.3658,1.414,1.3823,1.4116,1.4285,1.4244,1.475,1.5205,1.5595,1.6116,1.6582,1.6987,1.7346,1.7581,1.7716,1.8721,1.94,1.9791,2.0525,2.126,2.187,2.1667,2.2311,2.3294,2.2572,2.2428,2.2598,0.0,2.1639,2.0961,2.0848,2.086,2.0885,2.0574,2.0586,2.0795,2.1118,2.087,2.0689,2.1405,2.1565,2.1475,2.1212,2.1241,2.1299,2.103,2.0927,2.0914,2.1051,2.0942,2.101,2.1537,2.1527,2.147,2.1431,2.1838,2.2052,2.1732,2.1835,2.1835,2.1571,2.0949,2.0671,2.1079,2.0541,2.0206,2.0286,2.0185,2.0023,1.9922,2.0251,2.0456,2.046,2.0022,1.9751,1.9666,1.8853,1.8279,1.7974,1.7304,1.7132,1.7392,1.7176,1.7141,1.7141,1.6517,1.6132,1.5921,1.4999,1.4265,1.371,1.3374,1.2688,1.1939,1.1875,1.1553,1.1059,0.0,0.0,0.0,0.0,0.0,0.0,0.0,0.0,0.0,0.0,0.0,0.0,0.0,0.0,0.0,0.0,0.0,1.282,1.2788,1.3582,1.3934,1.3681,1.3928,1.3928,1.3668,1.4272,1.4549,1.4532,1.5141,1.5704,1.6189,1.6496,1.6871,1.7278,1.8275,1.8899,1.919,2.0018,2.0807,2.1554,2.153,2.2277,2.3376,2.2564,2.2493,0.0,2.2666,2.2112,2.1423,2.1253,2.118,2.1122,2.0973,2.1029,2.1185,2.1367,2.1105,2.0822,2.1146,2.131,2.1238,2.0622,2.0504,2.0484,2.0284,2.0081,2.003,2.0376,2.0389,2.0592,2.1436,2.1545,2.1557,2.1765,2.2167,2.2312,2.1992,2.2241,2.2275,2.1941,2.1446,2.1232,2.1444,2.0813,2.0414,2.0622,2.0343,2.0205,2.0205,2.0668,2.0906,2.0906,2.0367,2.0011,1.9805,1.8923,1.8279,1.7813,1.7657,1.7554,1.7505,1.7486,1.7554,1.7642,1.6839,1.6412,1.6202,1.5311,1.454,1.3943,1.3638,1.2953,1.2101,1.1971,1.1646,1.1247,0.0,0.0,0.0,0.0,0.0,0.0,0.0,0.0,0.0,0.0,0.0,0.0,0.0,0.0,0.0,0.0,0.0,0.0,1.332,1.363,1.3792,1.3768,1.4048,1.3941,1.3396,1.4195,1.4302,1.368,1.4262,1.4757,1.5069,1.5334,1.5901,1.6771,1.7501,1.8125,1.8657,1.9169,1.9941,2.0931,2.1557,2.1935,2.2156,2.2253,2.2194,2.2069,2.261,2.2554,2.218,2.1801,2.1536,2.1426,2.1638,2.1717,2.1714,2.1497,2.1382,2.1219,2.0761,2.0585,2.0418,1.9848,1.9376,1.9048,1.9175,1.8868,1.8779,1.9537,1.9955,2.0492,2.1424,2.1928,2.2192,2.2221,2.209,2.1965,2.1817,2.192,2.2147,2.2377,2.2228,2.2009,2.1836,2.1312,2.1094,2.1335,0.0,2.0165,2.0145,2.0599,2.0847,2.0876,2.0337,1.9909,1.9604,1.8844,1.8154,1.7533,1.8052,1.8042,1.7539,1.7837,1.8008,1.7974,1.722,1.6795,1.6577,1.5815,1.4979,1.4098,1.3986,1.3273,1.2282,1.1953,1.1717,1.1551,0.0,0.0,0.0,0.0,0.0,0.0,0.0,0.0,0.0,0.0,0.0,0.0,0.0,0.0,0.0,0.0,0.0,0.0,1.352,1.3696,1.3674,1.3376,1.3795,1.375,1.3128,1.3435,1.3525,1.3394,1.3809,1.4242,1.4727,1.484,1.5178,1.5717,1.6616,1.7244,1.7728,1.8704,1.9579,2.0341,2.0633,2.1456,2.2474,2.2501,2.2883,2.3366,2.3114,2.2906,2.2689,2.2547,2.1938,2.1303,2.1649,2.1576,2.1387,2.1526,2.1036,2.0543,2.0778,2.0339,1.9878,1.9913,1.969,1.9417,1.9369,1.9339,1.9392,1.9714,2.0004,2.0423,2.1211,2.174,2.2128,2.2313,2.299,2.3335,2.3006,2.3455,2.3558,2.2873,2.2451,2.2166,2.1987,2.1094,2.0661,2.0873,2.0328,1.9871,1.9682,1.9931,2.0249,2.0589,1.9991,1.9641,1.9604,1.8775,1.8267,1.8101,1.8223,1.8144,1.7872,1.7974,1.8008,1.7974,1.722,1.6874,1.676,1.6035,1.5234,1.4447,1.422,1.36,1.2736,1.2145,1.1855,1.1689,0.0,0.0,0.0,0.0,0.0,0.0,0.0,0.0,0.0,0.0,0.0,0.0,0.0,0.0,0.0,0.0,0.0,0.0,0.0,1.3784,1.3784,1.3549,1.3848,1.3702,1.3108,1.3228,1.3179,1.2947,1.3148,1.3488,1.404,1.415,1.4573,1.5206,1.6069,1.6601,1.6913,1.7836,1.8614,0.0,0.0,2.1091,2.2474,2.2459,2.3003,2.3714,2.3328,2.3245,2.3312,2.3152,2.2392,2.154,2.1741,2.172,2.1636,2.1638,2.1302,2.0926,2.0855,2.0245,1.9597,1.9385,1.8965,1.8598,1.8569,1.8656,1.8942,1.954,1.9947,2.0414,2.1148,2.1674,2.2056,2.2211,2.2767,2.3228,2.3305,2.3652,2.3737,2.3262,2.2925,2.2546,2.2038,2.1456,2.0948,2.0547,2.0185,1.9864,1.9512,1.9768,2.0014,2.0193,2.0007,1.9829,1.9723,1.8799,1.8329,1.8421,1.8237,1.811,1.8008,1.8008,1.8008,1.7974,0.0,1.7047,1.6874,1.6351,1.5674,1.4982,1.4814,1.4225,1.3341,1.2856,1.2376,1.1851,0.0,0.0,0.0,0.0,0.0,0.0,0.0,0.0,0.0,0.0,0.0,0.0,0.0,0.0,0.0,0.0,0.0,0.0,0.0,0.0,1.3949,1.3927,1.4012,1.3787,1.3266,1.3348,1.3108,1.2505,1.2505,1.271,1.3138,1.3307,1.385,1.4754,1.5408,1.5846,1.6095,1.6749,1.7451,1.8253,1.9405,2.0731,2.2074,0.0,2.2733,2.349,2.3442,2.3558,2.3719,2.346,2.2778,2.1987,2.1897,2.2013,2.2077,2.1739,2.1711,2.1623,2.0771,2.0121,1.9506,1.8771,1.8014,1.7484,1.7668,1.7784,1.8205,1.94,1.9992,2.0586,2.1473,2.1945,2.2189,2.228,2.2373,2.2594,2.3099,2.3179,2.3272,2.352,2.3375,2.2948,2.2193,2.2024,2.1518,2.0398,2.0187,1.994,1.9455,1.9757,1.9829,1.9615,2.0058,2.0099,1.9689,1.8744,1.8373,1.8562,1.8178,1.8008,1.8042,1.8008,1.8008,1.8008,1.7676,0.0,1.6869,1.6733,1.6193,1.5465,1.5551,1.4909,1.3971,1.3743,1.3044,1.2186,0.0,0.0,0.0,0.0,0.0,0.0,0.0,0.0,0.0,0.0,1.2703,1.2644,0.0,0.0,0.0,0.0,0.0,0.0,0.0,0.0,0.0,1.3504,1.4028,1.4093,1.3539,1.3443,1.3108,1.2505,1.2505,1.2435,1.2302,1.2227,1.2588,1.3278,1.3523,1.4053,1.4885,1.5679,1.6746,1.796,1.9161,2.0079,2.081,2.1522,0.0,0.0,2.3766,2.3539,2.2903,2.2843,2.2714,2.2534,2.2346,2.2132,2.1849,2.1355,2.1211,2.1015,2.0003,1.9589,1.9404,1.9202,1.8684,1.832,1.8734,1.8697,1.8967,2.0234,2.0654,2.1332,2.3119,2.3201,2.3196,2.3793,2.3723,2.3445,2.302,2.3409,2.3641,2.3298,2.3128,2.3005,2.2844,2.2302,2.1502,2.0454,2.0327,1.9949,1.922,1.9069,1.8941,1.8747,1.9341,1.9324,1.8582,1.8399,1.8326,1.836,1.811,1.8076,1.8236,1.8076,1.8076,1.8202,1.7701,0.0,1.6844,1.7027,1.6336,1.5223,1.5713,1.534,1.4443,1.4193,1.3761,1.3233,0.0,0.0,0.0,0.0,0.0,0.0,0.0,1.2697,1.2579,1.2407,1.2419,1.2341,1.2016,1.1811,0.0,0.0,0.0,0.0,0.0,0.0,0.0,0.0,0.0,0.0,1.3821,1.3539,1.3324,1.3176,0.0,1.2618,1.2672,1.2372,1.2455,1.2915,1.3066,1.355,1.4288,1.5108,1.5957,1.6896,1.8448,1.9552,2.0342,0.0,0.0,0.0,2.3649,2.3784,2.3595,2.3326,2.3142,2.2938,2.2286,2.225,2.228,2.1524,2.159,2.1669,2.0774,2.0251,1.9942,2.0001,1.9218,1.8531,1.9008,1.9203,1.9616,2.0603,2.127,2.1991,2.3029,2.3222,2.328,2.3563,2.3626,2.3541,2.3309,2.3466,2.349,2.3184,2.2994,2.2849,2.2739,2.1964,2.1223,2.0598,2.0065,1.9548,1.8985,1.8741,1.8718,1.8857,1.8954,1.9068,1.9137,1.8695,1.8497,1.8598,1.8375,1.8212,1.8144,1.8212,1.8212,1.8144,1.7974,0.0,1.7186,1.7391,1.6908,1.6076,1.6253,1.5868,1.518,1.4839,1.438,1.3827,0.0,0.0,0.0,0.0,0.0,0.0,0.0,1.2204,1.2138,1.2138,1.2102,1.1986,1.1763,1.1675,1.1852,0.0,0.0,0.0,0.0,0.0,0.0,0.0,0.0,0.0,1.408,0.0,0.0,1.3763,1.3094,0.0,0.0,0.0,0.0,0.0,1.2973,1.3348,1.3915,1.4617,1.529,0.0,0.0,1.9147,0.0,0.0,0.0,0.0,0.0,2.4075,2.4394,2.3904,2.3708,2.3452,2.2305,2.2315,2.2575,2.1834,2.2073,2.2384,2.1534,2.092,2.053,2.0626,1.9543,1.8674,1.9292,1.9629,2.0089,2.1062,2.1932,2.2624,2.3014,2.3259,2.335,2.3207,2.3321,2.3389,2.3296,2.3325,2.3258,2.296,2.299,2.2878,2.2517,2.1833,2.1263,2.0866,2.0038,1.9326,1.8761,1.8583,1.8642,1.8924,1.8715,1.8883,1.9499,1.8858,1.8566,1.8661,1.853,1.8313,1.8008,1.8313,1.8347,1.811,1.8212,0.0,0.0,1.7687,1.7429,1.6917,1.6784,1.6429,1.5974,1.5551,1.4996,1.4402,0.0,0.0,0.0,0.0,0.0,0.0,0.0,1.1579,1.146,1.1872,1.1763,1.1627,1.1541,1.1686,1.2013,0.0,0.0,0.0,0.0,0.0,0.0,0.0,0.0,0.0,0.0,0.0,0.0,1.3621,1.317,0.0,0.0,0.0,0.0,0.0,0.0,1.29,1.3491,1.4118,0.0,0.0,0.0,0.0,0.0,0.0,0.0,0.0,0.0,2.4366,2.4286,2.3986,2.4101,2.4165,2.2853,2.2276,2.2067,2.2043,2.2205,2.2159,2.101,2.076,2.0796,2.0504,1.9613,1.9126,2.0224,2.0121,2.0296,2.2075,2.2598,2.3145,2.4381,2.4284,2.3962,2.3764,2.3632,2.328,2.235,2.3077,2.3336,2.2466,2.322,2.3415,2.2489,2.2393,2.2099,2.1371,2.074,1.986,1.859,1.8516,1.8367,1.81,1.8373,1.8393,1.8193,1.8281,1.8149,1.7798,1.8144,1.8202,1.8008,1.8202,1.8381,1.8448,1.8144,0.0,0.0,1.7875,1.7605,1.7087,1.712,1.7003,1.6735,1.6202,1.5762,1.5263,0.0,0.0,0.0,0.0,0.0,0.0,1.101,1.0981,1.1019,1.1319,1.1505,1.156,1.1508,1.1497,1.1656,1.207,0.0,0.0,0.0,0.0,0.0,0.0,0.0,0.0,0.0,0.0,1.3687,1.4265,1.3504,0.0,0.0,0.0,0.0,0.0,0.0,1.291,1.3433,1.4082,0.0,0.0,0.0,0.0,0.0,0.0,0.0,0.0,0.0,0.0,2.4333,2.3831,2.3759,2.3727,2.2743,2.227,2.2081,2.2192,2.2504,2.2602,2.1677,2.117,2.0958,2.1256,1.9991,1.9091,2.0562,2.0732,2.092,2.2175,2.3084,2.3856,2.441,2.4334,2.4102,2.3754,2.3412,2.2997,2.2474,2.2592,2.2621,2.2327,2.2573,2.2595,2.214,2.1768,2.1311,2.0844,2.0411,1.9905,1.9374,1.8988,1.8547,1.8018,1.8144,1.8178,1.8178,1.8269,1.8236,1.8056,1.8303,1.8347,1.8202,1.8472,1.8573,1.8482,1.8347,0.0,0.0,1.7933,1.7687,1.7238,1.7324,1.7254,1.7038,1.6691,1.6412,1.6097,0.0,0.0,0.0,0.0,0.0,0.9744,1.0283,1.0244,1.0293,1.0734,1.1008,1.1212,1.1391,1.1236,1.129,1.1665,1.1901,0.0,0.0,0.0,0.0,0.0,0.0,0.0,0.0,0.0,1.3645,1.4648,1.3668,1.3449,0.0,0.0,1.2676,1.2798,0.0,0.0,0.0,0.0,0.0,0.0,0.0,0.0,0.0,0.0,0.0,0.0,0.0,0.0,0.0,0.0,0.0,2.3548,2.2804,2.247,2.2343,2.2223,2.2535,2.2761,2.2064,2.164,2.1493,2.1842,2.0635,1.9796,2.1332,2.157,2.1727,2.2638,2.367,2.4379,2.4321,2.4205,2.3972,2.3386,2.301,2.2659,2.2442,2.2187,2.2134,2.241,2.2281,2.2189,2.2226,2.175,2.1305,2.0933,2.0663,2.0439,2.0198,1.9787,1.9133,1.8213,1.8076,1.811,1.8303,1.8236,1.8202,1.8202,1.8381,1.8347,1.8202,1.8573,1.8603,1.8392,1.8455,0.0,0.0,1.8008,1.7878,1.7524,1.7562,1.7444,1.7252,1.6921,1.6608,1.6303,0.0,0.0,0.0,0.0,0.0,0.0,0.9746,0.9239,0.9177,1.0186,1.0196,1.039,1.1125,1.0903,1.0974,1.1634,1.2126,0.0,0.0,0.0,0.0,0.0,0.0,0.0,0.0,0.0,1.4017,1.4488,1.3634,1.3449,1.3882,1.3214,1.292,1.3007,0.0,0.0,0.0,0.0,0.0,0.0,0.0,0.0,0.0,0.0,0.0,0.0,0.0,0.0,0.0,0.0,0.0,0.0,0.0,2.2998,2.2853,2.2106,2.2209,2.2356,2.17,2.2022,2.2475,2.2083,2.1593,2.1518,2.2782,2.2732,2.2709,2.3855,2.4376,2.4549,2.4334,2.4044,2.3531,2.2743,2.2482,2.2287,2.1945,2.1904,2.2126,2.273,2.2675,2.2709,2.2947,2.2804,2.2494,2.2128,2.209,0.0,2.0944,2.0876,2.0202,1.8652,1.8223,1.811,1.8303,1.811,1.8008,1.8008,1.8202,1.8212,1.8008,1.8347,1.8374,0.0,0.0,0.0,0.0,1.8078,1.8211,1.8078,1.7812,1.7658,1.7517,1.6784,1.6169,1.5697,0.0,0.0,0.0,0.0,0.0,0.0,0.0,0.9188,0.9288,0.9696,0.9922,1.0175,1.0528,1.0615,1.0779,1.1115,1.1374,0.0,0.0,0.0,0.0,0.0,0.0,0.0,0.0,0.0,1.3883,1.4229,1.3634,1.3522,1.3882,1.3366,1.3132,1.3132,1.3132,1.335,0.0,0.0,0.0,0.0,0.0,0.0,2.0268,0.0,0.0,0.0,0.0,0.0,0.0,0.0,0.0,0.0,0.0,0.0,0.0,2.1276,2.1436,2.1901,2.1696,2.1356,2.12,2.1625,2.1147,2.0969,2.2467,2.2757,2.2882,2.3618,2.4011,2.4245,2.4187,2.3704,2.3215,2.2859,2.2372,2.1917,2.1472,2.1291,2.1537,2.241,2.2728,2.2789,2.2617,2.2402,2.2289,2.2289,2.1921,2.1593,2.1308,2.091,2.0066,1.8627,1.8645,1.8483,1.811,1.8042,1.8008,1.8008,1.8202,1.8269,1.8202,1.8414,1.8536,0.0,0.0,0.0,0.0,1.822,1.814,1.7725,1.8115,1.8224,1.8132,1.7484,1.7102,1.6823,0.0,0.0,0.0,0.0,0.0,0.0,0.0,0.8765,0.8837,0.9068,0.9429,0.9837,1.0313,1.0545,1.0856,1.1289,1.1385,0.0,0.0,0.0,0.0,0.0,0.0,0.0,1.3584,1.358,1.3727,1.4018,1.3484,1.342,1.3816,1.3405,1.3242,1.3266,1.3462,1.3665,0.0,0.0,0.0,0.0,0.0,0.0,2.0112,0.0,0.0,0.0,0.0,0.0,0.0,0.0,0.0,0.0,0.0,0.0,0.0,0.0,2.094,2.1322,2.1282,2.1339,2.1447,2.1671,2.1464,2.1554,2.2844,2.3225,2.3428,2.3849,2.4028,2.407,2.3936,2.342,2.2914,2.2647,2.2387,2.2092,2.1745,2.1508,2.1587,2.2084,2.2847,2.3075,2.2478,2.244,2.2402,2.2289,2.1883,2.1578,2.1502,2.1133,2.0423,1.9249,1.9057,1.8795,1.8345,1.812,1.8042,1.811,1.81,1.8158,1.8303,1.8236,1.8281,0.0,0.0,0.0,0.0,1.8253,1.8258,1.7882,1.8334,1.8449,1.8334,1.7878,1.7516,1.7216,0.0,0.0,0.0,0.0,0.0,0.0,0.0,0.8196,0.8112,0.8403,0.8816,0.9432,1.0365,1.0669,1.1113,1.191,0.0,0.0,0.0,0.0,0.0,0.0,0.0,0.0,1.4073,1.3724,1.3667,1.3857,1.3273,1.3229,1.3709,1.3426,1.3347,1.3457,1.394,1.4119,1.4149,1.5181,1.6282,1.7417,1.8131,1.9211,0.0,0.0,0.0,0.0,0.0,0.0,0.0,0.0,0.0,0.0,0.0,0.0,0.0,0.0,0.0,0.0,0.0,2.1732,2.2682,2.2035,2.2295,2.2892,2.3725,2.4038,0.0,2.4423,2.4263,2.3985,2.3616,2.318,2.2726,2.2254,2.2464,2.2606,2.245,2.2285,2.2108,2.1854,2.3036,2.3519,2.259,2.2777,2.274,2.2176,2.1911,2.1731,2.154,2.1512,2.1146,2.0299,1.9531,1.9028,1.8879,1.8345,1.8139,1.8269,1.792,1.792,1.8236,1.7886,1.7773,0.0,0.0,0.0,0.0,1.82,1.8446,1.8391,1.8502,1.8431,1.8228,1.8015,1.7582,1.7111,0.0,0.0,0.0,0.0,0.0,0.0,0.0,0.0,0.0,0.0,0.8936,0.9257,1.0021,1.0478,1.1024,0.0,0.0,0.0,0.0,0.0,0.0,0.0,0.0,0.0,1.4541,1.4935,1.4625,1.3524,1.382,1.3937,1.3856,1.4102,1.4099,1.395,1.4435,1.5135,1.5991,1.6524,1.7544,1.8904,1.9227,1.9769,0.0,0.0,0.0,0.0,2.1463,2.1528,0.0,0.0,0.0,0.0,0.0,0.0,0.0,0.0,2.1642,2.1917,2.1549,0.0,2.1328,2.1666,2.2194,2.2839,0.0,2.4277,2.4536,2.4276,2.4147,2.3927,2.3318,2.2969,2.2782,2.2924,2.2597,2.2151,2.1727,2.197,2.2363,2.2786,2.3483,2.3824,2.3556,2.2927,2.2553,2.2553,2.2111,2.1769,2.1731,2.1731,2.1565,2.1225,2.0558,1.9726,1.8678,1.8675,1.8493,1.8076,1.8236,1.8168,1.7842,1.7896,1.7872,0.0,0.0,0.0,1.7606,1.8086,1.8236,1.823,1.8757,1.8946,1.8835,1.831,1.8051,1.7865,0.0,0.0,0.0,0.0,0.0,0.0,0.0,0.0,0.0,0.0,0.0,0.0,0.0,0.0,0.0,0.0,0.0,0.0,0.0,0.0,0.0,0.0,0.0,1.5575,1.4726,1.5195,1.4857,1.3628,1.4053,1.4156,1.3991,1.4218,1.433,1.4353,1.5103,1.5915,1.6708,1.7176,1.774,1.8338,1.8711,0.0,0.0,0.0,0.0,0.0,2.0396,2.0679,0.0,2.1656,2.1743,2.1749,0.0,0.0,0.0,0.0,2.1525,2.1642,2.1693,2.1773,2.1891,2.2128,2.255,2.3079,2.3823,2.4292,2.4536,2.445,2.4247,2.3956,2.3437,2.303,2.2837,2.2934,2.2997,2.2965,2.2834,2.3004,2.3171,2.3347,2.3545,2.3677,2.3751,2.3113,2.2628,2.2553,2.2176,2.1883,2.1807,2.1497,2.1309,2.1196,2.0518,1.9889,1.9328,1.8935,1.8586,1.8256,1.8188,1.8022,1.7828,1.7691,1.7647,0.0,0.0,0.0,1.765,1.7793,1.7996,1.8339,1.8772,1.8975,1.8944,1.8707,1.8484,1.8289,0.0,0.0,0.0,0.0,0.0,0.0,0.0,0.0,0.0,0.0,0.0,0.0,0.0,0.0,0.0,0.0,0.0,0.0,0.0,0.0,0.0,0.0,1.5416,1.5584,1.4828,1.5153,1.4888,1.3967,1.4225,1.4307,1.4202,1.427,1.4488,1.4851,1.5726,1.6389,1.691,1.7414,1.748,1.7273,1.7751,0.0,0.0,0.0,0.0,0.0,0.0,0.0,0.0,2.102,2.1349,2.1685,2.2209,0.0,0.0,0.0,0.0,0.0,2.1523,2.2456,2.3218,2.2935,2.3036,2.339,2.3956,2.4205,2.4379,2.4607,2.4347,2.3969,2.3539,2.315,2.288,2.2868,2.3426,2.4,2.4425,2.4171,2.3879,2.3776,2.3482,2.3372,2.3593,2.3224,2.2815,2.244,2.2214,2.1987,2.1807,2.1247,2.0931,2.0893,2.0216,2.0011,2.0311,1.92,1.8603,1.85,1.8027,1.7852,1.794,1.7476,1.7407,1.7584,0.0,0.0,1.7609,1.742,1.7807,1.8482,1.8674,1.8774,1.8808,1.9042,1.8875,1.8583,0.0,0.0,0.0,0.0,0.0,0.0,0.0,0.0,0.0,0.0,0.0,0.0,0.0,0.0,0.0,0.0,0.0,0.0,0.0,0.0,0.0,1.4727,1.5855,1.6112,1.5317,1.572,1.5391,1.4255,1.489,1.5001,1.4612,1.5011,1.5368,1.5693,1.5759,1.6331,1.7238,1.7315,1.7705,1.8261,1.8198,0.0,0.0,0.0,0.0,0.0,0.0,0.0,0.0,2.0687,2.0754,2.0938,2.2367,0.0,0.0,0.0,0.0,0.0,2.1537,2.255,2.3546,2.3231,2.3311,2.3578,2.4008,2.4195,2.4247,2.4083,2.3966,2.37,2.2982,2.2769,2.2911,2.3449,2.3427,2.3595,2.4373,2.3405,2.3086,2.4443,2.3824,2.3372,2.3593,2.3075,2.2665,2.2402,2.2214,2.1987,2.1807,2.1697,2.159,2.14,2.111,2.0891,2.0797,1.9502,1.8586,1.8105,1.8163,1.8056,1.775,1.7672,1.7501,1.7242,0.0,1.6962,1.7267,1.7197,1.7607,1.8347,1.8482,1.865,1.8808,1.9042,1.8942,1.8774,0.0,0.0,0.0,0.0,0.0,0.0,0.0,0.0,0.0,0.0,0.0,0.0,0.0,0.0,0.0,0.0,0.0,0.0,0.0,0.0,1.457,1.5161,1.5907,1.6125,1.5687,1.5936,1.5739,1.5002,1.5206,1.5303,1.5293,1.5566,1.5846,1.6183,1.6722,1.6979,1.7053,1.7501,1.7603,1.7456,0.0,0.0,0.0,0.0,0.0,0.0,0.0,0.0,0.0,0.0,2.024,2.0153,2.1964,0.0,0.0,0.0,0.0,0.0,2.1983,2.2604,2.3213,2.3695,2.3751,2.3785,2.4137,2.4044,2.3956,2.4086,2.407,2.3865,2.3433,2.345,2.3529,2.3592,2.3535,2.3501,2.3618,2.3364,2.3371,2.3911,2.3494,2.3224,2.3409,2.3075,2.274,2.244,2.2327,2.2138,2.1807,2.1569,2.1322,2.1135,2.0734,2.0389,2.0212,1.9242,1.8723,1.8691,1.8336,1.8032,1.7862,1.774,1.7579,1.7329,0.0,1.6904,1.7192,1.7166,1.7552,1.8163,1.8547,1.8624,1.8539,1.864,1.8707,1.8808,0.0,0.0,0.0,0.0,0.0,0.0,0.0,0.0,0.0,0.0,0.0,0.0,0.0,0.0,0.0,0.0,0.0,0.0,0.0,1.3837,1.4562,1.5413,1.5879,1.6036,1.5908,1.6099,1.5984,1.5555,1.542,1.5445,1.5616,1.5851,1.6043,1.629,1.7362,1.7446,1.6804,1.7387,1.7231,1.657,0.0,0.0,0.0,0.0,0.0,0.0,0.0,0.0,0.0,0.0,0.0,0.0,0.0,0.0,0.0,2.1476,2.1444,2.1353,2.2034,2.2337,2.2666,2.3616,2.389,2.3936,2.4173,2.3881,2.3645,2.3943,2.406,2.4046,2.3773,2.4077,2.4201,2.3721,2.3779,2.3721,2.3283,2.3467,2.3593,2.3409,2.3113,2.3001,2.315,2.3001,2.2777,2.2365,2.2365,2.2214,2.1807,2.1466,2.1168,2.0907,2.0444,2.0089,1.9831,1.9232,1.8968,1.9131,1.8369,1.8008,1.7974,1.7852,1.7657,1.7486,1.7028,1.6921,1.7141,1.7141,1.7451,1.7969,1.8414,1.8473,1.8303,1.8337,1.8539,1.8808,0.0,0.0,0.0,0.0,0.0,0.0,0.0,0.0,0.0,0.0,0.0,0.0,0.0,0.0,0.0,0.0,0.0,0.0,0.0,1.3732,1.4535,1.5292,1.5822,1.6036,1.5909,1.6276,1.6128,1.541,1.565,1.5519,1.5086,1.576,1.596,1.5818,1.687,1.7082,1.6609,1.655,1.654,1.657,1.6257,0.0,0.0,0.0,0.0,0.0,0.0,0.0,0.0,0.0,0.0,0.0,0.0,0.0,2.0799,2.1356,2.1174,2.0891,2.1129,2.1581,2.2034,2.2425,2.323,2.392,2.392,2.3671,2.336,2.3228,2.3735,2.4009,2.3384,2.4067,2.4626,2.4206,2.4308,2.4361,2.4143,2.3508,2.3187,2.3519,2.3075,2.274,2.274,2.274,2.2553,2.2138,2.2289,2.2214,2.1807,2.1776,2.1565,2.1193,2.1125,2.0913,2.0517,2.0039,1.9407,1.8646,1.8223,1.8008,1.8008,1.7974,1.7803,1.7505,1.7432,1.7226,1.6908,1.6908,1.7245,1.7716,1.7627,1.7901,1.8303,1.8448,1.8617,1.8841,0.0,0.0,0.0,0.0,0.0,0.0,0.0,0.0,0.0,0.0,0.0,0.0,0.0,0.0,0.0,0.0,0.0,0.0,0.0,1.3903,1.4517,1.5509,1.5746,1.5865,1.5902,1.6346,1.6477,1.6333,1.6524,1.6169,1.5389,1.5966,1.6079,1.5846,1.6652,1.6817,1.6498,1.6703,1.6709,1.657,1.6353,1.6392,0.0,0.0,0.0,0.0,0.0,0.0,0.0,0.0,1.8976,1.9017,1.993,2.0352,2.0545,2.0803,2.0911,2.102,2.1537,2.1665,2.1868,2.278,2.322,2.3539,2.4077,2.3795,2.3503,2.3904,2.3941,2.4035,2.4448,2.4747,2.4813,2.4566,2.4474,2.42,2.3564,2.3298,2.315,2.3038,2.2852,2.2665,2.2515,2.2628,2.259,2.2327,2.2365,2.2289,2.1997,2.1883,2.1617,2.1205,2.1205,2.1012,2.0605,2.0127,1.9619,1.9043,1.8568,1.8227,1.8008,1.8008,1.7862,1.7623,1.7623,1.7545,1.7426,1.7596,1.7758,1.7862,1.7691,1.7828,1.8144,1.8303,1.8472,1.864,0.0,0.0,0.0,0.0,0.0,0.0,0.0,0.0,0.0,0.0,0.0,0.0,0.0,0.0,0.0,0.0,0.0,0.0,1.3385,1.3742,1.4336,1.532,1.5506,1.5691,1.5902,1.6405,1.6698,1.6784,1.6711,1.6294,1.5555,1.5973,1.5979,1.5643,1.6287,1.6435,1.6194,1.6461,1.6526,1.6428,1.6335,1.6392,0.0,0.0,0.0,0.0,0.0,0.0,0.0,0.0,1.8451,1.8391,1.9125,1.9721,2.0204,2.0268,2.0499,2.0876,2.1601,2.1621,2.1745,2.2846,2.321,2.3441,2.4033,2.3874,2.3701,2.4094,2.4166,2.4443,2.5416,2.5407,2.5157,2.4933,2.4736,2.433,2.359,2.3404,2.323,2.2967,2.2714,2.2515,2.2327,2.2478,2.2515,2.2214,2.2214,2.2138,0.0,2.1769,2.1464,2.1205,2.1128,2.0935,2.0605,2.0273,1.9806,1.9214,1.8877,1.8484,1.8008,1.8008,1.7896,1.7706,1.7706,1.7672,1.7642,1.7834,1.789,1.7837,1.7794,1.7852,1.793,1.8236,1.8414,1.8549,0.0,0.0,0.0,0.0,0.0,0.0,0.0,0.0,0.0,0.0,0.0,0.0,0.0,0.0,0.0,0.0,0.0,0.0,1.2245,1.3172,1.3973,1.457,1.5099,1.5555,1.5902,1.6494,1.6708,1.6507,1.6054,1.5678,1.5423,1.576,1.557,1.5048,1.5759,1.595,1.5701,1.5711,1.5875,1.6114,1.6114,1.621,1.6413,0.0,0.0,0.0,0.0,0.0,0.0,0.0,1.8323,1.8948,1.8661,1.9085,1.9715,1.9769,1.9927,2.0245,2.1071,2.1333,2.1571,2.2297,2.3108,2.3685,2.3685,2.3867,2.391,2.3596,2.4362,2.5362,2.6141,2.6032,2.5706,2.537,2.5138,2.4876,2.4566,2.3866,2.3386,2.3386,2.2804,2.2327,2.2101,2.2289,2.2214,2.1845,2.1818,0.0,0.0,2.1436,2.1215,2.1205,2.0984,2.0819,2.0605,2.0605,2.0061,1.9014,1.9014,1.8634,1.8008,1.8008,1.7896,1.7706,1.7706,1.7613,1.7505,1.7505,1.7505,1.7539,1.7872,1.7896,1.7774,1.8303,1.8516,1.8549,0.0,0.0,0.0,0.0,0.0,0.0,0.0,0.0,0.0,0.0,0.0,0.0,0.0,0.0,0.0,0.0,0.0,0.0,1.2654,1.315,1.3784,1.4647,1.4953,1.5254,1.5526,1.6375,1.6789,1.6794,1.6679,1.6274,1.5555,1.6026,1.59,1.5313,1.5854,1.6052,1.599,1.6039,1.6146,1.6306,1.6153,1.6337,1.6661,0.0,0.0,0.0,0.0,0.0,0.0,0.0,0.0,0.0,1.779,1.8135,1.8561,1.8914,1.9142,1.9442,2.0351,2.0781,2.1127,2.1726,2.2455,2.2911,2.2707,2.364,2.4586,2.4731,2.5477,2.6035,2.5889,2.5987,2.5957,2.5645,2.5176,2.4802,2.4743,2.3971,2.3348,2.3193,2.2728,2.2365,2.2327,2.2252,2.2351,2.2689,2.2594,0.0,0.0,2.206,2.1605,2.0994,2.0945,2.0819,2.0605,2.0605,2.0283,1.9615,1.9475,1.8831,1.7784,1.7784,1.7828,1.7896,1.7896,1.7906,1.7872,1.8008,1.7974,1.7872,1.811,1.81,1.793,1.8236,1.8506,1.8741,0.0,0.0,0.0,0.0,0.0,0.0,0.0,0.0,0.0,0.0,1.058,1.0457,0.0,0.0,0.0,0.0,0.0,0.0,0.0,1.3004,1.3598,1.4232,1.4729,1.5167,1.5517,1.6175,1.6566,1.6688,1.6716,1.6421,1.5892,1.6059,1.5927,1.5495,1.5886,1.6019,1.5989,1.6007,1.6158,1.6331,1.6109,1.6283,1.6627,0.0,0.0,0.0,0.0,0.0,0.0,0.0,0.0,0.0,1.7312,1.7453,1.7654,1.8272,1.8771,1.9321,2.0191,2.0887,2.1456,2.1831,2.2408,2.2983,2.3296,2.4013,2.4805,2.5598,2.6102,2.6317,2.5953,2.6007,2.605,2.581,2.5396,2.5042,2.4859,2.4181,2.3605,2.3306,2.302,2.2812,2.2745,2.2579,2.2694,2.3106,0.0,0.0,0.0,2.2067,2.155,2.1032,2.079,2.0586,2.0489,2.0372,2.012,1.9658,1.9468,1.8908,1.8101,1.7973,1.7889,1.7803,1.7862,1.7964,1.8144,1.8236,1.8269,1.8212,1.8269,1.8269,1.8212,1.8337,1.8607,1.8908,0.0,0.0,0.0,0.0,0.0,0.0,0.0,0.0,0.0,0.0,1.1215,1.0919,0.0,0.0,0.0,0.0,0.0,0.0,0.0,1.2782,1.3377,1.3643,1.452,1.5235,1.5682,1.5941,1.621,1.6431,1.6365,1.6307,1.6317,1.6022,1.5846,1.574,1.5985,1.6043,1.5946,1.5884,1.607,1.6336,1.6078,1.6187,1.6487,1.6077,0.0,0.0,0.0,0.0,0.0,0.0,0.0,0.0,1.7071,1.6987,1.692,1.7755,1.8635,1.951,2.0289,2.126,2.2084,2.2274,2.2754,2.349,2.4725,2.4648,2.4723,2.6205,2.6374,2.6238,2.6103,2.5986,2.5878,2.5729,2.5566,2.5301,2.4902,2.4446,2.4,2.3582,2.3487,2.3426,2.3265,2.3174,2.3143,0.0,0.0,0.0,0.0,2.175,2.1253,2.1237,2.0635,2.0303,2.0264,2.0069,1.9713,0.0,1.9144,1.892,1.8693,1.8466,1.8056,1.7596,1.7705,1.7949,1.8303,1.8303,1.8371,1.8482,1.8371,1.8405,1.8516,1.8516,1.8774,1.9108,0.0,0.0,0.0,0.0,0.0,0.0,0.0,0.0,0.0,0.0,0.0,0.0,0.0,0.0,0.0,0.0,0.0,0.0,0.0,1.2794,1.3429,1.3889,1.4717,1.5332,1.5701,1.5941,1.6285,1.6705,1.6496,1.6402,1.6447,1.6592,1.6675,1.6691,1.6695,1.6825,1.6951,1.6519,1.6555,1.6822,1.6609,1.6576,1.6605,1.6316,1.6228,0.0,0.0,0.0,0.0,0.0,0.0,0.0,1.6438,1.6506,1.6563,1.7106,1.7651,1.8328,1.9355,2.0201,2.0943,2.1601,2.2425,2.3244,2.4037,2.4347,2.4849,2.6211,2.628,2.591,2.5424,2.5256,2.5054,2.4588,2.4328,2.4262,2.4539,2.417,2.387,2.3825,2.3616,2.3467,2.3426,2.3265,2.341,0.0,0.0,0.0,2.3278,2.245,2.1858,2.1521,2.086,2.0372,1.9981,2.0147,1.9904,0.0,1.9418,1.9214,1.872,1.8638,1.8512,1.8366,1.8225,1.8207,1.8303,1.8303,1.8371,1.8516,1.864,1.8607,1.8516,1.8674,1.8875,1.9075,0.0,0.0,0.0,0.0,0.0,0.0,0.0,0.0,0.0,0.0,0.0,0.0,0.0,0.0,0.0,0.0,0.0,0.0,0.0,0.0,1.3506,1.4222,1.4784,1.5215,1.5449,1.5817,1.6192,1.662,1.6534,1.6676,1.7032,1.6997,1.7171,1.7475,1.7496,1.7379,1.7189,1.6793,1.6802,1.7034,1.6775,1.6824,1.7002,1.6615,1.6403,1.6287,1.6227,0.0,0.0,0.0,0.0,0.0,0.0,0.0,1.6353,1.6976,1.755,1.8244,1.9332,2.0088,2.0748,2.1542,2.2303,2.3047,2.3682,2.3977,2.4421,2.5437,2.5541,2.5392,2.5097,2.4881,2.4651,2.4346,2.429,2.4239,2.419,2.436,2.4364,2.4075,2.422,2.4281,2.4199,2.3961,0.0,0.0,0.0,2.3571,2.3351,2.2695,2.2069,2.144,2.0879,2.0372,1.9902,1.9951,1.9794,1.9429,1.9429,1.9328,1.9106,1.8714,1.8651,1.8766,1.8501,1.8455,1.8557,1.8393,1.8438,1.864,1.865,1.8707,1.8774,1.8808,1.8975,1.9175,0.0,0.0,0.0,0.0,0.0,0.0,0.0,0.0,0.0,0.0,0.0,0.0,0.0,0.0,0.0,0.0,0.0,0.0,0.0,0.0,0.0,1.443,1.4813,1.5068,1.5215,1.5653,1.6058,1.6413,1.655,1.7033,1.779,1.7402,1.7599,1.8183,1.8171,1.7859,1.7278,1.7121,1.7106,1.7234,1.6993,1.7129,1.7376,1.6982,1.6635,1.6365,1.6395,1.6337,1.6222,1.6045,0.0,0.0,0.0,0.0,1.6228,1.6987,1.7625,1.8349,1.9385,2.015,2.0876,2.1608,2.2293,2.2924,2.3389,2.3648,2.3932,2.4411,2.4667,2.4789,2.4774,2.4553,2.4334,2.4246,2.4447,2.443,2.39,2.4592,2.4924,2.443,2.4777,2.4999,2.483,2.4555,0.0,0.0,0.0,2.3593,2.3306,2.2737,2.211,2.1462,2.0926,2.0411,1.9902,1.9715,1.9529,1.9298,1.9136,1.9178,1.9364,1.8789,1.8738,1.9012,1.8598,1.8568,1.8765,1.8384,1.8438,1.8707,1.8549,1.8707,1.8975,1.8875,1.9042,1.9285,0.0,0.0,0.0,0.0,0.0,0.0,0.0,0.0,0.0,0.0,1.2934,1.2674,0.0,0.0,0.0,0.0,0.0,0.0,0.0,0.0,0.0,1.4297,1.4764,1.5068,1.5215,1.5653,1.6058,1.6413,1.6639,1.7369,1.8535,1.8082,1.824,1.8877,1.8697,1.8459,1.8126,1.7986,1.7916,1.7886,1.7828,1.7656,1.7373,1.7314,1.7021,1.6672,1.685,1.6914,1.6795,1.6386,1.6257,0.0,0.0,0.0,1.6171,1.6581,1.7047,1.7616,1.8463,1.9659,2.0784,2.1189,2.2229,2.3048,2.2716,2.3409,2.4024,2.3742,2.4048,2.4269,2.3862,2.3813,2.3651,2.3274,2.3564,2.3894,2.4054,2.4508,2.4918,2.5062,2.4775,2.4584,2.4543,2.4172,0.0,0.0,2.3634,2.3531,2.3708,2.2711,2.2206,2.2329,2.1367,2.0547,1.9902,1.9863,1.9254,1.803,1.8013,1.819,1.8564,1.8923,1.9122,1.9139,1.8757,1.8497,1.8349,1.8129,1.8178,1.8371,1.8482,1.8516,1.8617,1.8942,1.9108,1.9142,0.0,0.0,0.0,0.0,0.0,0.0,0.0,0.0,0.0,0.0,0.0,1.3114,0.0,0.0,0.0,0.0,0.0,0.0,0.0,0.0,0.0,1.4109,1.4577,1.4902,1.5098,1.5624,1.5972,1.6116,1.676,1.7513,1.8375,1.866,1.8974,1.9313,1.9126,1.8655,1.8033,1.8187,1.8057,1.7764,1.8064,1.7978,1.7734,1.7734,1.7471,1.709,1.7048,1.702,1.6941,1.664,1.6643,1.6727,1.6317,0.0,0.0,0.0,1.6733,1.7262,1.832,1.964,2.0784,2.1138,2.1716,2.2162,2.2068,2.2491,2.2818,2.2557,2.2687,2.2975,2.3426,2.3286,2.3102,2.3034,2.3656,2.4048,2.3748,2.4681,2.5297,2.5015,2.4925,2.4848,2.4673,2.4255,0.0,0.0,2.3577,2.3461,2.3395,2.2712,2.2249,2.2118,2.1422,2.078,2.0137,1.9872,1.9196,1.8145,1.8152,1.8221,1.8406,1.9095,1.934,1.9202,1.9006,1.8815,1.8606,1.83,1.8269,1.8405,1.8371,1.8573,1.8875,1.9031,1.9142,1.9241,0.0,0.0,0.0,0.0,0.0,0.0,0.0,0.0,0.0,0.0,0.0,0.0,0.0,0.0,0.0,0.0,0.0,0.0,0.0,0.0,0.0,1.4079,1.4517,1.4843,1.5,1.5595,1.5914,1.5933,1.7021,1.7759,1.8252,1.9154,1.9666,1.9819,1.9631,1.9023,1.8203,1.8572,1.8436,1.8046,1.8399,1.8447,1.833,1.827,1.7974,1.7581,1.7509,1.7402,1.7252,1.7038,1.7105,1.7241,1.6838,1.684,0.0,0.0,0.0,1.7158,1.8278,1.9357,2.0251,2.068,2.1115,2.1399,2.1358,2.171,2.1971,2.1724,2.1749,2.2094,2.2987,2.2837,2.2671,2.2977,2.3616,2.3928,2.3602,2.4754,2.5441,2.49,2.5007,2.5044,2.4861,2.4316,0.0,0.0,2.3506,2.3228,2.2956,2.2625,2.2275,2.1818,2.1397,2.0896,2.0186,1.9534,1.8932,1.8301,1.8267,1.8238,1.8234,1.8945,1.917,1.9033,1.9199,1.9178,1.8954,1.8482,1.8337,1.8381,1.8303,1.8573,1.8942,1.8998,1.9142,1.9318,0.0,0.0,0.0,0.0,0.0,0.0,0.0,0.0,0.0,0.0,0.0,0.0,1.3493,1.3831,1.3908,1.3515,1.3359,0.0,0.0,0.0,0.0,1.4267,1.4734,0.0,1.5,1.5595,1.5961,1.6085,1.7462,1.829,1.8605,1.9546,2.0149,2.0439,2.0323,1.9878,1.9251,1.9446,1.9517,1.9472,1.9311,1.9238,1.9219,1.901,1.8569,1.8102,1.8483,1.8387,1.7995,1.7743,1.7653,1.76,1.7113,1.7004,1.7056,0.0,0.0,0.0,1.8052,1.8405,1.8801,1.9497,2.0539,2.1218,2.051,2.1448,2.2283,2.1731,2.1855,2.2155,2.2397,2.2273,2.2324,2.2998,2.296,2.3139,2.396,2.4597,2.4981,2.4993,2.5004,2.4981,2.4888,0.0,0.0,0.0,2.3152,2.2842,2.2445,2.2407,2.2208,2.1807,2.1397,2.077,1.9942,1.877,1.8159,1.8118,1.7924,1.78,1.7739,1.8159,1.8441,1.8572,1.9215,1.9387,1.9148,1.8526,1.8202,1.8042,1.8245,1.8371,1.8549,1.8751,1.9008,1.9285,0.0,0.0,0.0,0.0,0.0,0.0,0.0,0.0,0.0,0.0,0.0,0.0,0.0,1.4056,1.4258,1.3856,1.37,0.0,0.0,0.0,0.0,1.4297,1.4636,1.4902,1.5127,1.5653,1.6029,1.6278,1.7554,1.8244,1.8373,1.9589,2.0142,2.018,2.0058,1.9908,1.9698,1.9773,1.9631,1.9408,1.9333,1.9208,1.9078,1.8867,1.8636,1.8444,1.8623,1.8644,1.8652,1.885,1.8909,1.8842,1.8368,1.8109,1.7868,1.7424,1.7605,1.7989,1.8123,1.828,1.8533,1.9027,1.9356,1.9579,1.9699,2.0266,2.0822,2.0976,2.0923,2.103,2.1694,2.2063,2.2418,2.2778,2.3412,2.3777,2.3438,2.4594,2.5241,2.4614,2.477,2.493,2.4886,0.0,0.0,0.0,0.0,2.3038,2.315,2.2553,2.2214,2.2176,2.154,2.0741,1.9715,1.877,1.8217,1.8081,1.7897,1.7753,1.7716,1.8281,1.8706,1.8992,1.9351,1.9225,1.8767,1.899,1.8767,1.8347,1.8414,1.8617,1.8875,1.8975,1.9208,1.9483,0.0,0.0,0.0,0.0,0.0,0.0,0.0,0.0,0.0,1.4281,0.0,0.0,0.0,0.0,1.4733,1.4332,1.409,1.395,1.3959,1.3959,1.4079,1.4366,1.4636,1.4931,1.5186,1.5701,1.6134,1.6477,1.7743,1.8403,1.8497,1.963,2.0215,2.0236,1.9853,1.9699,1.9688,1.9792,1.9736,1.9535,1.9602,1.9688,1.9687,1.9345,1.908,1.8979,1.9137,1.9143,1.9111,1.9541,1.9686,1.9621,1.9132,1.8738,1.8298,1.7568,1.7607,1.794,1.7997,1.8029,1.8102,1.849,1.8617,1.867,1.8998,1.9389,1.9833,2.0333,2.036,2.049,2.1241,2.1817,2.2305,2.2577,2.3167,2.35,2.328,2.4393,2.5015,2.4536,2.4832,2.5066,2.504,0.0,0.0,0.0,0.0,0.0,2.3298,2.259,2.2176,2.2101,2.1223,2.042,1.9715,1.8976,1.8531,1.8386,1.821,1.8076,1.7996,1.8334,1.8646,1.8968,1.9257,1.918,1.8849,1.9137,1.8947,1.8516,1.8516,1.8707,1.9008,1.9008,1.9241,1.9572,0.0,0.0,0.0,0.0,0.0,0.0,0.0,0.0,1.5564,1.5679,0.0,0.0,0.0,0.0,0.0,1.4943,1.4502,1.4255,1.4315,1.4315,1.4375,1.4533,0.0,0.0,1.5215,1.5807,1.6257,1.6609,1.8,1.8797,1.901,1.9732,2.0336,2.0739,1.9668,1.9222,1.9277,1.9569,1.981,2.001,2.0236,2.0662,2.1129,2.0464,2.0009,1.9711,2.0111,1.9858,1.945,1.982,1.9961,1.9879,1.9373,1.8784,1.8224,1.7754,1.7338,1.7173,0.0,0.0,0.0,1.7841,1.8342,1.8667,1.8422,1.892,1.9524,1.9813,2.0266,2.069,2.1014,2.1449,2.1932,2.2366,2.2097,2.2279,2.3492,2.3875,2.4191,2.474,2.5213,2.5453,2.5324,0.0,0.0,0.0,2.3641,2.315,2.274,2.2515,2.2101,2.1512,2.045,1.9902,1.9902,1.9311,1.8991,1.9002,1.8798,1.8674,1.8588,1.8169,1.8178,1.8536,1.8978,1.9308,1.9441,1.9002,1.8684,1.8516,1.8516,1.865,1.8808,1.8808,1.9142,1.9572,0.0,0.0,0.0,0.0,0.0,0.0,1.6566,1.6291,1.6005,0.0,0.0,0.0,1.5746,1.5817,1.5638,1.5108,1.5101,1.5011,1.474,1.4722,1.4845,1.5059,1.5021,1.5176,1.5566,1.5923,1.6314,1.6751,1.7723,1.8467,1.901,1.9528,1.9941,2.0238,1.9163,1.8644,1.8636,1.9391,1.9956,2.0385,2.0469,2.0814,2.1177,2.097,2.0838,2.0824,2.1269,2.1278,2.1184,2.162,2.16,2.1131,1.9876,1.9024,1.8351,1.7996,1.7911,1.7942,1.7971,0.0,0.0,0.0,0.0,0.0,1.7584,1.7912,1.8276,1.9153,1.9613,2.0032,2.0582,2.0781,2.0876,2.0958,2.1952,2.2811,2.2967,2.3693,2.4303,2.4561,2.4956,2.5302,0.0,0.0,0.0,0.0,2.3824,2.3261,2.315,2.2515,2.1949,2.1502,2.0595,2.0206,2.0411,1.9618,1.9226,1.9212,1.8863,1.8592,1.8386,1.7987,1.8066,1.8526,1.8646,1.89,1.9215,1.9455,1.9206,1.8741,1.8875,1.8975,1.9008,1.9008,1.9175,1.9417,0.0,0.0,0.0,0.0,0.0,1.6848,1.7145,1.7015,1.6797,0.0,0.0,0.0,1.6623,1.6547,1.6284,1.589,1.5886,1.5779,1.5444,1.5435,1.5455,1.5503,1.5479,1.5586,1.5875,1.6153,1.6485,1.6881,1.7755,1.8511,1.91,1.9518,1.9849,2.0074,1.9077,1.8529,1.8417,1.9127,1.9717,2.0213,2.0585,2.1017,2.1451,2.1581,2.1575,2.1562,2.2097,2.2257,2.2321,2.2666,2.2633,2.2257,2.105,2.018,1.9519,1.9039,1.8694,1.8411,1.8336,1.7765,1.7238,1.7245,0.0,0.0,1.7054,1.7278,1.7583,1.8266,1.8754,1.9216,1.9589,1.9821,1.9945,1.9864,2.0749,2.158,2.199,2.3102,2.3913,2.4057,2.4295,2.4626,0.0,2.4424,2.4078,2.4406,2.3714,2.3187,2.2927,2.2402,2.1921,2.1502,2.0828,2.0518,2.0605,2.0089,1.9896,1.9956,1.9487,1.9223,1.9075,1.8375,1.8269,1.8617,1.8549,1.8741,1.9129,1.9466,1.9357,1.9008,1.9142,1.9175,1.9175,1.9175,1.9274,1.945,0.0,0.0,0.0,1.7431,1.7159,1.7111,1.7972,1.7964,1.775,0.0,1.7629,1.7681,1.7529,1.7322,1.7115,1.6954,1.6714,1.6485,1.6322,1.6258,1.616,1.5994,1.6052,1.6178,1.6296,1.6532,1.6846,1.7173,1.8105,1.8805,1.925,1.9697,1.9955,2.0009,1.9164,1.8704,1.8612,1.8909,1.9338,1.9907,2.065,2.1339,2.1899,2.2233,2.2249,2.2205,2.278,2.3069,2.3165,2.3317,2.3303,2.309,2.24,2.1717,2.1016,2.0401,1.9498,1.87,1.8755,1.7954,1.7121,1.7176,1.7003,0.0,1.673,1.6911,1.7167,1.7321,1.79,1.8395,1.8427,1.8808,1.9067,1.8913,1.8969,1.9476,2.0772,2.2154,2.3126,2.336,2.3374,2.3652,2.435,2.3659,2.3366,2.3784,2.3423,2.2964,2.244,2.2176,2.1883,2.1502,2.1108,2.0828,2.0644,2.0644,2.0712,2.0895,2.044,2.0206,2.0145,1.914,1.8758,1.8875,1.8707,1.8875,1.9208,1.9308,1.9341,1.9318,1.9308,1.9318,1.9318,1.9318,1.9407,1.9539,0.0,1.7694,1.7529,1.8657,1.8176,1.7946,1.8765,1.8697,1.8476,1.816,1.8027,1.7862,1.7681,1.7605,1.7514,1.7317,1.7154,1.7029,1.6919,1.667,1.6675,1.7064,1.6445,1.6517,1.744,1.7266,1.7503,1.8216,1.8792,1.9231,1.9599,1.9792,1.984,1.9671,1.9075,1.891,1.9053,1.918,1.9783,2.0692,2.1194,2.1669,2.2186,2.2948,2.3315,2.347,2.399,2.4418,2.4745,2.4621,2.3937,2.2991,2.2389,2.1597,2.0816,2.0544,1.9848,1.9162,1.9183,1.8193,1.7167,1.7217,1.6716,0.0,1.615,1.646,1.6759,1.698,1.7745,1.8325,1.8076,1.8409,1.8478,1.776,1.8208,1.8934,1.9924,2.0812,2.1655,2.2446,2.2728,0.0,2.3793,2.3289,2.3041,2.326,2.282,2.2515,2.2402,2.2073,2.1769,2.1502,2.1108,2.0876,2.0829,2.0838,2.0867,2.0895,2.0951,2.0694,2.0088,1.9817,1.9609,1.944,1.9572,1.9671,1.9736,1.9769,1.9572,1.9318,1.9473,1.944,1.9318,1.9318,1.9241,1.9241,1.8475,1.8189,1.8154,1.913,1.8942,1.8754,1.9137,1.9042,1.8841,1.8573,1.857,1.8651,1.8779,1.8799,1.871,1.8493,1.8436,1.8238,1.7881,1.7784,1.7702,1.7665,1.7389,1.7379,1.763,1.7578,1.7785,1.824,1.8437,1.895,1.9701,1.9669,1.9574,1.9462,1.9515,1.9493,1.9423,1.9909,2.0609,2.143,2.1734,2.1792,2.1848,2.3166,2.3526,2.3437,2.4204,2.4871,2.5326,2.5404,2.4973,2.4327,2.366,2.287,2.212,2.1592,2.0866,2.0119,1.9759,1.8666,1.7614,1.7404,1.6765,0.0,0.0,1.6323,1.6529,1.6343,1.7098,1.7586,1.6862,1.7261,1.7399,1.6627,1.6909,1.7382,1.7987,1.9389,2.058,2.1134,2.1479,0.0,2.2579,2.226,2.2188,2.2664,2.2518,2.2402,2.2402,2.2025,2.1655,2.1359,2.1156,2.1041,2.1061,2.1272,2.1443,2.1672,2.1723,2.1558,2.1174,2.0814,2.0636,2.0581,2.0443,2.0445,2.0489,2.0423,2.0226,1.9933,1.9802,1.9671,1.9572,1.9483,1.9473,1.9506,1.8839,1.8699,1.874,1.9543,1.9599,1.954,1.9465,1.9363,1.9229,1.9055,1.9259,1.954,1.9928,1.9978,1.9905,1.9733,1.9624,1.9364,1.886,1.8937,1.873,1.8154,1.8405,1.8365,1.7976,1.8037,1.8197,1.8444,1.8403,1.8857,1.9782,1.9687,1.9554,1.9429,2.006,2.0233,2.0044,2.0686,2.14,2.2149,2.225,2.2096,2.1883,2.3353,2.3693,2.3557,2.4607,2.5243,2.5644,2.6047,2.592,2.5478,2.4948,2.4233,2.3476,2.2784,2.1887,2.0977,2.0344,1.9219,1.8218,1.7897,1.7153,1.6491,0.0,0.0,0.0,1.5856,1.6553,1.6923,1.5855,1.6213,1.6443,1.5782,0.0,0.0,0.0,1.7811,0.0,1.9627,1.9989,0.0,2.1243,2.1173,2.1373,2.213,2.2181,2.2216,2.2339,2.1983,2.1617,2.1205,2.1282,2.1282,2.1205,2.1693,2.2063,2.2402,2.241,2.2426,2.233,2.183,2.1636,2.1735,2.144,2.133,2.1408,2.1211,2.1128,2.1002,2.0357,1.9998,1.9868,1.9704,1.9704,1.9736,2.0434,1.995,1.97,2.0568,2.0387,2.0095,2.003,2.0009,1.9964,1.9965,2.0034,2.0118,2.0158,2.017,2.018,2.0125,1.9638,1.9454,1.9729,1.9436,1.9183,1.9058,1.9018,1.9204,1.963,1.9242,1.9399,2.0135,2.0124,2.0083,2.0063,2.0386,2.0279,1.9856,2.0341,2.0901,2.1433,2.1261,2.189,2.303,2.2818,2.309,2.3649,2.4221,2.4748,2.5312,2.6292,2.6287,2.6003,2.6865,2.6129,2.4853,2.5004,2.428,2.3338,2.3235,2.2221,2.1124,2.0798,1.9819,1.8914,1.8911,1.8147,1.7406,1.766,0.0,1.6477,1.6044,0.0,1.7128,1.6071,0.0,0.0,1.5718,1.5525,0.0,1.5824,1.6038,1.6658,1.8005,1.8491,0.0,0.0,2.0683,2.1172,2.1814,2.1515,2.1589,2.2201,2.1955,2.1617,2.1205,2.154,2.154,2.1205,2.1959,2.2365,2.2402,2.2761,2.2805,2.2557,2.2619,2.2505,2.232,2.2616,2.2661,2.2479,2.2184,2.2329,2.2587,2.1308,2.041,1.99,1.9868,1.9572,1.9241,2.0388,2.047,2.0631,2.1,2.0923,2.0653,2.0323,2.0325,2.0547,2.0974,2.0952,2.1056,2.1425,2.1353,2.1286,2.1296,2.1223,2.1046,2.0842,2.0791,2.07,2.0518,2.0431,2.0296,2.0131,1.9857,1.9769,1.982,1.9736,1.9845,2.0118,2.0259,2.0336,2.0355,2.1012,2.1775,2.2584,2.2482,2.3221,2.4356,2.4294,2.4733,2.5363,2.4617,2.474,2.5508,2.6856,2.6973,2.6631,0.0,2.7057,2.6181,2.6322,2.5526,2.4473,2.4298,2.352,2.2604,2.2128,2.1385,2.0583,1.986,1.8864,1.7935,1.7441,1.6947,1.6432,1.5785,0.0,0.0,0.0,0.0,0.0,0.0,1.5093,1.5292,0.0,0.0,1.5654,1.7175,0.0,0.0,0.0,0.0,0.0,0.0,2.0602,2.0898,2.0986,2.1206,2.1068,2.0441,2.1056,2.1339,2.12,2.2012,2.2515,2.274,2.2927,2.304,2.317,2.3363,2.343,2.3475,2.3652,2.3627,2.3455,2.3242,2.3247,2.3378,2.2468,2.182,2.1388,2.1279,2.0773,2.015,2.0599,2.0908,2.1276,2.1393,2.136,2.1227,2.0816,2.0995,2.1363,2.1968,2.2115,2.2283,2.2735,2.2829,2.2727,2.2483,2.2653,2.2513,2.1941,2.195,2.1917,2.1696,2.1608,2.1321,2.0746,2.0582,2.0303,1.994,1.9671,1.9845,2.0457,2.0314,2.0501,2.0917,2.1651,2.2394,2.3113,2.3383,2.4118,2.5093,2.5253,2.5797,2.6436,2.5518,2.5334,2.5787,2.7228,2.7392,2.708,2.8061,2.7966,0.0,2.7527,2.6658,2.5583,2.5433,2.4727,2.3896,2.341,0.0,2.215,0.0,0.0,0.0,0.0,0.0,0.0,0.0,1.6278,0.0,0.0,0.0,1.5646,1.4635,0.0,1.5039,1.4753,1.4592,0.0,0.0,0.0,0.0,0.0,0.0,0.0,0.0,0.0,0.0,2.0094,2.0389,2.0363,1.9985,2.0617,2.1073,2.1219,2.1977,2.2573,2.3001,2.3001,2.3224,2.3593,2.3751,2.397,2.4286,2.4378,2.4377,2.4294,2.4126,2.4077,2.4029,2.353,2.3132,2.2706,2.2218,2.1574,2.0924,2.1653,2.1469,2.1512,2.1811,2.1781,2.1672,2.1661,2.2169,2.2628,2.2914,2.3567,2.3942,2.3766,2.4338,2.4375,2.3517,2.3454,2.33,2.288,2.2609,2.2391,2.2205,2.2283,2.2211,2.185,2.1591,2.1435,2.1341,2.0686,2.0686,2.1341,2.0882,2.1035,2.1675,2.2151,2.2556,2.2833,2.3442,2.4122,2.4839,2.5156,2.569,2.64,2.7273,2.7181,2.6682,2.7631,0.0,0.0,2.8619,2.8564,0.0,0.0,0.0,0.0,0.0,0.0,0.0,0.0,0.0,0.0,2.2358,0.0,0.0,0.0,0.0,1.7245,0.0,0.0,0.0,1.5873,1.5859,1.5811,1.5188,1.4874,0.0,0.0,1.4477,1.444,1.4816,0.0,0.0,0.0,0.0,0.0,0.0,0.0,0.0,2.0009,1.9622,1.959,2.0063,2.0512,2.0885,2.1208,2.1925,2.2528,2.3001,2.3001,2.3224,2.3593,2.3604,2.3934,2.449,2.4706,2.4897,2.5052,2.4838,2.4779,2.473,2.4373,2.3911,2.332,2.206,2.1388,2.1135,2.2,2.2043,2.203,2.1932,2.1968,2.2044,2.2082,2.2171,2.249,2.3335,2.3734,2.4051,2.4415,2.469,2.474,2.4399,2.4538,2.4495,2.4164,2.4075,2.4087,2.4188,2.3924,2.3636,2.3337,2.2787,2.2388,2.2186,2.1217,2.1141,2.1902,2.1083,2.1417,2.2673,2.2331,2.2799,2.381,2.4106,2.4556,2.518,2.6205,2.7053,2.771,0.0,2.7302,2.6941,2.811,2.8377,0.0,2.9465,2.956,2.9196,2.9322,2.854,2.7582,2.7538,2.6648,0.0,0.0,0.0,2.443,2.3546,0.0,0.0,0.0,0.0,0.0,0.0,0.0,0.0,0.0,1.6525,1.6407,1.4989,1.4881,1.4881,0.0,1.4534,1.4561,1.4785,1.5249,1.568,0.0,0.0,0.0,0.0,1.7425,0.0,0.0,1.8882,1.9085,1.8808,1.9973,2.067,2.0751,2.179,2.2553,2.3001,2.3001,2.315,2.3409,2.3677,2.3897,2.4152,2.473,2.5004,2.504,2.5237,2.52,2.497,2.4596,2.4117,2.3578,2.3035,2.2431,2.1788,2.2606,2.2647,2.2543,2.2235,2.2329,2.253,2.272,2.2872,2.3275,2.4207,2.4594,2.4914,2.5396,2.5673,2.5771,2.557,2.5868,2.5812,2.5219,2.5202,2.5204,2.5179,2.4805,2.4556,2.4505,2.3891,2.3548,2.3453,2.2219,2.2101,2.3003,2.1688,2.1823,2.3126,2.2669,2.3057,2.4082,2.462,2.5167,2.5845,2.726,2.8166,0.0,0.0,2.7767,2.7443,0.0,2.8869,2.9015,2.9998,3.0279,3.0248,3.0283,2.9452,2.8449,2.8305,2.7377,2.6326,2.6347,2.5966,0.0,2.4367,2.3669,0.0,2.1763,0.0,2.0821,0.0,0.0,0.0,0.0,1.7605,1.7197,1.5681,1.5393,1.5221,0.0,1.4497,1.4385,1.4468,1.478,1.5161,1.5601,0.0,0.0,1.6278,1.6719,1.7135,0.0,0.0,1.8375,1.8285,1.9293,2.0062,2.0487,2.1389,2.2248,2.3113,2.3113,2.3261,2.3519,2.3787,2.4007,2.4261,2.4778,2.5076,2.5217,2.5294,2.5091,2.4655,2.4279,2.388,2.3515,2.338,2.3004,2.2482,2.3408,2.3306,2.3135,2.2856,2.2893,2.3108,2.3584,2.4232,2.4861,2.5441,2.6075,2.6507,2.664,2.7207,2.7421,2.697,2.7422,2.7196,2.6053,2.5966,2.5748,2.5317,2.5024,2.4992,2.5281,2.4948,2.4853,2.5053,2.3646,2.3479,2.4477,2.2666,2.2289,2.3123,2.3089,2.3289,2.366,2.4849,2.5887,2.6805,2.8252,2.8947,2.9114,2.8892,2.8544,2.8163,2.8843,2.9183,2.9373,3.028,3.0769,3.1029,3.0972,3.0015,2.8861,2.879,2.7756,2.6627,2.6605,2.6422,2.6034,2.4941,0.0,0.0,0.0,0.0,2.1935,0.0,0.0,0.0,0.0,0.0,1.8188,1.7129,1.6338,1.5678,1.5058,1.4381,1.3946,1.3946,1.4539,1.5175,1.5774,1.5874,1.5931,1.6054,1.598,1.6453,0.0,0.0,1.7488,1.8532,1.8545,1.9151,2.044,2.0861,2.1804,2.3265,2.3287,2.3519,2.3897,2.3897,2.4236,2.4754,2.4801,2.5087,2.5498,2.5022,2.4487,2.3928,2.3622,2.3382,2.3213,2.3163,2.3115,2.3145,2.3542,2.4217,2.4683,2.4507,2.4035,2.3827,2.433,2.4403,2.4656,2.5391,2.5937,2.6497,2.7061,2.7579,2.7858,2.7729,2.7832,2.7634,2.6993,2.6747,2.6677,2.6749,2.617,2.6124,2.6752,2.5935,2.5622,2.5813,2.425,2.3881,2.4605,2.2859,2.2538,2.3464,2.3057,2.3061,2.3438,2.4503,2.612,2.7985,2.8577,2.9048,2.9394,0.0,2.9229,2.91,2.9138,2.9511,2.9998,3.0441,3.0904,3.1172,3.0814,3.0325,2.9666,2.8781,2.7837,2.7053,2.6685,2.6207,2.5731,2.5608,2.5332,2.4981,0.0,0.0,0.0,0.0,0.0,0.0,0.0,0.0,1.9836,1.7906,1.633,1.5215,1.4754,1.4616,1.4526,1.4416,1.4461,1.4545,1.4755,1.5237,1.553,1.5576,1.6184,1.6588,0.0,0.0,0.0,1.7929,1.8533,1.9232,2.0067,2.1096,2.2042,2.2911,2.3158,2.3446,2.3677,2.3824,2.408,2.4381,2.4682,2.4803,2.478,2.4796,2.4256,2.3405,2.3589,2.3697,2.3779,2.3598,2.3486,2.3374,2.4754,2.5435,2.589,2.5807,2.5496,2.5325,2.555,2.539,2.5628,2.6659,2.6988,2.7359,2.801,2.8332,2.8402,2.8194,2.8567,2.842,2.7357,2.7687,2.7719,2.7313,2.6805,2.6867,2.7603,2.6853,2.6644,2.7064,2.5535,2.4971,2.5233,2.3539,2.3102,2.374,2.3422,2.3618,2.4332,2.5835,2.7292,2.8564,2.9082,2.95,0.0,2.9567,2.9557,2.9646,2.9556,2.9817,3.0261,3.0634,3.0859,3.0982,3.0814,3.0374,2.9753,2.8961,2.8078,2.7245,2.6965,2.6395,2.5906,2.5979,2.5895,2.5704,2.5639,2.5574,2.5359,0.0,0.0,0.0,0.0,0.0,0.0,1.8661,1.6688,1.5302,1.476,1.4564,1.4406,1.414,1.3994,1.3961,1.4066,1.473,1.5198,1.5289,1.5987,1.6399,0.0,0.0,0.0,1.7693,1.8421,1.9113,1.9769,2.0668,2.1708,2.2865,2.3025,2.338,2.3861,2.397,2.4152,2.4345,2.4646,2.4826,2.4843,2.4729,2.4284,2.3704,2.4006,2.4197,2.4324,2.428,2.4035,2.3698,2.6348,2.6635,2.6817,2.6928,2.698,2.7041,2.7079,2.6845,2.7108,2.8243,2.8354,2.8531,2.9061,2.9119,2.9055,2.8699,2.9375,2.9207,2.7767,2.8588,2.8688,2.7646,2.7314,2.7496,2.8184,2.7777,2.7827,2.8386,2.7059,2.6363,2.6124,2.4581,2.3942,2.4053,2.409,2.4657,2.5751,2.7702,2.8677,2.8927,2.9635,3.0057,3.0216,2.976,2.9726,2.9931,2.9977,3.0102,3.0306,3.0781,3.0814,3.0713,3.0871,3.0332,2.9571,2.9202,2.8292,2.7422,2.7245,2.673,2.6229,2.6229,2.6104,2.5979,2.624,2.6115,2.5961,2.6131,2.5795,2.5322,0.0,0.0,0.0,1.9447,1.7387,1.5833,1.4887,1.4419,1.4027,1.3657,1.3624,0.0,0.0,0.0,1.4904,1.5096,1.5611,0.0,0.0,0.0,0.0,1.7752,1.8286,0.0,1.9607,0.0,2.1207,2.2733,2.2801,2.3236,2.4097,2.4097,2.424,2.4538,2.4718,2.4945,2.5168,2.4676,2.4384,2.4267,2.4516,2.4653,2.4771,2.4867,2.4532,2.4009,2.6922,2.7113,2.7382,2.7999,2.7542,2.7564,2.9053,2.8293,2.7778,2.8333,2.852,2.8743,2.9074,2.9274,2.9647,3.0179,2.9761,2.9565,2.9659,2.9142,2.8891,2.9123,2.8481,2.8491,2.9211,2.8959,2.8823,2.8951,2.807,2.7428,2.7042,2.5888,2.5188,2.4902,2.5057,2.5689,2.6676,2.752,0.0,2.9642,2.9975,3.0306,3.0487,3.0216,3.0125,3.0182,3.0397,3.0487,3.0532,3.0623,3.0904,3.1128,3.0769,3.0564,3.0141,2.8895,2.84,2.7996,2.6993,2.6629,2.652,2.652,2.6354,2.6282,2.6685,2.6437,2.6221,2.6405,2.5893,2.5299,2.4914,0.0,0.0,0.0,0.0,0.0,1.4915,1.4553,1.4421,1.419,1.4605,1.4817,0.0,0.0,1.4804,1.4639,1.5571,0.0,0.0,0.0,0.0,0.0,1.8375,0.0,0.0,0.0,2.1431,2.1913,2.2127,2.2692,2.3545,2.3545,2.3988,2.4754,2.479,2.4743,2.4616,2.452,2.4232,2.3852,2.4387,2.4544,2.446,2.4367,2.4347,2.4262,2.7881,2.7981,2.8072,2.8325,2.8404,2.8727,2.9528,2.9409,2.9293,2.9487,2.9357,2.9481,3.0019,3.0194,3.0388,3.0624,3.0411,3.0114,2.9852,2.9589,2.9485,2.95,2.9035,2.9134,2.986,2.9498,2.9419,2.9679,0.0,2.8251,2.7452,2.6625,2.5973,2.5456,2.6058,2.6759,2.7542,0.0,0.0,2.966,2.9942,3.0182,3.0352,2.9988,2.9909,3.0045,3.0306,3.0487,3.0623,3.0892,3.0937,3.0904,3.0814,3.0634,3.0202,2.9255,2.8756,2.8379,2.7565,2.7054,2.6768,2.6768,2.6561,2.6479,2.6685,2.6561,2.6375,2.6314,2.6007,2.5647,2.5286,2.3517,0.0,0.0,0.0,0.0,0.0,1.474,1.4537,1.4,1.4449,1.4724,1.451,0.0,0.0,1.4566,1.5279,0.0,0.0,0.0,0.0,0.0,0.0,0.0,0.0,0.0,0.0,2.1451,2.1921,2.2696,2.3688,2.341,2.3863,2.4778,2.4708,2.4753,2.4903,2.4913,2.4994,2.5115,2.5247,2.5121,2.4866,2.4866,2.4569,2.409,2.8817,2.873,2.8621,2.8494,2.9061,2.9537,2.9679,3.0127,3.0537,3.0654,3.033,3.0254,3.0848,3.0893,3.0893,3.0763,3.0777,3.049,2.9849,3.0102,3.0102,2.9669,2.9738,2.9953,3.0306,3.0153,3.0167,0.0,0.0,0.0,0.0,2.773,2.7154,0.0,0.0,0.0,0.0,0.0,2.9639,2.9732,2.9954,3.0148,3.0261,2.9954,2.9909,3.0057,3.0352,3.0532,3.0769,3.1217,3.1116,3.0758,3.0927,3.0691,3.0191,2.9604,2.9077,2.8574,2.7977,2.7405,2.6974,2.6974,2.6809,2.6685,2.6727,2.6715,2.661,2.6262,2.6018,2.5714,2.5357,2.3846,0.0,0.0,0.0,0.0,0.0,0.0,1.519,1.4468,1.4869,1.5175,1.5132,0.0,0.0,0.0,0.0,0.0,0.0,0.0,0.0,0.0,0.0,1.8644,1.8975,0.0,2.0483,0.0,2.1707,2.2673,2.3791,2.3251,2.3719,2.4862,2.4632,2.4853,2.5417,2.5487,2.584,2.6269,2.6075,2.5761,2.5408,2.5436,2.4901,2.4164,2.9582,2.9019,2.8573,2.9046,2.9009,2.9196,3.016,3.0421,3.0592,3.0902,3.0937,3.0836,3.0647,3.0647,3.0708,3.0973,3.0364,3.0227,3.0812,3.0684,3.0421,3.0148,3.124,3.1437,3.0589,3.1394,3.1665,0.0,0.0,3.079,0.0,0.0,0.0,0.0,0.0,0.0,0.0,2.982,3.0034,3.0508,3.0509,3.0532,3.0578,3.0781,3.0736,3.0578,3.1038,3.1095,3.1017,3.1484,3.1484,3.1217,3.1062,3.0781,3.0392,2.9439,2.893,2.8494,2.7511,2.7224,2.719,2.719,2.7015,2.6933,2.7108,2.7126,2.7007,2.6565,2.5665,2.4938,2.4664,2.4263,2.3509,0.0,0.0,0.0,0.0,0.0,1.7261,1.6972,1.7433,1.7865,1.8166,1.7302,0.0,0.0,1.5776,0.0,0.0,0.0,0.0,1.9202,0.0,1.9169,2.0232,2.0324,0.0,2.0641,2.1225,2.2113,2.3262,2.2711,2.3433,2.5052,2.4655,2.5004,2.5863,2.6171,2.6156,2.5986,2.6251,2.6116,2.5696,2.5345,2.5156,2.5014,2.9558,2.9306,2.9184,0.0,0.0,0.0,0.0,3.115,3.1368,3.1291,3.1128,3.109,3.1235,3.1271,3.1481,3.2008,3.1402,3.1181,3.1621,3.139,3.1205,3.1088,3.1914,3.2242,3.197,3.2343,3.2442,0.0,0.0,0.0,0.0,0.0,0.0,0.0,0.0,3.0467,3.0655,3.0566,3.0639,3.0826,3.0826,3.0826,3.0871,3.1095,3.1128,3.1071,3.1548,3.1693,3.1617,3.1805,3.1629,3.1306,3.1229,3.0793,3.0229,2.9492,2.8962,2.8482,2.7597,2.7505,2.7598,2.7412,2.7423,2.7516,2.7598,2.7626,2.7475,2.6951,2.5954,2.5175,2.5271,2.4808,2.392,0.0,0.0,0.0,0.0,0.0,1.8308,1.794,1.7599,1.7576,1.8118,1.7392,0.0,0.0,0.0,0.0,0.0,0.0,0.0,1.9333,0.0,1.9327,2.0399,2.0716,2.0917,2.099,2.1571,2.2305,2.3084,2.287,2.3553,2.4936,2.5206,2.5632,2.6131,2.644,2.6587,2.6598,2.6919,2.6817,2.6467,2.6405,2.6162,2.5777,2.9947,0.0,2.9961,0.0,3.0863,3.1313,3.1124,3.1589,3.1935,3.1675,3.14,3.1281,3.1545,3.1581,3.1825,3.2422,3.1839,3.1697,3.2158,3.2038,3.1936,3.1936,3.2677,0.0,3.2789,3.3134,3.3186,3.293,3.3167,0.0,0.0,0.0,0.0,0.0,3.1374,3.1241,3.1196,3.1196,3.1196,3.1196,3.1196,3.1196,3.1241,3.1362,3.135,3.135,3.1825,3.1945,3.1913,3.1981,3.1761,3.146,3.126,3.0787,3.0154,2.9501,2.8945,2.8463,2.7795,2.7748,2.7841,2.7655,2.7748,2.7893,2.7893,2.7962,2.7848,2.7305,2.6259,2.5505,2.5763,2.5155,2.4261,2.3051,0.0,0.0,0.0,1.9668,0.0,1.9038,1.8257,1.805,1.8854,1.8076,0.0,0.0,0.0,0.0,0.0,0.0,0.0,0.0,0.0,0.0,0.0,2.1039,2.123,2.1272,2.1902,2.2474,2.3023,2.3292,2.3978,2.492,2.5607,2.6084,2.6361,2.6671,2.6909,2.7113,2.7503,2.7486,2.7188,2.7304,2.7033,2.656,3.1149,3.1044,3.0808,3.0637,3.1047,3.1313,3.1124,3.1589,3.1994,3.1981,3.1793,3.1572,3.1306,3.1318,3.1395,3.1605,3.1241,3.1409,3.2337,3.2462,3.2477,0.0,0.0,3.378,3.2536,3.3734,3.3991,3.3199,0.0,0.0,3.3174,0.0,3.2257,3.1981,3.1994,3.1893,3.1705,3.1705,3.1705,3.1705,3.1705,3.1705,3.1705,3.1705,3.1528,3.135,3.1849,3.1893,3.1705,3.1937,3.1994,3.1853,3.1134,3.0706,3.0319,2.9314,2.8787,2.8516,2.8022,2.7893,2.7893,2.7893,2.7893,2.7893,2.7893,2.803,2.8024,2.7501,2.6524,2.58,2.58,2.5349,2.4706,2.3826,0.0,0.0,0.0,2.1361,0.0,2.0639,2.0097,2.0177,2.126,1.9913,0.0,0.0,0.0,0.0,0.0,0.0,0.0,2.0146,2.0193,0.0,2.1392,2.126,2.1272,2.1404,2.1945,2.2474,2.3047,2.4037,2.4689,2.5136,2.5677,2.6211,2.6726,2.6909,2.7113,2.7335,2.7881,2.7967,2.7762,2.7732,2.7552,2.7319,3.1618,3.1551,3.1544,3.1666,3.1838,3.1964,3.2059,3.2294,3.2414,3.2159,3.2142,3.2157,3.2081,3.1761,3.1661,0.0,3.2075,3.2442,0.0,3.3667,3.4071,3.4071,3.4798,3.504,3.4611,3.4988,3.5018,3.4536,0.0,0.0,0.0,3.3499,3.3093,3.303,3.3277,3.2942,3.2194,3.239,3.2342,3.2169,3.1981,3.2025,3.2201,3.2332,3.232,3.232,3.2636,3.2723,3.2636,3.2506,3.2463,3.2321,3.1369,3.07,3.0079,2.9414,2.8877,2.8474,2.8186,2.8191,2.8271,2.8151,2.8191,2.8323,2.8323,2.8459,2.85,2.8084,2.7454,2.6858,2.6493,2.5679,2.4874,2.4201,2.3786,0.0,0.0,0.0,2.1708,2.1813,2.0762,2.041,0.0,2.0799,0.0,0.0,0.0,0.0,0.0,0.0,0.0,0.0,2.0683,0.0,2.2474,2.2443,2.2686,2.3163,2.3333,2.3696,2.425,2.4556,2.4907,2.5258,2.5836,2.6188,2.6405,2.6807,2.718,2.7469,2.7914,2.8131,2.8176,2.837,2.8398,2.8271,3.2164,3.2176,3.225,3.229,3.2298,3.2353,3.2491,3.2619,3.263,3.2409,3.2383,3.24,3.24,3.2125,0.0,3.2376,3.2722,3.3171,3.3707,3.441,3.4908,3.5104,3.5436,3.557,3.5468,0.0,0.0,3.5335,3.5123,3.4828,3.4488,3.3702,3.332,3.3201,3.3415,3.3104,3.2412,3.2676,3.2671,3.2519,3.2332,3.2376,3.2519,3.255,3.2593,3.2636,3.2853,3.2939,3.2939,3.2766,3.2711,3.2525,3.1639,3.1034,3.0543,2.979,2.922,2.8759,2.8638,2.8575,2.8471,2.8339,2.8431,2.851,2.8618,2.8776,2.8814,2.8392,2.7939,2.7434,2.6892,2.6101,2.537,2.4868,2.4649,2.4196,2.3306,0.0,2.2288,0.0,0.0,0.0,0.0,2.1626,2.1641,0.0,0.0,0.0,0.0,0.0,0.0,2.0734,2.1284,0.0,2.3063,2.3063,2.3426,2.4112,2.4112,2.4405,2.4917,2.4917,2.5176,2.5641,2.6027,2.6292,2.6521,2.6875,2.7214,2.7536,2.7947,2.8164,2.8281,2.8619,2.8748,2.8757,3.2791,3.2845,3.2899,0.0,3.2541,0.0,3.2541,3.2644,3.2723,3.2723,3.255,3.2444,3.2444,3.2444,3.263,3.3131,0.0,0.0,0.0,3.4792,3.5065,3.5533,3.5558,3.5419,3.5205,3.569,3.5784,3.5491,3.4939,3.452,3.4223,3.3462,3.2982,3.2754,3.2748,3.2674,3.2487,3.2674,3.2748,3.2723,3.2711,3.2711,3.2723,3.2562,3.2487,3.2475,3.2667,3.2754,3.2723,3.2754,3.2723,3.2593,3.1883,3.1638,3.1442,3.0423,2.9778,2.9381,2.9316,2.8943,2.8558,2.8522,2.855,2.859,2.8843,2.9,2.8971,2.8431,2.8064,2.7654,2.7071,2.6511,2.6068,2.5686,2.589,2.5631,2.4167,0.0,0.0,0.0,0.0,0.0,0.0,2.248,2.2806,0.0,0.0,0.0,0.0,0.0,2.0945,2.1433,2.197,2.2544,2.3259,2.3271,2.366,2.4444,2.4444,2.4702,2.5194,2.5194,2.5546,2.6201,2.6236,2.6546,2.7011,2.7024,2.7214,2.7603,2.7947,2.8112,2.8177,2.849,2.8716,2.8812,0.0,0.0,3.3672,3.325,3.3208,3.3123,3.2965,3.2993,3.3025,3.3025,3.2939,3.2952,3.2952,3.2952,3.3158,3.3671,3.3956,3.4193,3.4466,3.5011,3.5232,3.4944,3.4932,3.4973,3.512,3.5246,3.5337,3.5411,3.4895,3.4594,3.4497,3.3708,3.3313,3.3253,3.3508,3.3339,3.2934,3.3202,3.3183,3.2982,3.2766,3.281,3.3025,3.3099,3.3068,3.2995,3.3343,3.327,3.3025,3.3185,3.3013,3.2655,3.2327,3.2073,3.1704,3.0646,3.0394,3.0294,2.9494,2.9318,2.9234,2.8821,2.8843,2.9091,2.9677,2.9548,2.9145,2.8523,2.8307,2.7942,2.6806,2.6269,2.5954,2.5836,2.5582,2.4963,2.3849,2.3852,0.0,0.0,2.289,2.3167,2.2717,2.3281,2.3523,0.0,0.0,0.0,0.0,2.2436,2.2072,2.179,2.2304,2.2976,2.3818,2.3961,2.4628,2.5747,2.5747,2.5822,2.5946,2.5946,2.603,2.6198,2.6487,2.676,2.7019,2.7167,2.7516,2.798,2.8046,2.8276,2.8522,2.8844,2.9004,2.9035,3.416,3.3992,3.381,3.3441,3.3313,3.324,3.3124,3.3124,3.3124,3.3124,3.3197,3.3197,3.3124,3.3523,3.3976,3.4414,3.4517,3.4657,3.4873,3.5604,3.5806,3.5264,3.5375,3.5384,3.5232,3.522,3.5226,3.5177,3.4794,3.4512,3.4371,3.3794,3.3556,3.3526,3.3715,3.3647,3.3381,3.3543,3.3492,3.3356,3.3215,3.3185,3.324,3.3356,3.3283,3.3111,3.3356,3.3356,3.324,3.3283,3.3142,3.297,3.2766,3.2562,3.2221,3.1608,3.105,3.0484,2.9956,2.959,2.9328,2.9101,2.9314,2.965,2.9998,2.9757,2.924,2.8553,2.8198,2.7744,2.6754,2.6405,2.6303,2.6383,2.5932,2.5167,2.4106,2.4134,0.0,2.2917,2.3556,2.391,2.3442,2.3754,2.3753,2.3145,0.0,0.0,2.3108,2.2969,2.2712,2.2367,2.2591,2.3206,2.4243,2.4946,2.566,2.6339,2.6339,2.6339,2.6339,2.6339,2.6327,2.6349,2.6577,2.6816,2.7032,2.7201,2.757,2.7967,2.8079,2.8262,2.8509,2.8844,2.9004,2.9131,3.4202,3.3979,3.3755,3.3513,3.3356,3.324,3.3197,3.3197,3.3197,3.3197,3.3356,3.3398,3.3283,3.4048,3.474,3.5181,3.5072,3.5176,3.5609,3.6172,3.6273,3.5752,3.5852,3.5718,3.5186,3.5218,3.5118,3.483,3.4628,3.4427,3.416,3.3894,3.3755,3.3768,3.3725,3.3713,3.3713,3.3713,3.3713,3.3713,3.3713,3.3598,3.3441,3.3484,3.3356,3.3197,3.3283,3.3356,3.3441,3.324,3.3283,3.3313,3.3111,3.2853,3.2636,3.2636,3.1613,3.0499,3.053,2.9927,2.9308,2.9443,2.9793,3.0152,3.019,2.9833,2.9295,2.8647,2.8064,2.7481,2.6862,2.6748,2.6863,2.7011,2.6557,2.5813,2.4699,0.0,2.4425,2.3593,2.4133,2.4419,2.4142,2.4117,2.3879,2.3283,2.3158,2.3108,0.0,2.3108,2.3047,2.2939,2.283,2.3362,2.4638,2.5845,2.6465,2.6499,2.6499,2.6499,2.6521,2.6499,2.6521,2.6636,2.676,2.6897,2.7079,2.7302,2.7556,2.7855,2.8033,2.8197,2.8398,2.8716,2.894,2.9131,3.4356,3.4314,3.423,3.4034,3.3949,3.3865,3.3641,3.3598,3.3598,3.3598,3.3641,3.3725,3.3907,3.4337,3.4871,3.5639,3.6116,3.6335,3.6171,3.5826,3.5353,3.4848,3.4336,3.417,3.4305,3.4461,3.4536,3.4486,3.4444,3.4405,3.4356,3.416,3.4034,3.4034,3.381,3.3713,3.3713,3.3713,3.3713,3.3713,3.3713,3.367,3.3683,3.3907,3.3823,3.3641,3.4063,3.3979,3.3641,3.3641,3.3398,3.3111,3.2853,3.2636,3.2431,3.2431,3.1741,3.1017,3.104,3.0577,2.9963,2.9775,3.0037,3.0406,3.0584,3.0021,2.9406,2.8972,2.844,2.7816,2.708,2.71,2.7201,2.7235,2.6822,2.6246,2.5445,0.0,2.5576,2.4227,2.5302,2.5745,2.4782,2.4695,2.4469,2.3904,2.3384,2.3108,2.3108,2.3108,2.3078,2.3078,2.3047,2.3598,2.4755,2.5756,2.6339,2.6499,2.6499,2.6555,2.6692,2.6555,2.676,2.7167,2.7201,2.7302,2.7436,2.7656,2.7855,2.8046,2.8079,2.8276,2.8587,2.894,2.9067,2.9131,3.4397,3.4314,3.4243,3.4285,3.416,3.4076,3.4063,3.4063,3.4021,3.3937,3.4092,3.4347,3.4545,3.5305,3.6009,3.6598,3.7322,3.765,3.7559,3.7162,3.6623,3.5919,3.5778,3.5622,3.5394,3.5321,3.5191,3.5052,3.4763,3.4535,3.4397,3.4314,3.4285,3.4285,3.4147,3.4063,3.4063,3.4063,3.4244,3.4584,3.4584,3.4667,3.4839,3.4982,3.4852,3.4653,3.456,3.4443,3.4264,3.387,3.3598,3.3386,3.3258,3.2927,3.2636,3.297,3.2151,3.105,3.0701,3.0468,3.0289,3.0305,3.0571,3.0898,3.1024,3.0492,2.99,2.965,2.9071,2.8498,2.8134,2.7907,2.7755,2.7892,2.7196,0.0,0.0,2.602,2.5955,2.4773,2.579,2.624,2.5322,2.5234,2.4895,2.4054,2.3753,2.3434,2.312,2.3108,2.3246,2.3559,2.386,2.4399,2.5234,2.5995,2.6396,2.6499,2.6555,2.6658,2.6679,2.6739,2.6909,2.7146,2.7235,2.7369,2.7523,2.7723,2.7954,2.8216,2.8216,2.8425,2.8748,2.9004,2.9162,2.9289,3.4564,3.441,3.4327,3.4535,3.441,3.4327,3.4522,3.4564,3.4481,3.4285,3.4682,3.5057,3.5221,3.629,3.716,3.7524,3.8242,3.8679,3.8782,3.8575,3.8053,3.7127,3.7161,3.6959,3.6498,3.616,3.5896,3.5714,3.5158,3.4743,3.4564,3.4564,3.4564,3.4564,3.4564,3.4643,3.4761,3.4761,3.5115,3.5667,3.5667,3.5843,3.6048,3.5991,3.5781,3.5481,3.4968,3.4766,3.4701,3.4007,3.381,3.3768,3.3725,3.3343,3.3043,3.3556,3.2558,3.117,3.0466,3.0381,3.0535,3.061,3.0949,3.1235,3.1235,3.0787,3.0378,3.028,2.9676,2.9213,2.9213,2.8708,2.8351,2.8523,0.0,0.0,0.0,2.6285,2.6213,2.5613,2.6273,2.6549,2.5971,2.582,2.534,2.4318,2.4129,2.3771,2.3133,2.3233,2.3653,2.4356,2.4782,2.5197,2.5598,2.6231,2.6555,2.6555,2.6692,2.6794,2.685,2.7011,2.7113,2.7214,2.7416,2.7536,2.7669,2.7855,2.8072,2.8287,2.8287,2.8495,2.8812,2.9035,2.9226,2.9415,3.5031,3.488,3.4797,3.499,3.488,3.4797,3.5031,3.5031,3.4962,3.4756,3.5427,3.5898,3.5938,3.695,3.7731,3.8017,3.8541,3.8966,3.9203,3.9216,3.8693,3.7408,3.6854,3.6537,3.6484,3.616,3.5993,3.598,3.5365,3.5086,3.5031,3.5031,3.5031,3.5031,3.5031,3.5379,3.5885,3.5885,3.6231,3.6804,3.6804,3.6774,3.6771,3.6528,3.6085,3.5555,3.5342,3.4891,3.4421,3.4173,3.4076,3.4034,3.3768,3.367,3.3641,3.367,3.2902,3.1864,3.1053,3.0797,3.0723,3.0496,3.071,3.1024,3.1024,3.069,3.0451,3.0618,3.0224,2.9811,2.9811,2.9345,2.8945,2.8945,0.0,0.0,2.7591,2.704,2.6726,2.7087,2.7027,2.6964,2.6892,2.6453,2.5857,2.5071,2.4494,2.3856,2.3133,2.364,2.4406,2.5448,2.5523,2.5561,2.5598,2.6333,2.6679,2.6679,2.6875,2.7079,2.7268,2.7268,2.7469,2.7756,2.7934,2.8046,2.8079,2.8203,2.8287,2.8287,2.8287,2.8495,2.8812,2.9035,2.9226,2.9446,3.5086,3.5044,3.5044,3.5236,3.5236,3.5236,3.544,3.548,3.552,3.569,3.6097,3.6597,3.7222,3.7952,3.8559,3.9054,3.939,3.9645,3.9733,3.9733,3.9316,3.8376,3.8105,3.7824,3.7521,3.7104,3.6705,3.6189,3.5572,3.5236,3.5086,3.5086,3.5313,3.566,3.566,3.5993,3.6553,3.6553,3.6887,3.742,3.742,3.7603,3.7936,3.7847,3.7431,3.6817,3.6373,3.5772,3.5063,3.4667,3.4327,3.4118,3.4147,3.3924,3.3649,3.3303,3.2785,3.2144,3.1473,3.1022,3.0753,3.0775,3.1061,3.1373,3.1373,3.1349,3.1359,3.1432,3.1185,3.0966,3.0966,3.0144,2.9491,2.9491,0.0,2.7894,2.8298,2.7875,2.763,2.796,2.7577,2.7268,2.718,2.6886,2.6427,2.5831,2.5576,2.5141,2.4505,2.5027,2.5568,2.5955,2.6298,2.6409,2.6295,2.6693,2.6875,2.6909,2.7079,2.7268,2.7436,2.7556,2.7769,2.8027,2.8465,2.8726,2.8792,2.8832,2.8931,2.9023,2.8625,2.8605,2.8812,2.9035,2.9226,2.9415,3.5317,3.5383,3.5491,3.5507,3.544,3.548,3.5764,3.5764,3.5846,3.6317,3.6685,3.7199,3.8011,3.8673,3.9234,3.9659,3.9878,4.0053,4.0097,4.0154,3.9791,3.9056,3.9011,3.8822,3.8343,3.7982,3.7511,3.6964,3.6182,3.5817,3.584,3.5639,3.5866,3.6485,3.6485,3.682,3.7383,3.7383,3.7675,3.8184,3.8184,3.8439,3.88,3.8537,3.8051,3.7464,3.6764,3.6037,3.5368,3.4943,3.459,3.4327,3.4397,3.4189,3.3821,3.3266,3.282,3.237,3.1747,3.1265,3.0911,3.1061,3.1286,3.1522,3.1683,3.178,3.1927,3.1963,3.189,3.1817,3.184,3.0838,2.9998,3.0067,2.9007,2.8278,2.8625,2.8332,2.816,2.8364,2.7973,2.7636,2.757,2.7369,2.7002,2.6413,2.6297,2.6051,2.5602,2.5993,2.6268,2.6447,2.6886,2.7045,2.6952,2.71,2.7146,2.7113,2.7416,2.757,2.759,2.7842,2.8039,2.8191,2.8912,2.9315,2.9429,2.9639,2.9712,2.9594,2.9152,2.8944,2.8908,2.9035,2.9257,2.9477,3.5832,3.6034,3.6168,3.5778,3.5562,3.5562,3.6032,3.5858,3.5927,3.6524,3.7148,3.7673,3.8051,3.9054,3.97,3.97,3.9892,4.0097,4.0399,4.0399,4.0081,3.9349,3.9305,3.9203,3.8895,3.8577,3.841,3.841,3.7202,3.6931,3.7472,3.689,3.6944,3.7499,3.7499,3.7824,3.8423,3.8423,3.8762,3.9305,3.9305,3.9305,3.9237,3.8435,3.7712,3.7077,3.6207,3.5578,3.5086,3.488,3.4797,3.4756,3.4481,3.4397,3.4293,3.3757,3.3169,3.2568,3.1967,3.157,3.131,3.131,3.131,3.1421,3.1817,3.189,3.1963,3.2146,3.2218,3.2241,3.2381,3.1319,3.0473,3.0678,2.936,2.8365,2.8587,2.8308,2.8177,2.83,2.8197,2.8125,2.8112,2.7934,2.7486,2.6758,2.6531,2.6336,2.6211,2.6211,2.6447,2.7011,2.7214,2.7369,2.749,2.749,2.7436,2.7302,2.7848,2.8,2.7809,2.8157,2.8287,2.836,2.9375,2.9813,2.9868,3.0593,3.0549,3.0011,2.9833,2.9494,2.9099,2.9099,2.932,2.9634,3.6302,3.6632,3.677,3.6088,3.5952,3.5952,3.6086,3.6032,3.6251,3.7002,3.7607,3.8225,3.8743,3.9621,4.0182,4.0182,4.0516,4.0759,4.0816,4.1015,4.0844,4.03,3.9952,3.9541,3.9059,3.8924,3.8678,3.8266,3.7895,3.7799,3.7991,3.7799,3.8033,3.8623,3.8495,3.8751,3.9325,3.9325,3.9434,3.9598,3.9747,3.9777,3.9708,3.8901,3.8215,3.7573,3.6697,3.5938,3.5318,3.5236,3.5127,3.5003,3.4908,3.4908,3.4868,3.4709,3.4137,3.3422,3.283,3.2353,3.1962,3.1439,3.1495,3.173,3.189,3.2082,3.2286,3.2322,3.2467,3.2561,3.2596,3.1584,3.0787,3.0807,2.9723,2.9045,2.9503,2.9506,2.9441,2.9493,2.9244,2.8917,2.8498,2.8052,2.771,2.7473,2.7295,2.7129,2.7109,2.7109,2.72,2.7369,2.7556,2.7656,2.7723,2.7723,2.7756,2.7848,2.8013,2.8131,2.8157,2.8411,2.8836,2.9389,3.0237,3.0799,3.1171,3.0971,3.0744,3.041,2.9446,2.8995,2.8908,2.9035,2.9257,2.9509,3.6396,3.6848,3.7069,3.6356,3.6206,3.6246,3.6325,3.6286,3.6506,3.7301,3.7869,3.8435,3.9029,3.988,4.0442,4.0515,4.0915,4.1142,4.1142,4.1297,4.1269,4.1001,4.0702,4.0305,3.9757,3.9714,3.9491,3.9018,3.8838,3.8754,3.8905,3.867,3.8877,3.9457,3.9328,3.9491,3.9818,3.9818,3.9818,3.9818,3.9966,3.9858,3.9581,3.8846,3.8251,3.7742,3.677,3.6171,3.5831,3.5521,3.5277,3.5086,3.5086,3.5086,3.5086,3.5086,3.4591,3.394,3.3569,3.3035,3.2468,3.207,3.2038,3.2082,3.2082,3.225,3.2381,3.2322,3.2467,3.2596,3.2704,3.1654,3.0841,3.1009,2.9886,2.9128,2.9596,2.9845,2.9914,2.9665,2.9695,2.9436,2.8752,2.836,2.802,2.7822,2.7756,2.7703,2.7623,2.7703,2.7736,2.7736,2.7868,2.7954,2.8006,2.8006,2.802,2.8112,2.8243,2.8327,2.843,2.8619,2.9108,2.9926,3.0417,3.1029,3.1556,3.1263,3.0918,3.0527,2.9716,2.9242,2.9035,2.9162,2.932,2.9509,3.6316,3.6834,3.719,3.6581,3.647,3.6549,3.6707,3.6549,3.6704,3.7459,3.7991,3.8491,3.9087,3.9938,4.0558,4.0744,4.117,4.1438,4.1438,4.1438,4.1438,4.1438,4.1438,4.1269,4.083,4.0787,4.0645,4.0345,3.9857,3.9757,4.0039,3.9486,3.9557,4.0039,4.0039,4.0053,4.0053,4.0053,4.0053,4.0053,4.0053,3.968,3.9071,3.8477,3.8062,3.7633,3.6523,3.6333,3.6483,3.5696,3.5318,3.5208,3.5208,3.5208,3.5208,3.5195,3.478,3.4313,3.426,3.3629,3.3012,3.3118,3.2864,3.2557,3.2467,3.2453,3.2431,3.2314,3.2359,3.2525,3.2704,3.1709,3.0937,3.1191,2.9941,2.9022,2.9214,2.9739,2.9951,2.9398,2.9781,2.9812,2.9013,2.8711,2.8392,2.7855,2.8,2.8,2.7855,2.8,2.8112,2.8112,2.8112,2.8164,2.8287,2.832,2.8281,2.8177,2.8471,2.8619,2.8651,2.878,2.927,3.0029,3.0225,3.0671,3.1244,3.1349,3.105,3.0451,3.0299,2.9871,2.9383,2.9383,2.9477,2.9634,3.6923,3.7445,3.7763,3.6987,3.6993,3.7084,3.6954,3.6915,3.701,3.7331,3.8293,3.9081,3.9384,4.0461,4.1185,4.1227,4.1507,4.1619,4.1619,4.1814,4.1856,4.166,4.1829,4.1926,4.1787,4.1438,4.1114,4.0859,4.0732,4.0632,4.0573,4.0433,4.0447,4.053,4.0371,4.0298,4.0298,4.0298,4.0298,4.0342,4.0487,4.0209,3.9536,3.8741,3.8116,3.752,3.6653,3.6354,3.6411,3.6073,3.5912,3.5871,3.5871,3.5992,3.6072,3.5912,3.5642,3.5224,3.4606,3.4534,3.4558,3.4321,3.4039,3.3601,3.2814,3.2775,3.2846,3.281,3.298,3.3136,3.3171,3.2569,3.1912,3.1489,3.0695,3.0159,3.0191,3.0769,3.1133,3.0993,3.0945,3.0698,3.0021,2.915,2.8425,2.8079,2.8079,2.8079,2.8046,2.8079,2.8112,2.8112,2.8183,2.8268,2.8287,2.8573,2.8683,2.8651,2.8716,2.8844,2.9004,2.9194,2.9622,3.0225,3.0387,3.083,3.141,3.0905,3.0592,3.028,2.9806,2.9509,2.9383,2.9383,2.9477,2.9634,3.731,3.7574,3.7646,3.7243,3.7303,3.7419,3.7303,3.7303,3.7455,3.7855,3.8737,3.9503,3.9924,4.0824,4.1438,4.1549,4.1841,4.2049,4.2049,4.2269,4.2295,4.2184,4.2295,4.2392,4.2392,4.2131,4.1785,4.1339,4.1339,4.1226,4.1043,4.1043,4.1043,4.1043,4.093,4.0858,4.0858,4.0858,4.0858,4.0901,4.1015,4.0407,3.9476,3.9015,3.8514,3.7919,3.6908,3.6484,3.6365,3.6286,3.6246,3.6246,3.6246,3.6325,3.6365,3.6166,3.5992,3.579,3.5223,3.5163,3.5253,3.5204,3.4976,3.4578,3.3659,3.3197,3.2988,3.2988,3.3072,3.3241,3.3396,3.2875,3.2207,3.1669,3.1256,3.0853,3.0526,3.1331,3.171,3.1106,3.1142,3.0782,2.9684,2.9003,2.849,2.8229,2.8262,2.8295,2.8183,2.8308,2.8341,2.8341,2.8476,2.8509,2.843,2.878,2.8876,2.8812,2.8812,2.8972,2.9257,2.9306,2.9799,3.0548,3.0379,3.0669,3.1221,3.057,3.0284,3.0178,2.9868,2.9741,2.9727,2.962,2.9588,2.9634,3.7494,3.7462,3.738,3.738,3.761,3.7768,3.7868,3.7883,3.8165,3.882,3.9452,4.0055,4.0641,4.1259,4.1675,4.1868,4.2213,4.2392,4.2474,4.2541,4.2622,4.2662,4.2662,4.2662,4.2662,4.2688,4.2404,4.1827,4.1785,4.166,4.1438,4.1438,4.1396,4.1396,4.1396,4.1396,4.1396,4.1396,4.1396,4.1381,4.1281,4.0415,3.9228,3.9114,3.8829,3.8308,3.7191,3.6628,3.6445,3.6445,3.6445,3.6484,3.651,3.651,3.647,3.6272,3.6192,3.6152,3.5884,3.5794,3.5798,3.6028,3.5921,3.5484,3.4715,3.3923,3.3255,3.3122,3.3143,3.3262,3.3605,3.3097,3.2484,3.2009,3.1712,3.1326,3.0787,3.1485,3.1738,3.0764,3.0904,3.0479,2.905,2.878,2.8619,2.8463,2.8573,2.8605,2.8463,2.8605,2.8683,2.8683,2.878,2.8812,2.8683,2.9004,2.9067,2.8908,2.894,2.9099,2.946,2.9498,2.9954,3.0697,3.0409,3.0542,3.0902,3.0387,3.0172,3.0172,3.0172,3.0172,3.0111,2.9915,2.9775,2.9696,3.7438,3.7591,3.7815,3.7815,3.8142,3.8518,3.8904,3.9144,3.9492,4.0149,4.0777,4.1255,4.1517,4.2144,4.2526,4.2566,4.2459,4.2459,4.2662,4.2351,4.2242,4.2433,4.2433,4.2433,4.2433,4.2622,4.2581,4.231,4.209,4.1868,4.166,4.1465,4.1396,4.1396,4.1396,4.1396,4.1396,4.1396,4.1396,4.1339,4.0781,4.0124,3.9384,3.8817,3.8445,3.8147,3.748,3.6968,3.6682,3.6682,3.6682,3.6668,3.6836,3.6915,3.6875,3.6679,3.6615,3.6563,3.6351,3.6559,3.6905,3.7252,3.6949,3.6359,3.5731,3.5053,3.4356,3.3669,3.3675,3.3779,3.3862,3.3791,3.3471,3.2849,3.2127,3.1646,3.1561,3.1073,3.0923,3.1316,3.0807,3.0136,2.939,2.9162,2.9004,2.899,2.9004,2.9004,2.899,2.9004,2.9035,2.9035,2.9035,2.9035,2.9035,2.9257,2.9352,2.932,2.9446,2.9509,2.9585,3.015,3.0389,3.0379,3.0912,3.0933,3.0638,3.0581,3.0522,3.0522,3.0522,3.0431,3.0266,3.0097,3.005,3.005,3.7978,3.7745,3.7572,3.7572,3.7891,3.8243,3.8442,3.8623,3.9177,4.0329,4.0749,4.1228,4.2147,4.2405,4.2541,4.2541,4.2541,4.2622,4.2688,4.2662,4.2662,4.2729,4.2729,4.2729,4.2729,4.293,4.293,4.2729,4.2485,4.2295,4.209,4.2022,4.1912,4.1787,4.1787,4.1787,4.1787,4.1897,4.1939,4.1922,4.1215,4.0524,3.9783,3.9032,3.8807,3.8905,3.8635,3.7898,3.7046,3.7162,3.7123,3.7084,3.7264,3.7341,3.7303,3.7226,3.7109,3.7007,3.6929,3.7109,3.7419,3.7711,3.7737,3.7525,3.6815,3.6216,3.5429,3.4137,3.404,3.4225,3.4327,3.4259,3.3941,3.3193,3.2682,3.2203,3.1749,3.1317,3.1129,3.1296,3.1006,3.0522,2.9794,2.9661,2.9458,2.9127,2.9099,2.9099,2.9099,2.9099,2.9099,2.9099,2.9194,2.9392,2.9596,2.9899,2.9931,2.9739,2.9981,3.0154,3.0295,3.063,3.1022,3.1423,3.1538,3.1473,3.1228,3.0982,3.0895,3.0895,3.0895,3.0702,3.0447,3.0266,3.0158,3.0111]}]]